[[{"header":{"parameterUnit":"m.s-1","parameterCategory":1,"la1":30.6,"la2":28.766,"lo1":-90.7593,"lo2":-88.6598,"dy":0.0162,"dx":0.0183,"nx":116,"ny":114,"refTime":"2024-03-16T18:00:00:Z","depth":0,"parameterNumber":2,"parameterNumberName":"U-component_of_WINDS"},"data":[0.0,0.0,0.0,0.0,0.0,0.0,0.0,0.0,0.0,0.0,0.0,0.0,0.0,0.0,0.0,0.0,0.0,0.0,0.0,0.0,0.0,0.0,0.0,0.0,0.0,0.0,0.0,0.0,0.0,0.0,0.0,0.0,0.0,0.0,0.0,0.0,0.0,0.0,0.0,0.0,0.0,0.0,0.0,0.0,0.0,0.0,0.0,0.0,0.0,0.0,0.0,0.0,0.0,0.0,0.0,0.0,0.0,0.0,0.0,0.0,0.0,0.0,0.0,0.0,0.0,0.0,0.0,0.0,0.0,0.0,0.0,0.0,0.0,0.0,0.0,0.0,0.0,0.0,0.0,0.0,0.0,0.0,0.0,0.0,0.0,0.0,0.0,0.0,0.0,0.0,0.0,0.0,0.0,0.0,0.0,0.0,0.0,0.0,0.0,0.0,0.0,0.0,0.0,0.0,0.0,0.0,0.0,0.0,0.0,0.0,0.0,0.0,0.0,0.0,0.0,0.0,0.0,0.0,0.0,0.0,0.0,0.0,0.0,0.0,0.0,0.0,0.0,0.0,0.0,0.0,0.0,0.0,0.0,0.0,0.0,0.0,0.0,0.0,0.0,0.0,0.0,0.0,0.0,0.0,0.0,0.0,0.0,0.0,0.0,0.0,0.0,0.0,0.0,0.0,0.0,0.0,0.0,0.0,0.0,0.0,0.0,0.0,0.0,0.0,0.0,0.0,0.0,0.0,0.0,0.0,0.0,0.0,0.0,0.0,0.0,0.0,0.0,0.0,0.0,0.0,0.0,0.0,0.0,0.0,0.0,0.0,0.0,0.0,0.0,0.0,0.0,0.0,0.0,0.0,0.0,0.0,0.0,0.0,0.0,0.0,0.0,0.0,0.0,0.0,0.0,0.0,0.0,0.0,0.0,0.0,0.0,0.0,0.0,0.0,0.0,0.0,0.0,0.0,0.0,0.0,0.0,0.0,0.0,0.0,0.0,0.0,0.0,0.0,0.0,0.0,0.0,0.0,0.0,0.0,0.0,0.0,0.0,0.0,0.0,0.0,0.0,0.0,0.0,0.0,0.0,0.0,0.0,0.0,0.0,0.0,0.0,0.0,0.0,0.0,0.0,0.0,0.0,0.0,0.0,0.0,0.0,0.0,0.0,0.0,0.0,0.0,0.0,0.0,0.0,0.0,0.0,0.0,0.0,0.0,0.0,0.0,0.0,0.0,0.0,0.0,0.0,0.0,0.0,0.0,0.0,0.0,0.0,0.0,0.0,0.0,0.0,0.0,0.0,0.0,0.0,0.0,0.0,0.0,0.0,0.0,0.0,0.0,0.0,0.0,0.0,0.0,0.0,0.0,0.0,0.0,0.0,0.0,0.0,0.0,0.0,0.0,0.0,0.0,0.0,0.0,0.0,0.0,0.0,0.0,0.0,0.0,0.0,0.0,0.0,0.0,0.0,0.0,0.0,0.0,0.0,0.0,0.0,0.0,0.0,0.0,0.0,0.0,0.0,0.0,0.0,0.0,0.0,0.0,0.0,0.0,0.0,0.0,0.0,0.0,0.0,0.0,0.0,0.0,0.0,0.0,0.0,0.0,0.0,0.0,0.0,0.0,0.0,0.0,0.0,0.0,0.0,0.0,0.0,0.0,0.0,0.0,0.0,0.0,0.0,0.0,0.0,0.0,0.0,0.0,0.0,0.0,0.0,0.0,0.0,0.0,0.0,0.0,0.0,0.0,0.0,0.0,0.0,0.0,0.0,0.0,0.0,0.0,0.0,0.0,0.0,0.0,0.0,0.0,0.0,0.0,0.0,0.0,0.0,0.0,0.0,0.0,0.0,0.0,0.0,0.0,0.0,0.0,0.0,0.0,0.0,0.0,0.0,0.0,0.0,0.0,0.0,0.0,0.0,0.0,0.0,0.0,0.0,0.0,0.0,0.0,0.0,0.0,0.0,0.0,0.0,0.0,0.0,0.0,0.0,0.0,0.0,0.0,0.0,0.0,0.0,0.0,0.0,0.0,0.0,0.0,0.0,0.0,0.0,0.0,0.0,0.0,0.0,0.0,0.0,0.0,0.0,0.0,0.0,0.0,0.0,0.0,0.0,0.0,0.0,0.0,0.0,0.0,0.0,0.0,0.0,0.0,0.0,0.0,0.0,0.0,0.0,0.0,0.0,0.0,0.0,0.0,0.0,0.0,0.0,0.0,0.0,0.0,0.0,0.0,0.0,0.0,0.0,0.0,0.0,0.0,0.0,0.0,0.0,0.0,0.0,0.0,0.0,0.0,0.0,0.0,0.0,0.0,0.0,0.0,0.0,0.0,0.0,0.0,0.0,0.0,0.0,0.0,0.0,0.0,0.0,0.0,0.0,0.0,0.0,0.0,0.0,0.0,0.0,0.0,0.0,0.0,0.0,0.0,0.0,0.0,0.0,0.0,0.0,0.0,0.0,0.0,0.0,0.0,0.0,0.0,0.0,0.0,0.0,0.0,0.0,0.0,0.0,0.0,0.0,0.0,0.0,0.0,0.0,0.0,0.0,0.0,0.0,0.0,0.0,0.0,0.0,0.0,0.0,0.0,0.0,0.0,0.0,0.0,0.0,0.0,0.0,0.0,0.0,0.0,0.0,0.0,0.0,0.0,0.0,0.0,0.0,0.0,0.0,0.0,0.0,0.0,0.0,0.0,0.0,0.0,0.0,0.0,0.0,0.0,0.0,0.0,0.0,0.0,0.0,0.0,0.0,0.0,0.0,0.0,0.0,0.0,0.0,0.0,0.0,0.0,0.0,0.0,0.0,0.0,0.0,0.0,0.0,0.0,0.0,0.0,0.0,0.0,0.0,0.0,0.0,0.0,0.0,0.0,0.0,0.0,0.0,0.0,0.0,0.0,0.0,0.0,0.0,0.0,0.0,0.0,0.0,0.0,0.0,0.0,0.0,0.0,0.0,0.0,0.0,0.0,0.0,0.0,0.0,0.0,0.0,0.0,0.0,0.0,0.0,0.0,0.0,0.0,0.0,0.0,0.0,0.0,0.0,0.0,0.0,0.0,0.0,0.0,0.0,0.0,0.0,0.0,0.0,0.0,0.0,0.0,0.0,0.0,0.0,0.0,0.0,0.0,0.0,0.0,0.0,0.0,0.0,0.0,0.0,0.0,0.0,0.0,0.0,0.0,0.0,0.0,0.0,0.0,0.0,0.0,0.0,0.0,0.0,0.0,0.0,0.0,0.0,0.0,0.0,0.0,0.0,0.0,0.0,0.0,0.0,0.0,0.0,0.0,0.0,0.0,0.0,0.0,0.0,0.0,0.0,0.0,0.0,0.0,0.0,0.0,0.0,0.0,0.0,0.0,0.0,0.0,0.0,0.0,0.0,0.0,0.0,0.0,0.0,0.0,0.0,0.0,0.0,0.0,0.0,0.0,0.0,0.0,0.0,0.0,0.0,0.0,0.0,0.0,0.0,0.0,0.0,0.0,0.0,0.0,0.0,0.0,0.0,0.0,0.0,0.0,0.0,0.0,0.0,0.0,0.0,0.0,0.0,0.0,0.0,0.0,0.0,0.0,0.0,0.0,0.0,0.0,0.0,0.0,0.0,0.0,0.0,0.0,0.0,0.0,0.0,0.0,0.0,0.0,0.0,0.0,0.0,0.0,0.0,0.0,0.0,0.0,0.0,0.0,0.0,0.0,0.0,0.0,0.0,0.0,0.0,0.0,0.0,0.0,0.0,0.0,0.0,0.0,0.0,0.0,0.0,0.0,0.0,0.0,0.0,0.0,0.0,0.0,0.0,0.0,0.0,0.0,0.0,0.0,0.0,0.0,0.0,0.0,0.0,0.0,0.0,0.0,0.0,0.0,0.0,0.0,0.0,0.0,0.0,0.0,0.0,0.0,0.0,0.0,0.0,0.0,0.0,0.0,0.0,0.0,0.0,0.0,0.0,0.0,0.0,0.0,0.0,0.0,0.0,0.0,0.0,0.0,0.0,0.0,0.0,0.0,0.0,0.0,0.0,0.0,0.0,0.0,0.0,0.0,0.0,0.0,0.0,0.0,0.0,0.0,0.0,0.0,0.0,0.0,0.0,0.0,0.0,0.0,0.0,0.0,0.0,0.0,0.0,0.0,0.0,0.0,0.0,0.0,0.0,0.0,0.0,0.0,0.0,0.0,0.0,0.0,0.0,0.0,0.0,0.0,0.0,0.0,0.0,0.0,0.0,0.0,0.0,0.0,0.0,0.0,0.0,0.0,0.0,0.0,0.0,0.0,0.0,0.0,0.0,0.0,0.0,0.0,0.0,0.0,0.0,0.0,0.0,0.0,0.0,0.0,0.0,0.0,0.0,0.0,0.0,0.0,0.0,0.0,0.0,0.0,0.0,0.0,0.0,0.0,0.0,0.0,0.0,0.0,0.0,0.0,0.0,0.0,0.0,0.0,0.0,0.0,0.0,0.0,0.0,0.0,0.0,0.0,0.0,0.0,0.0,0.0,0.0,0.0,0.0,0.0,0.0,0.0,0.0,0.0,0.0,0.0,0.0,0.0,0.0,0.0,0.0,0.0,0.0,0.0,0.0,0.0,0.0,0.0,0.0,0.0,0.0,0.0,0.0,0.0,0.0,0.0,0.0,0.0,0.0,0.0,0.0,0.0,0.0,0.0,0.0,0.0,0.0,0.0,0.0,0.0,0.0,0.0,0.0,0.0,0.0,0.0,0.0,0.0,0.0,0.0,0.0,0.0,0.0,0.0,0.0,0.0,0.0,0.0,0.0,0.0,0.0,0.0,0.0,0.0,0.0,0.0,0.0,0.0,0.0,0.0,0.0,0.0,0.0,0.0,0.0,0.0,0.0,0.0,0.0,0.0,0.0,0.0,0.0,0.0,0.0,0.0,0.0,0.0,0.0,0.0,0.0,0.0,0.0,0.0,0.0,0.0,0.0,0.0,0.0,0.0,0.0,0.0,0.0,0.0,0.0,0.0,0.0,0.0,0.0,0.0,0.0,0.0,0.0,0.0,0.0,0.0,0.0,0.0,0.0,0.0,0.0,0.0,0.0,0.0,0.0,0.0,0.0,0.0,0.0,0.0,0.0,0.0,0.0,0.0,0.0,0.0,0.0,0.0,0.0,0.0,0.0,0.0,0.0,0.0,0.0,0.0,0.0,0.0,0.0,0.0,0.0,0.0,0.0,0.0,0.0,0.0,0.0,0.0,0.0,0.0,0.0,0.0,0.0,0.0,0.0,0.0,0.0,0.0,0.0,0.0,0.0,0.0,0.0,0.0,0.0,0.0,0.0,0.0,0.0,0.0,0.0,0.0,0.0,0.0,0.0,0.0,0.0,0.0,0.0,0.0,0.0,0.0,0.0,0.0,0.0,0.0,0.0,0.0,0.0,0.0,0.0,0.0,0.0,0.0,0.0,0.0,0.0,0.0,0.0,0.0,0.0,0.0,0.0,0.0,0.0,0.0,0.0,0.0,0.0,0.0,0.0,0.0,0.0,0.0,0.0,0.0,0.0,0.0,0.0,0.0,0.0,0.0,0.0,0.0,0.0,0.0,0.0,0.0,0.0,0.0,0.0,0.0,0.0,0.0,0.0,0.0,0.0,0.0,0.0,0.0,0.0,0.0,0.0,0.0,0.0,0.0,0.0,0.0,0.0,0.0,0.0,0.0,0.0,0.0,0.0,0.0,0.0,0.0,0.0,0.0,0.0,0.0,0.0,0.0,0.0,0.0,0.0,0.0,0.0,0.0,0.0,0.0,0.0,0.0,0.0,0.0,0.0,0.0,0.0,0.0,0.0,0.0,0.0,0.0,0.0,0.0,0.0,0.0,0.0,0.0,0.0,0.0,0.0,0.0,0.0,0.0,0.0,0.0,0.0,0.0,0.0,0.0,0.0,0.0,0.0,0.0,0.0,0.0,0.0,0.0,0.0,0.0,0.0,0.0,0.0,0.0,0.0,0.0,0.0,0.0,0.0,0.0,0.0,0.0,0.0,0.0,0.0,0.0,0.0,0.0,0.0,0.0,0.0,0.0,0.0,0.0,0.0,0.0,0.0,0.0,0.0,0.0,0.0,0.0,0.0,0.0,0.0,0.0,0.0,0.0,0.0,0.0,-2.0922,-2.0314,0.0,0.0,0.0,0.0,0.0,0.0,0.0,0.0,0.0,0.0,0.0,0.0,0.0,0.0,0.0,0.0,0.0,0.0,0.0,0.0,0.0,0.0,0.0,0.0,0.0,0.0,0.0,0.0,0.0,0.0,0.0,0.0,0.0,0.0,-2.0093,-2.014,-2.0536,-2.135,-2.1878,-2.2538,-2.3318,-2.2829,-2.2388,-2.2005,0.0,0.0,0.0,0.0,0.0,0.0,0.0,0.0,0.0,0.0,0.0,0.0,0.0,0.0,0.0,0.0,0.0,0.0,0.0,0.0,0.0,0.0,0.0,0.0,0.0,0.0,0.0,0.0,0.0,0.0,0.0,0.0,0.0,0.0,0.0,0.0,0.0,0.0,0.0,0.0,0.0,0.0,0.0,0.0,0.0,0.0,0.0,0.0,0.0,0.0,0.0,0.0,0.0,0.0,0.0,0.0,0.0,0.0,0.0,0.0,0.0,0.0,0.0,0.0,0.0,0.0,0.0,0.0,0.0,0.0,-2.2697,-2.1954,0.0,0.0,0.0,0.0,0.0,0.0,0.0,0.0,0.0,0.0,0.0,0.0,0.0,0.0,0.0,0.0,0.0,0.0,0.0,0.0,0.0,0.0,0.0,-2.0235,-2.0312,-2.0528,-2.0532,-2.0475,-2.0341,-2.0322,-2.0327,-2.0336,-2.0341,-2.0422,-2.0575,-2.0768,-2.1562,-2.2934,-2.3306,-2.4411,-2.6212,-2.5904,-2.5499,-2.496,0.0,0.0,0.0,0.0,0.0,0.0,0.0,0.0,0.0,0.0,0.0,0.0,0.0,0.0,0.0,0.0,0.0,0.0,0.0,0.0,0.0,0.0,0.0,0.0,0.0,0.0,0.0,0.0,0.0,0.0,0.0,0.0,0.0,0.0,0.0,0.0,0.0,0.0,0.0,0.0,0.0,0.0,0.0,0.0,0.0,0.0,0.0,0.0,0.0,0.0,0.0,0.0,0.0,0.0,0.0,0.0,0.0,0.0,0.0,0.0,0.0,0.0,0.0,0.0,-2.4131,-2.4455,-2.448,-2.5152,-2.5888,-2.6499,-2.4321,-2.3637,-2.3947,-2.3,0.0,0.0,0.0,0.0,0.0,0.0,0.0,0.0,0.0,0.0,0.0,0.0,0.0,0.0,0.0,0.0,0.0,0.0,0.0,0.0,0.0,-2.1129,-2.1436,-2.2194,-2.2276,-2.197,-2.1268,-2.1235,-2.1254,-2.13,-2.1324,-2.1662,-2.2438,-2.3195,-2.3681,-2.3914,-2.5444,-2.7459,-2.9868,-2.8345,-2.7997,-2.8515,-2.6067,0.0,0.0,0.0,0.0,0.0,0.0,0.0,0.0,0.0,0.0,0.0,0.0,0.0,0.0,0.0,0.0,0.0,0.0,0.0,0.0,0.0,0.0,0.0,0.0,0.0,0.0,0.0,0.0,0.0,0.0,0.0,0.0,0.0,0.0,0.0,0.0,0.0,0.0,0.0,0.0,0.0,0.0,0.0,-2.2302,-2.2523,0.0,0.0,0.0,0.0,0.0,0.0,0.0,0.0,0.0,0.0,0.0,0.0,0.0,-2.5214,-2.5981,-2.6619,-2.6969,-2.7025,-2.7058,-2.7108,-2.7108,-2.7204,-2.7317,-2.7411,-2.7076,0.0,-2.4859,-2.3917,0.0,0.0,0.0,0.0,0.0,0.0,0.0,0.0,0.0,0.0,0.0,0.0,0.0,0.0,0.0,0.0,0.0,0.0,0.0,0.0,0.0,-2.2526,-2.3174,-2.4029,-2.4111,-2.3784,-2.2964,-2.2925,-2.2704,-2.2241,-2.2235,-2.2406,-2.2789,-2.3685,-2.5099,-2.7028,-2.9216,-3.0888,-3.1985,-3.1217,-3.1081,-3.1386,-3.0211,-2.8618,-2.676,-2.5927,0.0,0.0,0.0,0.0,0.0,0.0,0.0,0.0,0.0,0.0,0.0,0.0,0.0,0.0,0.0,0.0,0.0,0.0,0.0,0.0,0.0,0.0,0.0,0.0,0.0,0.0,0.0,0.0,0.0,0.0,0.0,0.0,0.0,0.0,0.0,0.0,0.0,0.0,0.0,-2.2513,-2.3589,-2.3631,-2.3609,-2.3412,0.0,0.0,0.0,0.0,0.0,0.0,0.0,0.0,0.0,-2.6159,-2.6929,-2.752,-2.79,-2.867,-2.909,-2.9168,-2.9595,-2.9812,-2.9858,-3.0322,-3.0545,-3.0539,-3.0013,-2.9108,-2.7861,-2.6466,-2.5374,-2.4594,0.0,0.0,0.0,0.0,-2.3436,-2.3143,0.0,0.0,0.0,0.0,0.0,0.0,0.0,0.0,0.0,0.0,0.0,0.0,-2.3232,-2.4149,-2.5024,-2.589,-2.5972,-2.5625,-2.4797,-2.4528,-2.4128,-2.3486,-2.3248,-2.3353,-2.3801,-2.5158,-2.7503,-3.0951,-3.2609,-3.3648,-3.4074,-3.3861,-3.3764,-3.3764,-3.3764,-3.2106,-2.9224,-2.8153,-2.7198,0.0,0.0,0.0,0.0,0.0,0.0,0.0,0.0,0.0,0.0,0.0,0.0,0.0,0.0,0.0,0.0,0.0,0.0,0.0,0.0,0.0,0.0,0.0,0.0,0.0,0.0,0.0,0.0,0.0,0.0,0.0,0.0,0.0,0.0,0.0,0.0,0.0,0.0,-2.358,-2.473,-2.4548,-2.4873,-2.4942,0.0,0.0,0.0,0.0,0.0,0.0,-2.6333,-2.695,-2.7754,-2.8848,-2.9423,-2.9823,-3.004,-3.0625,-3.0938,-3.1002,-3.1558,-3.1852,-3.1924,-3.2515,-3.2781,-3.2778,-3.2106,-3.1434,-3.0658,-2.8739,-2.7433,-2.6663,-2.6643,-2.5842,-2.4751,-2.5274,-2.5104,-2.4704,0.0,0.0,0.0,0.0,0.0,0.0,0.0,0.0,0.0,0.0,0.0,-2.3279,-2.497,-2.5951,-2.6818,-2.7699,-2.7776,-2.7411,-2.652,-2.5693,-2.525,-2.5265,-2.4488,-2.4841,-2.6564,-2.9018,-3.1951,-3.5375,-3.4684,-3.5143,-3.669,-3.5936,-3.5568,-3.5568,-3.5568,-3.4543,-3.2739,-3.1096,-2.9901,-2.8896,0.0,0.0,0.0,0.0,0.0,0.0,0.0,0.0,0.0,0.0,0.0,0.0,0.0,0.0,0.0,0.0,0.0,0.0,0.0,0.0,0.0,0.0,0.0,0.0,0.0,0.0,0.0,0.0,0.0,0.0,0.0,0.0,0.0,0.0,0.0,0.0,0.0,0.0,0.0,-2.5538,-2.6893,0.0,0.0,0.0,0.0,-2.6583,-2.7314,-2.8162,-2.896,-2.9052,-2.9813,-3.1457,-3.1601,-3.2053,-3.2891,-3.2868,-3.2856,-3.2866,-3.2782,-3.2741,-3.2741,-3.2725,-3.2665,-3.2622,-3.2627,-3.2588,-3.2298,-2.99,-2.8422,-2.7612,-2.7559,-2.747,-2.74,-2.7301,-2.7326,-2.74,0.0,0.0,0.0,0.0,0.0,0.0,0.0,0.0,-2.1024,-2.1369,-2.3146,-2.4817,-2.6015,-2.7918,-2.9453,-3.0337,-3.0414,-3.0279,-2.997,-2.812,-2.755,-2.8704,-2.7363,-2.7705,-3.0025,-3.2029,-3.3915,-3.5704,-3.6477,-3.7154,-3.7729,-3.7444,-3.7309,-3.7309,-3.7309,-3.6955,-3.624,-3.3982,-3.1913,-3.0056,-2.9147,-2.7089,0.0,0.0,0.0,0.0,0.0,0.0,0.0,0.0,0.0,0.0,0.0,0.0,0.0,0.0,0.0,0.0,0.0,0.0,0.0,0.0,0.0,0.0,0.0,0.0,0.0,0.0,0.0,0.0,0.0,0.0,0.0,0.0,0.0,0.0,0.0,0.0,0.0,-2.7912,-2.8559,0.0,-2.8001,-2.9004,-2.9334,-2.844,-2.9705,-3.0616,-3.0856,-3.1404,-3.1988,-3.2579,-3.3674,-3.4388,-3.4708,-3.5701,-3.6214,-3.6214,-3.6173,-3.6145,-3.6138,-3.6036,-3.597,-3.5954,-3.5933,-3.5621,-3.4994,-3.3624,-3.2209,-3.0866,-3.0276,-2.9689,-2.9193,-2.9152,-2.8809,-2.8441,0.0,0.0,0.0,0.0,0.0,0.0,0.0,0.0,-2.1622,-2.2226,-2.4317,-2.6299,-2.7759,-2.9723,-3.1299,-3.2159,-3.2237,-3.2101,-3.1811,-2.9979,-2.9268,-3.0114,-2.9334,-3.0094,-3.2687,-3.4128,-3.569,-3.7431,-3.8528,-3.9379,-3.9914,-3.9914,-3.9908,-3.9876,-3.9605,-3.9308,-3.8916,-3.6961,-3.4645,-3.2242,-3.1352,-2.9495,-2.7155,0.0,0.0,0.0,0.0,0.0,0.0,0.0,0.0,0.0,0.0,0.0,0.0,0.0,0.0,0.0,0.0,0.0,0.0,0.0,0.0,0.0,0.0,0.0,0.0,0.0,0.0,0.0,0.0,0.0,0.0,0.0,0.0,0.0,0.0,-2.7207,-2.8438,-2.9307,-3.0188,-3.0572,-3.0214,-3.0991,-3.1254,-3.0635,-3.1945,-3.2876,-3.3076,-3.3912,-3.4527,-3.4814,-3.5904,-3.6477,-3.6477,-3.7507,-3.8031,-3.8024,-3.7954,-3.7924,-3.7928,-3.7811,-3.7778,-3.7759,-3.7719,-3.7406,-3.6871,-3.6323,-3.5425,-3.4208,-3.247,-3.1451,-3.0948,-3.0913,-3.0555,-3.016,0.0,0.0,0.0,0.0,0.0,0.0,0.0,-2.0871,-2.2087,-2.387,-2.5582,-2.762,-3.0221,-3.1294,-3.2179,-3.303,-3.3107,-3.2739,-3.1908,-3.1043,-3.0211,-2.9457,-3.0308,-3.1971,-3.451,-3.5419,-3.7489,-4.0835,-4.0835,-4.168,-4.3305,-4.3266,-4.3246,-4.3173,-4.2395,-4.1564,-4.072,-3.9888,-3.8108,-3.5626,-3.2977,-3.1424,-3.0482,0.0,0.0,0.0,0.0,0.0,0.0,0.0,0.0,0.0,0.0,0.0,0.0,0.0,0.0,0.0,0.0,0.0,0.0,0.0,0.0,0.0,0.0,0.0,0.0,0.0,0.0,0.0,0.0,0.0,0.0,0.0,0.0,0.0,-2.7153,-2.9163,-3.045,-2.966,-3.1818,-3.3029,-3.2104,-3.2885,-3.3382,-3.3229,-3.4095,-3.4937,-3.5642,-3.6482,-3.733,-3.817,-3.8239,-3.8232,-3.8232,-3.8209,-3.8189,-3.8182,-3.7982,-3.7885,-3.7877,-3.7821,-3.7778,-3.7778,-3.7778,-3.7797,-3.7778,-3.7759,-3.774,-3.7406,-3.4026,-3.2724,-3.2716,-3.2642,-3.268,-3.2776,0.0,0.0,0.0,0.0,0.0,0.0,0.0,-2.1417,-2.2748,-2.388,-2.6087,-2.8298,-3.0278,-3.1834,-3.284,-3.3082,-3.3107,-3.301,-3.2759,-3.081,-3.0366,-3.1985,-3.406,-3.6091,-3.805,-3.8959,-4.0139,-4.1661,-4.1661,-4.2222,-4.3285,-4.2647,-4.2679,-4.3265,-4.3047,-4.2815,-4.2492,-4.099,-3.9998,-3.9114,-3.5916,-3.375,-3.2237,0.0,0.0,0.0,0.0,0.0,0.0,0.0,0.0,0.0,0.0,0.0,0.0,0.0,0.0,0.0,0.0,0.0,0.0,0.0,0.0,0.0,0.0,0.0,0.0,0.0,0.0,0.0,0.0,0.0,0.0,0.0,-2.9833,-3.0025,-2.9757,-3.0823,-3.2026,-3.3055,-3.4326,-3.5014,-3.4753,-3.6105,-3.6705,-3.5979,-3.6714,-3.7257,-3.7405,-3.7694,-3.795,-3.8189,-3.8806,-3.9133,-3.9133,-3.9753,-4.0005,-3.9913,-3.9851,-3.9807,-3.9765,-3.9749,-3.9733,-3.9733,-3.9733,-3.9701,-3.9604,-3.8982,-3.8691,-3.841,-3.6218,-3.537,-3.5425,-3.5344,-3.5734,-3.6216,0.0,0.0,0.0,0.0,0.0,0.0,0.0,-2.1622,-2.3141,-2.4385,-2.6491,-2.8697,-3.0791,-3.2262,-3.31,-3.3091,-3.3759,-3.3726,-3.2623,-3.1502,-3.1874,0.0,0.0,-3.8257,-4.0004,-4.0874,-4.1893,-4.3092,-4.3092,-4.3518,-4.433,-4.3827,-4.3859,-4.4329,-4.3994,-4.3807,-4.3682,-4.2356,-4.1809,-4.1564,-3.8871,-3.677,-3.506,-3.3348,-3.2613,-3.2169,-2.9704,-2.9371,-2.9771,-2.7701,0.0,0.0,0.0,0.0,0.0,0.0,0.0,0.0,0.0,0.0,0.0,0.0,0.0,0.0,0.0,0.0,0.0,0.0,0.0,0.0,0.0,0.0,0.0,0.0,-3.2065,-3.2986,-3.2975,-3.3329,-3.3971,-3.4983,-3.6157,-3.6887,-3.6887,-3.7782,-3.8113,-3.755,-3.8243,-3.8665,-3.8612,-3.9,-3.9213,-3.9213,-3.9709,-3.9998,-3.9998,-4.0488,-4.0674,-4.0595,-4.0559,-4.0542,-4.0496,-4.0496,-4.0481,-4.0465,-4.0465,-4.0444,-4.0358,-3.9838,-3.9629,0.0,0.0,0.0,0.0,0.0,-3.7257,-3.7644,0.0,0.0,0.0,0.0,0.0,0.0,0.0,-2.1613,-2.3333,-2.5067,-2.6814,-2.8851,-3.1419,-3.2458,-3.2993,-3.307,-3.4508,-3.4427,-3.2101,-3.285,0.0,-3.5762,-3.7541,-3.9321,-4.1048,-4.1874,-4.3092,-4.4736,-4.4632,-4.5007,-4.5807,-4.571,-4.5708,-4.5776,-4.5051,-4.4675,-4.4511,-4.3747,-4.3413,-4.3211,-4.1621,-3.9979,-3.829,-3.6443,-3.6219,-3.6489,-3.333,-3.2679,-3.2927,-3.0565,0.0,0.0,0.0,0.0,0.0,0.0,0.0,0.0,0.0,0.0,0.0,0.0,0.0,0.0,0.0,0.0,0.0,0.0,0.0,0.0,0.0,0.0,0.0,0.0,-3.4022,-3.6066,-3.6267,-3.6256,-3.6196,-3.6098,-3.7551,-3.8542,-3.8542,-3.8578,-3.8562,-3.8489,-3.9135,-3.9508,-3.9444,-4.0174,0.0,0.0,0.0,-4.0694,-4.07,-4.0635,-4.0621,-4.0621,-4.0557,-4.0519,-4.0527,-4.0527,-4.0504,-4.0438,-4.0454,-4.0441,-4.0422,-4.0433,-4.0422,-4.0244,-3.8626,-3.7992,-3.7983,-3.7992,-3.7991,-3.7988,0.0,0.0,0.0,0.0,0.0,0.0,0.0,-2.1613,-2.3333,-2.5067,-2.6776,-2.8799,-3.1413,-3.1915,-3.2309,-3.296,-3.3371,-3.3397,-3.2875,0.0,-3.5585,-3.6613,-3.8992,-4.1081,-4.2783,-4.3653,-4.4581,-4.5568,-4.4929,-4.5007,-4.5787,-4.5142,-4.5174,-4.5793,-4.5645,-4.5541,-4.5469,-4.4634,-4.4293,-4.4232,-4.3151,-4.1743,-4.0011,-3.7514,-3.6716,-3.6721,-3.5295,-3.4873,-3.4847,-3.3703,-3.2696,-3.1672,-3.0136,0.0,0.0,0.0,0.0,0.0,0.0,0.0,0.0,0.0,0.0,0.0,0.0,0.0,0.0,0.0,0.0,0.0,0.0,0.0,0.0,-3.457,-3.5565,-3.6475,-3.7821,-3.855,-3.8672,-3.7988,-3.8812,-3.9451,-3.9451,-4.0024,-4.0348,-4.0222,-4.0359,-4.0397,-4.0262,-4.0484,-4.0603,-4.0603,-4.06,-4.0654,-4.07,-4.0694,-4.0707,-4.0759,0.0,0.0,-4.0739,-4.0739,-4.0733,-4.0726,-4.0725,-4.0662,-4.0571,-4.0619,-4.0583,-4.0434,-4.0049,-3.9839,-3.9804,-3.9812,-3.9803,-3.9708,0.0,0.0,0.0,0.0,0.0,0.0,0.0,-2.157,-2.3135,-2.4514,-2.6507,-2.8461,-3.0217,-3.0829,-3.1245,-3.1613,-3.2072,-3.2711,0.0,-3.5244,-3.6588,-3.7455,-4.0391,-4.2402,-4.3285,-4.4543,-4.5394,-4.5807,-4.5394,-4.5413,-4.5787,-4.5394,-4.5413,-4.5807,-4.5807,-4.5561,-4.5114,-4.4725,-4.4551,-4.4469,-4.3571,-4.2728,-4.1751,-3.9547,-3.8717,-3.8575,-3.7224,-3.6727,-3.6507,-3.527,-3.427,-3.334,-3.2044,-3.1127,-3.0346,0.0,0.0,0.0,0.0,0.0,0.0,0.0,0.0,0.0,0.0,0.0,0.0,0.0,0.0,-3.0253,-3.2402,0.0,-3.4141,-3.6309,-3.7382,-3.8238,-3.9036,-3.9843,-4.0036,-3.9151,-3.9788,-4.031,-4.0343,-4.0689,-4.0848,-4.0706,-4.0668,-4.0621,-4.0504,-4.0531,-4.0539,-4.0539,-4.0576,-4.0624,-4.0646,-4.068,-4.0726,-4.0746,-4.0784,-4.0809,-4.0797,-4.0802,-4.1022,-4.1384,-4.0938,-4.0945,-4.1212,-4.0861,-4.0666,-4.0598,-4.0554,-4.0471,-4.0354,-4.0353,-4.0336,-4.0234,0.0,0.0,0.0,0.0,0.0,0.0,0.0,-2.1531,-2.2977,-2.3952,-2.6095,-2.7884,-2.8749,-2.9469,-3.0019,-3.0284,-3.1251,0.0,0.0,-3.597,-3.7326,-3.8041,-4.1335,-4.3204,-4.3285,-4.4909,-4.5793,-4.5807,-4.5807,-4.5807,-4.5807,-4.5807,-4.5729,-4.5568,-4.5568,-4.509,-4.4281,-4.4488,-4.4539,-4.444,-4.3719,-4.3332,-4.3004,-4.1451,-4.074,-4.0388,-3.8811,-3.8004,-3.7456,-3.6089,-3.4985,-3.409,-3.3372,-3.2752,-3.2101,-3.1061,-3.0196,0.0,0.0,0.0,0.0,0.0,0.0,0.0,0.0,-2.8925,-2.9296,-3.1034,-3.1523,-3.2324,-3.4531,-3.5664,-3.6582,-3.7637,-3.8984,-3.994,-4.0042,-4.0604,-4.0747,-4.0052,-4.0524,-4.0945,-4.0987,-4.0946,-4.0867,-4.0724,-4.0655,-4.0658,-4.077,-4.06,-4.0573,-4.0746,-4.0635,-4.0665,-4.0853,-4.091,-4.1029,-4.1222,-4.1099,-4.104,-4.1047,-4.0878,-4.117,-4.1731,-4.1016,-4.1087,-4.1647,-4.099,-4.0726,-4.0726,-4.0726,-4.0612,-4.046,-4.0436,-4.0379,-4.0328,0.0,0.0,0.0,0.0,0.0,0.0,0.0,0.0,-2.3007,-2.3909,-2.5554,-2.6979,-2.7852,-2.803,-2.8714,-3.0256,-3.1783,0.0,-3.4122,-3.644,-3.7843,-3.8003,-4.1235,-4.3092,-4.3207,-4.4855,-4.5734,-4.5807,-4.5807,-4.5807,-4.5807,-4.5807,-4.5413,-4.4736,-4.4736,-4.4246,-4.3485,-4.4129,-4.4449,-4.4491,-4.4334,-4.3801,-4.3019,-4.2104,-4.1261,-4.0465,-3.9503,-3.8146,-3.6803,-3.6546,-3.547,-3.4186,-3.409,-3.4081,-3.3799,-3.2212,-3.1162,-3.0361,-2.9552,-2.8811,-2.8444,-2.9177,-2.8831,-2.8884,0.0,-3.1113,-3.1092,-3.2772,-3.3749,-3.4609,-3.5664,-3.6562,-3.7695,-3.9336,-3.9766,-4.0156,-4.0853,-4.0984,-4.0994,-4.095,-4.096,-4.0982,-4.1006,-4.0982,-4.0927,-4.0807,-4.0724,-4.0997,-4.1711,-4.095,-4.0854,-4.1643,-4.092,-4.09,-4.1745,-4.1752,-4.2214,-4.3098,-4.2324,-4.1955,-4.1931,-4.1216,-4.0915,-4.0926,-4.0829,-4.0859,-4.0992,-4.0859,-4.079,-4.079,-4.079,-4.075,-4.0649,-4.0526,-4.0457,-4.0396,0.0,0.0,0.0,0.0,0.0,0.0,0.0,0.0,0.0,-2.318,-2.4767,-2.6124,-2.6954,-2.7462,-2.805,-2.8771,0.0,0.0,-3.3262,-3.6163,-3.7873,-3.794,-4.0691,-4.2297,-4.2379,-4.4036,-4.4892,-4.4932,-4.5438,-4.5685,-4.5685,-4.5727,-4.5309,-4.4537,-4.4537,-4.4054,-4.3224,-4.3033,-4.3257,-4.3697,-4.3165,-4.2429,-4.1605,-4.1273,-3.9971,-3.8334,-3.8447,-3.7379,0.0,0.0,-3.4352,-3.3455,-3.3493,-3.3586,-3.3475,-3.2302,-3.1728,-3.1281,-3.0477,-3.0003,-2.9961,-3.085,-3.0817,-3.0976,-3.2519,-3.2597,-3.2694,-3.3905,-3.4842,-3.5878,-3.7265,-3.8222,-3.9219,-4.0469,-4.0664,-4.0761,-4.1069,-4.1076,-4.1062,-4.1097,-4.1081,-4.1039,-4.1007,-4.1451,-4.1691,-4.1576,-4.2031,-4.2425,-4.2637,-4.2321,-4.2288,-4.2606,-4.2259,-4.2254,-4.2657,-4.2697,-4.2911,-4.3285,-4.295,-4.282,-4.2858,-4.2518,-4.233,-4.2338,-4.2805,-4.2753,-4.2316,-4.1778,-4.1577,-4.1551,-4.1061,-4.0837,-4.0804,-4.0668,-4.0545,-4.0441,0.0,0.0,0.0,0.0,0.0,0.0,0.0,0.0,0.0,0.0,-2.3859,-2.5234,-2.6058,-2.6662,-2.7103,0.0,0.0,0.0,0.0,-3.531,-3.7302,-3.7822,-4.007,-4.1456,-4.1772,-4.3167,-4.3934,-4.3978,-4.4608,-4.4914,-4.4914,-4.4966,-4.4538,-4.3767,-4.3767,-4.3266,-4.2437,-4.2017,-4.2229,-4.2738,-4.1863,-4.1147,-4.0488,-3.9805,-3.8222,-3.6418,-3.6995,-3.6128,0.0,0.0,-3.2983,-3.2582,-3.2642,-3.2904,-3.3067,-3.2244,-3.1835,-3.153,-3.096,-3.0986,-3.1313,-3.1991,-3.2344,-3.2754,-3.3574,-3.3769,-3.4003,-3.4882,-3.5741,-3.6815,-3.832,-3.9316,-4.0195,-4.1055,-4.1191,-4.1172,-4.113,-4.1105,-4.11,-4.1095,-4.1099,-4.1076,-4.1028,-4.1572,-4.1902,-4.1801,-4.2626,-4.3174,-4.3273,-4.3286,-4.3389,-4.3576,-4.3343,-4.3336,-4.3581,-4.3628,-4.375,-4.3976,-4.3769,-4.3716,-4.3755,-4.3507,-4.3397,-4.3435,-4.4038,-4.3967,-4.3369,-4.2745,-4.251,-4.2489,-4.1868,-4.1616,-4.1586,-4.1241,-4.0881,-4.0557,0.0,0.0,0.0,0.0,0.0,0.0,0.0,0.0,0.0,0.0,0.0,0.0,0.0,-2.5266,-2.5623,0.0,0.0,0.0,0.0,-3.3853,-3.6012,-3.7644,-3.9393,-4.0767,-4.1679,-4.2523,-4.3009,-4.314,-4.3159,-4.3179,-4.3179,-4.3179,-4.2698,-4.1889,-4.1889,-4.1408,-4.0631,-4.1399,-4.1764,-4.1777,-4.0891,-4.0529,-4.0249,-3.7832,-3.6309,-3.5444,-3.5477,0.0,0.0,0.0,-3.1642,-3.1733,-3.1733,-3.2463,0.0,-3.2266,-3.1457,-3.0823,-3.0812,-3.1415,-3.2074,-3.2104,-3.2733,-3.3594,-3.4453,-3.4668,-3.4902,-3.5781,-3.664,-3.7538,-3.8437,-3.9316,-4.0195,-4.1055,-4.1191,-4.1191,-4.1191,-4.1131,-4.1107,-4.1107,-4.1098,-4.1108,-4.1108,-4.1067,-4.1036,-4.1035,-4.1773,-4.2615,-4.3442,-4.3377,-4.3687,-4.4535,-4.3737,-4.3699,-4.4544,-4.4563,-4.5021,-4.5894,-4.506,-4.4666,-4.4627,-4.3793,-4.3405,-4.3405,-4.349,-4.3525,-4.3486,-4.3466,-4.3466,-4.3466,-4.3428,-4.3428,-4.3311,-4.2481,-4.1535,-4.0687,0.0,0.0,0.0,0.0,0.0,0.0,0.0,0.0,0.0,0.0,0.0,0.0,0.0,0.0,0.0,0.0,0.0,0.0,0.0,-3.2993,-3.4655,-3.5218,-3.7387,-3.8475,-3.8242,-3.96,-4.0326,-4.0381,-4.0963,-4.1229,-4.1248,-4.1886,-4.1703,-4.0877,-4.0877,-4.1023,-4.1253,-4.0353,-4.0658,-4.1564,-3.9564,-3.8458,-3.7831,-3.6414,-3.4279,-3.209,0.0,0.0,0.0,-2.9525,-2.9517,-3.0018,-2.9422,-3.0327,-3.1534,-3.1284,-3.1006,-3.0927,-3.151,-3.1873,-3.2388,-3.3533,-3.4043,-3.4492,-3.5351,-3.5566,-3.5644,-3.5936,-3.6699,-3.7383,-3.7674,-3.8925,-4.0,-4.0293,-4.082,-4.1191,-4.1191,-4.1172,-4.1152,-4.1113,-4.1092,-4.1107,-4.1107,-4.1608,-4.1905,-4.1866,-4.3185,-4.4104,-4.4351,-4.4876,-4.5296,-4.5589,-4.5303,-4.5298,-4.5578,-4.5597,-4.5717,-4.5923,-4.5675,-4.5564,-4.5545,-4.5254,-4.5138,-4.5118,-4.5103,-4.5084,-4.5043,-4.4519,-4.4298,-4.4242,-4.3714,-4.3505,-4.3466,-4.318,-4.248,-4.1604,0.0,0.0,0.0,0.0,0.0,0.0,0.0,0.0,0.0,0.0,0.0,0.0,0.0,0.0,0.0,0.0,0.0,0.0,0.0,0.0,-3.2898,-3.3509,-3.5327,-3.6262,-3.6044,-3.7083,-3.779,-3.8076,-3.8656,-3.9094,-3.9381,-3.998,-3.9978,-3.9433,-3.9433,-3.974,-4.02,-3.9089,-3.9095,-3.9712,-3.777,-3.6297,-3.5177,-3.4016,-3.2026,0.0,0.0,0.0,0.0,-2.7727,-2.8004,-2.875,-2.8175,-2.9269,-3.0817,-3.1169,-3.1259,-3.1449,-3.2337,-3.2797,-3.3293,-3.4414,-3.4922,-3.5312,-3.5879,-3.5996,-3.5996,-3.5995,-3.6445,-3.6933,-3.7245,-3.8223,-3.9179,-3.9805,-4.0625,-4.1308,-4.1582,-4.1621,-4.1601,-4.1562,-4.1562,-4.1444,-4.1151,-4.1904,-4.2258,-4.1894,-4.3489,-4.4453,-4.4409,-4.5517,-4.6135,-4.6141,-4.6399,-4.6567,-4.6557,-4.6873,-4.6819,-4.6407,-4.6438,-4.6308,-4.5997,-4.5997,-4.5997,-4.5991,-4.5956,-4.5944,-4.5885,-4.5349,-4.5122,-4.5087,-4.4591,-4.4388,-4.4349,-4.4068,-4.3607,-4.2956,0.0,0.0,0.0,0.0,0.0,0.0,0.0,0.0,0.0,0.0,0.0,0.0,0.0,0.0,0.0,0.0,0.0,0.0,0.0,0.0,0.0,-3.2424,-3.3309,-3.4159,-3.4996,-3.5045,-3.5446,-3.6209,-3.6273,-3.6691,-3.7445,-3.7483,-3.7502,-3.7502,-3.7502,-3.7521,-3.7559,-3.7521,-3.7107,-3.6383,-3.5457,-3.4121,-3.2497,-3.0842,0.0,0.0,0.0,0.0,0.0,-2.6505,-2.7161,-2.8019,-2.8109,-2.9337,-3.0918,-3.1836,-3.2108,-3.2305,-3.3216,-3.407,-3.4704,-3.4765,-3.5391,-3.5996,-3.5996,-3.5996,-3.5996,-3.5937,-3.5937,-3.6172,-3.6952,-3.7168,-3.7793,-3.9492,-4.0566,-4.1484,-4.2285,-4.2441,-4.2461,-4.2461,-4.2461,-4.2168,-4.1406,-4.2011,-4.2125,-4.1297,-4.2773,-4.3728,-4.3753,-4.531,-4.6231,-4.6267,-4.7018,-4.7428,-4.7479,-4.8301,-4.8254,-4.7376,-4.7367,-4.6929,-4.6139,-4.6133,-4.6114,-4.608,-4.6055,-4.603,-4.5991,-4.5923,-4.5892,-4.5911,-4.5966,-4.5997,-4.59,-4.5151,-4.4826,-4.4554,0.0,0.0,0.0,0.0,0.0,0.0,0.0,0.0,0.0,0.0,0.0,0.0,0.0,0.0,0.0,0.0,0.0,0.0,0.0,0.0,0.0,0.0,0.0,0.0,0.0,0.0,0.0,0.0,0.0,-3.3726,-3.3998,-3.4636,-3.495,-3.495,-3.495,-3.5286,-3.5793,-3.5094,-3.4702,-3.4445,0.0,-3.1688,-3.0752,0.0,0.0,0.0,0.0,0.0,0.0,-2.6339,-2.7242,-2.8306,-2.9657,-2.9963,-3.0115,-3.1593,-3.2057,-3.242,-3.3883,-3.4485,-3.4852,-3.5507,-3.584,-3.5996,-3.5996,-3.5996,-3.582,-3.5176,-3.5039,-3.49,-3.4472,-3.5468,-3.6698,-3.7792,-3.9785,-4.1484,-4.2285,-4.2969,-4.3379,-4.3378,-4.3379,-4.3281,-4.3085,-4.3242,-4.3281,-4.3047,-4.3453,-4.3972,-4.4633,-4.5682,-4.6573,-4.7229,-4.7437,-4.7833,-4.8448,-4.8615,-4.858,-4.8336,-4.8346,-4.8229,-4.8015,-4.7967,-4.7573,-4.6969,-4.6923,-4.6518,-4.5923,-4.596,-4.5949,-4.5911,-4.5966,-4.596,-4.5904,-4.5697,-4.5231,-4.4669,0.0,0.0,0.0,0.0,0.0,0.0,0.0,0.0,0.0,0.0,0.0,0.0,0.0,0.0,0.0,0.0,0.0,0.0,0.0,0.0,0.0,0.0,0.0,0.0,0.0,0.0,0.0,0.0,0.0,0.0,0.0,-3.2061,-3.2489,-3.286,-3.2829,-3.3061,-3.3443,0.0,0.0,0.0,0.0,0.0,0.0,0.0,0.0,0.0,0.0,0.0,0.0,-2.6992,-2.781,-2.881,-2.9858,-3.0399,-3.0899,-3.2224,-3.2905,-3.3514,-3.4813,-3.522,-3.5394,-3.5876,-3.5995,-3.5898,-3.5527,-3.543,-3.5175,-3.4316,-3.4139,-3.3981,-3.3495,-3.451,-3.5839,-3.7109,-3.918,-4.1172,-4.2754,-4.3398,-4.3848,-4.4238,-4.4277,-4.4121,-4.3749,-4.4043,-4.4277,-4.4277,-4.4276,-4.4488,-4.4975,-4.5831,-4.6528,-4.7008,-4.7749,-4.8714,-4.9934,-4.9861,-4.9656,-4.9262,-4.9262,-4.9067,-4.8697,-4.8657,-4.838,-4.7916,-4.7839,-4.7548,-4.7101,-4.7092,-4.7074,-4.7036,-4.7074,-4.7068,-4.7049,-4.7049,-4.6777,-4.6413,0.0,0.0,0.0,0.0,0.0,0.0,0.0,0.0,0.0,0.0,0.0,0.0,0.0,0.0,0.0,0.0,0.0,0.0,0.0,0.0,0.0,0.0,0.0,0.0,0.0,0.0,0.0,0.0,0.0,0.0,0.0,0.0,0.0,0.0,0.0,0.0,0.0,0.0,0.0,0.0,0.0,0.0,0.0,0.0,0.0,0.0,0.0,0.0,0.0,0.0,-2.8588,-2.9478,-2.9544,-3.0731,-3.2267,-3.3139,-3.3994,-3.485,-3.5689,-3.5937,-3.5994,-3.5987,-3.599,-3.5778,-3.4902,-3.4707,-3.4413,-3.3434,-3.3238,-3.3181,-3.308,-3.3864,-3.5097,-3.6836,-3.8691,-4.0781,-4.334,-4.3808,-4.4199,-4.5078,-4.5176,-4.4883,-4.4121,-4.4726,-4.5176,-4.5176,-4.5175,-4.5175,-4.5176,-4.5993,-4.6573,-4.6799,-4.8323,-4.9872,-5.1397,-5.133,-5.0922,-5.0197,-5.0197,-4.9792,-4.9055,-4.9048,-4.8993,-4.8876,-4.8812,-4.872,-4.8608,-4.8551,-4.8528,-4.8509,-4.8503,-4.849,-4.8483,-4.8496,-4.8541,-4.8582,0.0,0.0,0.0,0.0,0.0,0.0,0.0,0.0,0.0,0.0,-2.124,-2.0827,0.0,0.0,0.0,0.0,0.0,0.0,0.0,0.0,0.0,0.0,0.0,0.0,0.0,0.0,0.0,0.0,0.0,0.0,0.0,0.0,0.0,0.0,0.0,0.0,0.0,0.0,0.0,0.0,0.0,0.0,0.0,0.0,0.0,0.0,0.0,0.0,0.0,0.0,-2.8951,-3.0381,-3.0441,-3.1218,-3.2262,-3.3089,-3.3924,-3.4806,-3.5663,-3.5914,-3.5916,-3.5926,-3.5962,-3.5775,-3.491,-3.4697,-3.4252,-3.2652,-3.2335,-3.2116,-3.1455,-3.2594,-3.4197,-3.5935,-3.8281,-4.0781,-4.334,-4.4316,-4.5098,-4.5976,-4.6074,-4.6016,-4.5859,-4.5996,-4.6074,-4.6074,-4.6074,-4.6074,-4.6073,-4.6893,-4.8,-4.9409,-5.0429,-5.1088,-5.1394,-5.1399,-5.1313,-5.1151,-5.1151,-5.1073,-5.0937,-5.0867,-5.0481,-4.9845,-4.9784,0.0,-4.8681,-4.8667,-4.8599,-4.8496,-4.8496,-4.8463,-4.8421,-4.8483,-4.8516,-4.8515,0.0,0.0,0.0,0.0,0.0,0.0,0.0,-2.0886,-2.165,-2.2381,-2.2692,-2.2748,-2.2548,-2.1923,0.0,0.0,0.0,0.0,0.0,0.0,0.0,0.0,0.0,0.0,0.0,0.0,0.0,0.0,0.0,0.0,0.0,0.0,0.0,0.0,0.0,0.0,0.0,0.0,0.0,0.0,0.0,0.0,0.0,0.0,0.0,0.0,0.0,0.0,0.0,0.0,-2.8646,-3.051,-3.0579,-3.1556,-3.2752,-3.3212,-3.4261,-3.5363,-3.5791,-3.5899,-3.5892,-3.5903,-3.5917,-3.5596,-3.4266,-3.3976,-3.3491,-3.1772,-3.1424,-3.1309,-3.0919,-3.1887,-3.3298,-3.5035,-3.6756,-3.8925,-4.1914,-4.3105,-4.4141,-4.5469,-4.6016,-4.6308,-4.6308,-4.6308,-4.6308,-4.6308,-4.6308,-4.6308,-4.6308,-4.7128,-4.8375,-5.0107,-5.0516,-5.0942,-5.1403,-5.1403,-5.1398,-5.1408,-5.1401,-5.1396,-5.1396,-5.1364,-5.113,-5.0772,-5.0742,-5.0485,-5.0096,-5.0073,-5.0018,-4.995,-4.9915,-4.9881,-4.9865,-4.9883,-4.9914,-4.9906,0.0,0.0,0.0,0.0,0.0,0.0,0.0,-2.1411,-2.2411,-2.2914,-2.4164,-2.4658,-2.3756,-2.2894,-2.2416,0.0,0.0,0.0,0.0,0.0,0.0,0.0,0.0,0.0,0.0,0.0,0.0,-2.4666,0.0,0.0,0.0,0.0,0.0,0.0,0.0,0.0,0.0,0.0,0.0,0.0,0.0,0.0,0.0,0.0,0.0,0.0,0.0,0.0,0.0,0.0,-2.8181,-2.991,-3.0361,-3.1603,-3.2974,-3.3264,-3.4431,-3.5663,-3.5841,-3.5897,-3.5878,-3.5889,-3.5741,-3.5203,-3.365,-3.3167,-3.2602,-3.1112,-3.0794,-3.0788,-3.0809,-3.1508,-3.2669,-3.4426,-3.5425,-3.7185,-4.0622,-4.1698,-4.2832,-4.4765,-4.5605,-4.6094,-4.6289,-4.6465,-4.6582,-4.6582,-4.6758,-4.6855,-4.6855,-4.7675,-4.8866,-5.0408,-5.0405,-5.0716,-5.1396,-5.1394,-5.1391,-5.1391,-5.14,-5.1396,-5.1398,-5.1392,-5.1392,-5.1392,-5.1394,-5.14,-5.1391,-5.1346,-5.1304,-5.1273,-5.1217,-5.1195,-5.1206,-5.122,-5.1206,-5.1196,0.0,0.0,0.0,0.0,0.0,0.0,0.0,-2.1828,-2.3066,-2.5199,-2.5615,-2.5738,-2.581,-2.4712,-2.3989,0.0,0.0,0.0,0.0,0.0,0.0,0.0,0.0,0.0,0.0,0.0,0.0,-2.4266,-2.4579,0.0,0.0,0.0,0.0,0.0,0.0,-2.482,0.0,0.0,0.0,0.0,0.0,0.0,0.0,0.0,0.0,0.0,0.0,0.0,-2.5764,-2.7199,-2.7846,-2.8335,-2.9988,-3.1206,-3.2186,-3.2986,-3.393,-3.4892,-3.5687,-3.5852,-3.5815,-3.5818,-3.5263,-3.4464,-3.3511,-3.2689,-3.187,-3.0977,-3.0747,-3.073,-3.0794,-3.1513,-3.2673,-3.4414,-3.5436,-3.7197,-4.0614,-4.1162,-4.2161,-4.4705,-4.5077,-4.5429,-4.6211,-4.7012,-4.748,-4.748,-4.8203,-4.8652,-4.8652,-4.9492,-5.037,-5.1263,-5.1285,-5.1323,-5.1391,-5.1395,-5.1397,-5.1397,-5.1403,-5.14,-5.1408,-5.141,-5.1406,-5.1394,-5.1392,-5.1399,0.0,-5.1391,-5.1323,-5.1213,-5.1194,-5.1195,-5.1215,-5.1276,-5.1241,-5.1213,0.0,0.0,0.0,0.0,0.0,0.0,-2.0749,-2.1159,-2.2154,-2.4585,-2.5318,-2.567,-2.5798,-2.5487,-2.4961,-2.4149,0.0,0.0,0.0,0.0,0.0,0.0,0.0,0.0,0.0,0.0,0.0,-2.4266,-2.4339,0.0,0.0,0.0,0.0,0.0,0.0,-2.4582,-2.4574,0.0,0.0,0.0,0.0,0.0,0.0,0.0,0.0,0.0,0.0,0.0,-2.599,-2.6168,-2.7314,-2.867,-2.8876,-2.9912,-3.1245,-3.2198,-3.3468,-3.4622,-3.5002,-3.5479,-3.5845,-3.5811,-3.52,-3.437,-3.3494,-3.2622,-3.1757,-3.0905,-3.0716,-3.0709,-3.0733,-3.1066,-3.1884,-3.3636,-3.4209,-3.5464,-3.8399,-3.969,-4.1099,-4.3196,-4.4368,-4.5345,-4.6228,-4.7088,-4.7812,-4.834,-4.9199,-4.9687,-4.9687,-5.0019,-5.0566,-5.1366,-5.1406,-5.1405,-5.1404,-5.1403,-5.14,-5.1394,-5.1402,-5.141,-5.1401,-5.1399,-5.1401,-5.1406,-5.1392,-5.1408,0.0,-5.1401,-5.1372,-5.1316,-5.1316,-5.1327,-5.1314,-5.1346,-5.134,-5.1326,0.0,0.0,0.0,0.0,0.0,-1.8728,-2.0081,-2.0639,-2.1614,-2.3592,-2.4787,-2.5495,-2.5592,-2.5592,-2.5218,-2.4327,-2.4121,0.0,0.0,0.0,0.0,0.0,0.0,0.0,0.0,0.0,-2.4275,-2.4275,-2.4219,-2.4229,0.0,0.0,-2.4312,-2.4367,0.0,0.0,0.0,0.0,0.0,0.0,0.0,0.0,0.0,0.0,0.0,0.0,0.0,0.0,0.0,0.0,0.0,-2.8417,0.0,0.0,0.0,0.0,-3.2779,-3.3826,-3.4416,-3.4987,-3.5414,-3.5418,-3.4797,-3.3957,-3.3118,-3.2244,-3.1444,-3.0792,-3.0674,-3.0675,-3.0707,-3.0745,-3.1259,0.0,0.0,-3.3918,-3.6526,-3.8112,-3.9777,-4.1779,-4.3321,-4.4671,-4.5811,-4.7163,-4.8435,-4.9569,-5.0214,-5.0546,-5.0547,-5.0547,-5.0801,-5.1387,-5.1406,-5.1406,-5.1406,-5.1406,-5.1404,-5.1398,-5.1403,-5.1408,-5.1394,-5.1389,-5.1389,-5.1391,-5.1401,-5.1406,0.0,-5.141,-5.1392,-5.1394,-5.1394,-5.141,-5.1403,-5.1403,-5.1394,-5.1403,0.0,0.0,0.0,0.0,0.0,0.0,-1.8996,-2.0527,-2.1873,-2.2717,-2.4322,-2.5442,-2.5592,-2.5006,-2.4659,-2.4776,-2.4245,0.0,0.0,0.0,0.0,0.0,0.0,0.0,0.0,0.0,-2.419,-2.419,-2.419,-2.42,-2.4201,-2.4201,-2.4247,-2.4294,0.0,0.0,0.0,0.0,0.0,0.0,0.0,0.0,0.0,0.0,0.0,0.0,0.0,0.0,0.0,0.0,0.0,0.0,0.0,-2.9145,-2.9478,0.0,-3.1806,-3.2232,-3.4008,-3.4414,-3.4339,-3.4486,-3.3865,-3.3003,-3.2194,-3.1331,-3.068,-3.0614,-3.0606,-3.0622,-3.0687,-3.0694,-3.0983,-3.1868,-3.2065,0.0,-3.5566,-3.6667,-3.8185,-4.0803,-4.1897,-4.3115,-4.4849,-4.7353,-4.9581,-5.1242,-5.1379,-5.1381,-5.1385,-5.1385,-5.1386,-5.1406,-5.1406,-5.1406,-5.1406,-5.1406,-5.1406,-5.1406,-5.1391,-5.14,-5.1408,-5.1325,-5.134,-5.1394,-5.1394,-5.1403,0.0,-5.1399,-5.1406,-5.1394,-5.1394,-5.1394,-5.1394,-5.1394,-5.1408,-5.1399,0.0,0.0,0.0,0.0,0.0,0.0,0.0,-1.9052,-1.9768,-2.1722,-2.2022,-2.2509,-2.3688,-2.3723,-2.3691,-2.3838,-2.3851,0.0,0.0,0.0,0.0,0.0,0.0,0.0,0.0,0.0,-2.3976,-2.3927,-2.3927,-2.3947,-2.3998,-2.4037,-2.4115,-2.4229,-2.4294,-2.4367,0.0,0.0,0.0,0.0,0.0,0.0,0.0,0.0,0.0,0.0,0.0,0.0,0.0,0.0,0.0,0.0,0.0,0.0,0.0,-3.0085,-3.0873,-3.189,-3.2542,-3.3122,-3.3558,-3.3609,-3.2964,-3.2238,-3.1982,-3.1269,-3.0602,-3.0548,-3.0519,-3.0557,-3.0618,-3.0626,-3.1122,-3.2649,-3.2905,0.0,-3.5567,-3.7133,-3.8828,-4.0808,-4.342,-4.5742,-4.7503,-4.8406,-4.9603,-5.1266,-5.1403,-5.1404,-5.1405,-5.1405,-5.1405,-5.1406,-5.1406,-5.1406,-5.1406,-5.1406,-5.1406,-5.1402,-5.1396,-5.1408,-5.14,-5.1375,-5.1373,-5.1396,-5.1408,-5.1406,-5.1408,-5.1391,-5.1405,-5.1408,-5.1399,-5.1403,-5.1403,-5.1392,-5.1392,-5.141,0.0,0.0,0.0,0.0,0.0,0.0,0.0,-1.8277,-1.8789,-2.0343,-2.0479,-2.0942,-2.2282,-2.2529,-2.2739,-2.3134,-2.345,0.0,0.0,0.0,0.0,0.0,0.0,0.0,0.0,-2.3915,-2.4,-2.4223,-2.4223,-2.4245,-2.4277,-2.4348,-2.4259,-2.4096,-2.4201,0.0,0.0,0.0,0.0,0.0,0.0,0.0,-2.4045,0.0,0.0,0.0,0.0,0.0,0.0,0.0,0.0,0.0,0.0,0.0,0.0,0.0,-3.0211,-3.0896,-3.1657,-3.2237,-3.2643,-3.2705,-3.2307,-3.1814,-3.1458,-3.095,-3.0549,-3.0472,-3.0467,-3.0487,-3.0516,-3.0549,-3.0938,-3.2092,-3.2536,-3.3332,-3.5076,-3.6855,-3.8848,-4.1214,-4.4055,-4.6481,-4.8216,-4.8673,-4.9577,-5.1261,-5.14,-5.1401,-5.1401,-5.1401,-5.1402,-5.1404,-5.1405,-5.1406,-5.1406,-5.1406,-5.1406,-5.1403,-5.1402,-5.1397,-5.1405,-5.1408,-5.1408,-5.1403,-5.1398,-5.1396,0.0,-5.1401,-5.1401,-5.1392,-5.1396,-5.1394,-5.1392,-5.1398,-5.1396,-5.1408,0.0,0.0,0.0,0.0,0.0,0.0,0.0,-1.8106,-1.8694,-1.8706,-1.952,-2.0377,-2.1137,-2.1325,-2.1719,-2.2539,0.0,0.0,0.0,0.0,0.0,0.0,0.0,0.0,0.0,-2.3852,-2.4165,-2.4791,-2.4833,-2.4851,-2.4881,-2.4992,-2.4661,-2.3977,-2.4175,-2.4246,-2.421,-2.4339,-2.3976,-2.3351,-2.4166,-2.4018,0.0,0.0,0.0,0.0,0.0,0.0,0.0,0.0,0.0,0.0,0.0,0.0,0.0,0.0,0.0,0.0,0.0,-3.1618,-3.165,-3.1753,-3.1782,-3.1564,-3.0685,-3.0487,0.0,-3.0402,-3.0383,-3.0386,-3.0392,-3.0439,-3.0535,-3.0666,-3.1359,-3.2511,-3.4322,-3.6241,-3.8696,-4.2003,-4.3983,-4.572,-4.734,-4.8248,-4.9444,-5.118,-5.1307,-5.1331,-5.1409,-5.1331,-5.1312,-5.131,-5.1244,-5.1286,-5.1404,-5.1405,-5.1406,-5.1406,-5.1406,-5.1404,-5.14,-5.1396,-5.1409,0.0,-5.14,-5.1403,-5.1391,-5.1402,-5.1391,-5.1404,-5.1401,-5.1396,-5.1391,-5.1391,-5.14,-5.1399,0.0,0.0,0.0,0.0,0.0,0.0,0.0,0.0,0.0,0.0,-1.7978,-1.8193,-1.8468,-1.9121,-1.9862,0.0,0.0,0.0,0.0,0.0,0.0,0.0,0.0,0.0,0.0,-2.3656,-2.3622,-2.3673,-2.4241,-2.4525,-2.4526,-2.5228,-2.5195,-2.4586,-2.4798,-2.4651,-2.4275,-2.4321,-2.4273,-2.4212,-2.4364,-2.4317,0.0,0.0,0.0,0.0,-2.45,-2.5419,0.0,0.0,0.0,0.0,0.0,0.0,0.0,0.0,-2.8679,-2.9053,-2.9594,0.0,-3.0704,-3.0739,-3.075,-3.0687,0.0,-3.0344,0.0,0.0,0.0,0.0,-3.0381,-3.0403,-3.0653,-3.14,-3.2237,-3.3403,-3.5175,-3.865,-4.1564,-4.3114,-4.4846,-4.6323,-4.7396,-4.7725,-4.8574,-5.0273,-5.0412,-5.0705,-5.1351,-5.0765,-5.0409,-5.0403,-4.9807,-5.0103,-5.1385,-5.1407,-5.1391,-5.1396,-5.1397,-5.1401,-5.1404,-5.1405,-5.1405,-5.1406,-5.1406,-5.1405,-5.1405,-5.1398,-5.1396,-5.14,-5.1403,-5.1403,-5.1402,-5.1402,-5.1396,-5.1402,0.0,0.0,0.0,0.0,0.0,0.0,0.0,0.0,0.0,0.0,0.0,0.0,0.0,0.0,0.0,0.0,0.0,0.0,0.0,0.0,0.0,0.0,0.0,0.0,-2.3533,-2.3441,-2.3679,-2.4224,-2.4659,-2.5033,-2.5367,-2.557,-2.5296,-2.4665,-2.454,-2.4397,-2.4247,-2.4247,-2.4072,-2.3848,-2.4164,0.0,0.0,0.0,0.0,0.0,-2.45,-2.554,0.0,-2.6935,-2.8185,-2.9559,0.0,0.0,0.0,0.0,-2.7744,-2.7943,-2.8815,-2.9684,-3.0349,-3.0342,-3.0373,-3.0367,-3.0279,0.0,0.0,0.0,0.0,0.0,0.0,-3.0662,-3.1133,-3.1672,-3.3103,-3.4916,-3.7098,-4.0484,-4.295,-4.3448,-4.5102,-4.6529,-4.7368,-4.7509,-4.8109,-4.9419,-4.9528,-4.9747,-5.0173,-4.9763,-4.9505,-4.9491,-4.9083,-4.9476,-5.0789,-5.0793,-5.0992,-5.1403,-5.14,-5.1402,-5.1409,-5.1409,-5.1391,-5.1395,-5.1402,-5.1405,-5.1405,-5.1406,-5.1406,-5.1406,-5.1406,-5.1406,-5.1406,-5.1406,-5.1404,-5.1393,0.0,0.0,0.0,0.0,0.0,0.0,0.0,0.0,0.0,0.0,0.0,0.0,0.0,0.0,0.0,0.0,0.0,0.0,0.0,0.0,0.0,0.0,0.0,-2.3324,-2.3205,-2.3364,-2.3978,-2.5104,-2.5512,-2.6037,-2.6641,-2.6264,-2.5605,-2.4685,-2.4181,-2.4044,-2.419,-2.418,-2.3805,-2.3235,-2.3933,0.0,0.0,0.0,0.0,0.0,0.0,0.0,0.0,-2.6721,-2.7942,-2.9326,-2.8551,0.0,0.0,0.0,0.0,0.0,-2.8339,-2.9411,-3.012,-3.0248,-3.0311,-3.033,-3.0208,0.0,0.0,0.0,0.0,0.0,0.0,-3.1038,-3.1686,-3.2012,-3.4166,-3.6673,-3.9224,-4.1782,-4.343,-4.3573,-4.5121,-4.6434,-4.712,-4.7252,-4.7663,-4.8549,-4.8656,-4.8725,-4.8798,-4.8681,-4.8619,-4.8625,-4.8499,-4.8835,-4.9692,-4.9836,-5.0266,-5.1002,-5.1147,-5.1206,-5.1217,-5.1332,-5.1396,-5.1407,0.0,0.0,-5.1396,-5.1401,-5.1398,-5.1408,-5.1394,-5.1399,-5.1402,-5.1403,-5.1406,-5.14,0.0,0.0,0.0,0.0,0.0,0.0,0.0,0.0,0.0,0.0,0.0,0.0,0.0,0.0,0.0,0.0,0.0,0.0,0.0,0.0,0.0,0.0,-2.2803,-2.3277,-2.3205,-2.3708,-2.406,-2.4193,-2.6132,-2.7172,-2.737,-2.8019,-2.7363,-2.5652,-2.4962,-2.4487,-2.4208,-2.4141,-2.4088,-2.4026,-2.4154,0.0,0.0,0.0,0.0,0.0,0.0,0.0,0.0,-2.5875,-2.6991,-2.823,-2.7601,0.0,0.0,0.0,0.0,0.0,-2.7522,-2.8458,-2.9279,-2.9966,-3.0145,-3.0145,-3.013,0.0,0.0,0.0,0.0,0.0,0.0,-3.1414,-3.2003,-3.3482,-3.5916,-3.825,-4.0152,-4.2098,-4.3595,-4.4324,-4.5368,-4.6071,-4.6192,-4.6329,-4.6765,-4.7627,-4.7713,-4.8038,-4.8759,-4.8154,-4.7781,-4.778,-4.7077,-4.7073,-4.7886,-4.8638,-4.9067,-4.9211,-4.9942,-5.0293,-5.0325,-5.1054,-5.1391,-5.1403,0.0,-5.1392,-5.1398,-5.14,-5.14,-5.1396,-5.1398,-5.14,-5.1402,-5.139,-5.1401,-5.1406,0.0,0.0,0.0,0.0,0.0,0.0,0.0,0.0,0.0,0.0,0.0,0.0,0.0,0.0,0.0,0.0,0.0,0.0,0.0,0.0,0.0,0.0,-2.2323,-2.263,-2.262,-2.3788,-2.4571,-2.4863,-2.6747,-2.796,-2.847,-2.8244,-2.708,-2.512,-2.4861,-2.4457,-2.3986,-2.4026,-2.4066,-2.4086,0.0,0.0,0.0,0.0,0.0,0.0,0.0,0.0,0.0,0.0,-2.6823,-2.8091,-2.7405,0.0,0.0,0.0,0.0,0.0,-2.7246,-2.7813,-2.8451,-2.9767,-3.0094,-3.0094,0.0,0.0,0.0,0.0,0.0,0.0,0.0,-3.2856,-3.4213,-3.6438,-3.8204,-3.9738,-4.1026,-4.2753,-4.4032,-4.4433,-4.5318,-4.5886,-4.5885,-4.6017,-4.6448,-4.7322,-4.7463,-4.7674,-4.8074,-4.7776,-4.7372,-4.6905,-4.6515,-4.6474,-4.6858,-4.7244,-4.7899,-4.8808,-4.9212,-4.9642,-5.0118,-5.0508,-5.0957,-5.1405,0.0,-5.1401,-5.1406,-5.1406,-5.141,-5.1394,-5.1394,-5.1394,-5.1396,-5.1407,-5.1394,-5.1401,0.0,0.0,0.0,0.0,0.0,0.0,0.0,0.0,0.0,0.0,0.0,0.0,0.0,0.0,0.0,0.0,0.0,0.0,0.0,0.0,-2.1632,-2.1632,-2.1868,-2.2109,-2.2348,-2.3998,-2.5181,-2.5863,-2.7589,-2.8783,-2.9386,-2.8368,-2.6756,-2.4708,-2.473,-2.435,-2.3774,-2.3955,-2.4016,-2.4016,0.0,0.0,0.0,0.0,0.0,0.0,0.0,0.0,0.0,0.0,0.0,0.0,0.0,0.0,0.0,-2.6761,-2.6234,-2.6288,-2.738,-2.7551,-2.7862,-2.9627,0.0,0.0,0.0,0.0,0.0,0.0,0.0,0.0,-3.2724,-3.4461,-3.6512,-3.872,-3.9989,-4.0983,-4.1835,-4.3342,-4.4419,-4.4611,-4.5295,-4.5757,-4.5745,-4.5861,-4.623,-4.6926,-4.706,-4.7122,-4.7155,-4.7201,-4.6926,-4.6292,-4.6275,-4.6277,-4.63,-4.63,-4.6936,-4.8223,-4.8415,-4.8842,-4.9508,-4.9691,-5.0274,-5.1107,-5.1101,-5.1204,-5.1401,-5.1401,-5.1408,-5.1394,-5.1394,-5.1394,-5.1394,-5.1403,-5.1408,-5.1393,0.0,0.0,0.0,0.0,0.0,0.0,0.0,0.0,0.0,0.0,0.0,0.0,0.0,0.0,0.0,0.0,0.0,0.0,0.0,0.0,-2.1417,-2.1417,-2.1617,-2.2172,-2.3108,-2.4572,-2.5781,-2.6624,-2.8913,-2.9932,-2.9742,-2.9117,-2.7561,-2.5323,-2.495,-2.435,-2.3639,-2.3966,-2.4094,-2.4094,-2.4094,0.0,0.0,0.0,0.0,0.0,0.0,0.0,0.0,0.0,0.0,0.0,0.0,0.0,-2.7997,-2.7397,-2.6599,-2.6287,-2.804,-2.7892,-2.766,-2.9539,-3.0046,0.0,-3.1119,-3.1299,0.0,-3.2343,0.0,0.0,-3.3551,-3.5803,-3.7859,-3.8858,-4.0414,-4.18,-4.2613,-4.3579,-4.4499,-4.5247,-4.5493,-4.561,-4.5613,-4.5681,-4.5794,-4.5989,-4.6007,-4.6044,-4.6102,-4.6106,-4.6146,-4.6209,-4.6211,-4.624,-4.63,-4.63,-4.6358,-4.6493,-4.7242,-4.7628,-4.7706,-4.8513,-4.9374,-5.0184,-5.0186,-5.0642,-5.1392,-5.1392,-5.1394,-5.1394,-5.1394,-5.1394,-5.1394,-5.1394,-5.1402,-5.1409,0.0,0.0,0.0,0.0,0.0,0.0,0.0,0.0,0.0,0.0,0.0,0.0,0.0,0.0,0.0,0.0,0.0,0.0,0.0,0.0,-2.134,-2.134,-2.1449,-2.1915,-2.2764,-2.4729,-2.6228,-2.7138,-2.9156,-2.9888,-2.942,-2.8814,-2.7319,-2.5174,-2.5662,-2.5192,-2.4124,-2.4501,-2.4681,-2.4697,-2.4305,-2.4151,0.0,0.0,0.0,0.0,0.0,0.0,0.0,0.0,-2.5764,-2.6823,-2.6455,-2.7522,-2.8675,-2.752,-2.6892,-2.6745,-2.7469,-2.7447,-2.7499,-2.8757,-2.9891,0.0,0.0,-3.1692,-3.2442,-3.3757,-3.4461,0.0,-3.6654,-3.7728,-3.867,-3.9538,-4.0692,-4.1781,-4.2631,-4.356,-4.4451,-4.5304,-4.5438,-4.5485,-4.5485,-4.5573,-4.5861,-4.641,-4.6575,-4.6661,-4.6684,-4.6721,-4.6547,-4.6084,-4.6041,-4.6099,-4.6234,-4.6157,-4.6167,-4.624,-4.6583,-4.7036,-4.7561,-4.7908,-4.8508,-4.9286,-4.9286,-4.9484,-4.982,-5.0369,-5.0588,-5.0592,-5.0592,-5.0598,-5.0525,-4.9971,-4.978,-4.9788,0.0,0.0,0.0,0.0,0.0,0.0,0.0,0.0,0.0,0.0,0.0,0.0,0.0,0.0,0.0,0.0,0.0,0.0,0.0,-2.0321,-2.1098,-2.1308,-2.1356,-2.1743,-2.2573,-2.452,-2.6105,-2.7263,-2.9122,-2.9641,-2.8904,-2.8235,-2.7027,-2.5365,-2.5911,-2.564,-2.4814,-2.4948,-2.5049,-2.5073,-2.4423,-2.4151,0.0,0.0,0.0,0.0,0.0,0.0,0.0,0.0,-2.5514,-2.647,-2.6543,-2.768,-2.8783,-2.7774,-2.7419,-2.7373,-2.7447,-2.7474,-2.7706,-2.8657,0.0,0.0,-3.1482,-3.247,-3.37,-3.5059,-3.6008,-3.7107,-3.8866,-3.8971,-3.9096,-3.9993,-4.0842,-4.1606,-4.2208,-4.309,-4.3875,-4.4478,-4.4575,-4.4576,-4.4576,-4.491,-4.5359,-4.5935,-4.6331,-4.6464,-4.6235,-4.6287,-4.596,-4.5167,-4.5098,-4.5284,-4.5714,-4.5646,-4.5756,-4.6102,-4.6176,-4.6553,-4.7198,-4.7198,-4.7641,-4.8413,-4.8413,-4.8569,-4.8845,-4.943,-4.9688,-4.9694,-4.9694,-4.968,-4.9627,-4.9015,-4.8802,-4.8807,0.0,0.0,0.0,0.0,0.0,0.0,0.0,0.0,0.0,0.0,0.0,0.0,0.0,0.0,0.0,0.0,0.0,0.0,0.0,-1.9899,-2.0627,-2.1369,-2.134,-2.176,-2.2765,-2.3909,-2.5322,-2.7014,-2.8937,-2.9334,-2.8269,-2.7544,-2.6799,-2.6085,-2.5607,-2.5531,-2.5689,-2.5211,-2.5096,-2.5152,-2.4421,-2.4112,-2.4122,0.0,0.0,0.0,0.0,0.0,0.0,0.0,-2.5501,-2.5809,-2.7614,-2.8143,-2.811,-2.824,-2.8202,-2.8134,-2.8241,-2.8193,-2.835,-2.943,0.0,0.0,-3.2119,-3.377,-3.5341,-3.6169,-3.6937,-3.7961,-3.9682,-3.9351,-3.9125,-4.0043,-4.0861,-4.1385,-4.1406,-4.2151,-4.2685,-4.2704,-4.2764,-4.2794,-4.2805,-4.358,-4.4116,-4.4183,-4.4921,-4.5064,-4.4308,-4.4339,-4.4044,-4.3317,-4.3307,-4.3735,-4.4686,-4.4686,-4.5089,-4.588,-4.5954,-4.6102,-4.63,-4.63,-4.6768,-4.7586,-4.7586,-4.8037,-4.8779,-4.8798,-4.8798,-4.8798,-4.8798,-4.8798,-4.8798,-4.8779,-4.8779,-4.8777,0.0,0.0,0.0,0.0,0.0,0.0,0.0,0.0,0.0,0.0,0.0,0.0,0.0,0.0,0.0,0.0,0.0,0.0,0.0,-1.9592,-2.0401,-2.0627,-2.105,-2.1454,-2.1743,-2.3092,-2.5132,-2.7836,-2.861,-2.8624,-2.7859,-2.7316,-2.6677,-2.5989,-2.6601,-2.6704,-2.6393,-2.632,-2.6433,-2.6621,-2.5932,-2.5342,-2.4884,0.0,0.0,0.0,0.0,0.0,0.0,0.0,0.0,0.0,-2.6134,0.0,-2.7997,-2.7416,-2.7659,-2.7994,-2.7465,-2.7698,-2.831,-2.9255,-3.0627,-3.2135,0.0,-3.4934,0.0,0.0,-3.9922,-4.0233,-4.0748,-4.0192,-3.9741,-4.0,-4.0346,-4.0748,-4.1311,-4.1626,-4.2007,-4.2628,-4.2683,-4.2683,-4.2726,-4.2965,-4.3138,-4.3196,-4.3427,-4.3484,-4.3263,-4.3317,-4.3286,-4.3163,-4.3119,-4.3287,-4.3704,-4.3679,-4.4105,-4.499,-4.5007,-4.5395,-4.6095,-4.6181,-4.6375,-4.6628,-4.6665,-4.6827,-4.7081,-4.7705,-4.8291,-4.874,-4.8174,-4.7962,-4.7889,-4.7278,-4.7047,-4.703,0.0,0.0,0.0,0.0,0.0,0.0,0.0,0.0,0.0,0.0,-1.7057,-1.7332,0.0,0.0,0.0,0.0,0.0,0.0,-1.857,-1.9366,-1.9996,-2.0333,-2.0967,-2.147,-2.1778,-2.2964,-2.4501,-2.6362,-2.7162,-2.7299,-2.679,-2.7131,-2.7113,-2.6801,-2.775,-2.7933,-2.7525,-2.7313,-2.7272,-2.7247,-2.6629,-2.6111,-2.5698,0.0,0.0,0.0,0.0,0.0,0.0,0.0,0.0,0.0,-2.5392,0.0,-2.7041,-2.6876,-2.7435,-2.7984,-2.7501,-2.7984,-2.882,-2.9675,-3.0999,-3.2737,-3.5153,-3.6486,-3.7969,-4.065,-4.0923,-4.079,-4.1132,-4.052,-3.9975,-4.0036,-4.0087,-4.0299,-4.0853,-4.092,-4.1101,-4.1606,-4.1642,-4.1642,-4.1672,-4.1978,-4.2199,-4.2238,-4.2584,-4.2652,-4.2307,-4.2354,-4.2255,-4.2003,-4.1961,-4.2365,-4.3168,-4.3135,-4.3744,-4.4993,-4.5021,-4.5331,-4.5894,-4.6024,-4.6098,-4.6131,-4.6223,-4.626,-4.6308,-4.6835,-4.7346,-4.7764,-4.7276,-4.7084,-4.7029,-4.6497,-4.6303,-4.6306,0.0,0.0,-1.626,-1.6203,0.0,0.0,0.0,0.0,0.0,0.0,-1.7083,-1.7367,0.0,0.0,0.0,-1.9088,-1.9088,-1.9072,-1.9007,-1.9135,-1.9536,-2.0277,-2.1011,-2.1711,-2.2394,-2.3112,-2.3455,-2.3388,-2.5082,-2.574,-2.5414,-2.6875,-2.7707,-2.8015,-2.8733,-2.8919,-2.8656,-2.8038,-2.7638,-2.735,-2.6807,-2.6542,-2.6417,-2.5758,0.0,0.0,0.0,0.0,0.0,0.0,0.0,0.0,-2.5215,-2.5502,-2.5679,-2.6617,-2.7463,-2.8104,-2.8086,-2.8783,-2.9694,-3.0511,-3.1643,-3.3397,-3.6658,-3.8176,-3.9351,-4.0866,-4.062,-4.0355,-4.1075,-4.0487,-3.9943,-4.0067,-4.0057,-4.0067,-4.0186,-4.0196,-4.0176,-4.0127,-4.0157,-4.0166,-4.0117,-4.0823,-4.1273,-4.1273,-4.2086,-4.2211,-4.1428,-4.1437,-4.1121,-4.0317,-4.0362,-4.1161,-4.2748,-4.2834,-4.3724,-4.5355,-4.5497,-4.5615,-4.57,-4.5828,-4.5925,-4.5996,-4.6111,-4.619,-4.6181,-4.6181,-4.6216,-4.6294,-4.6294,-4.6296,-4.6298,-4.6298,-4.6298,-4.63,0.0,0.0,-1.608,-1.6108,0.0,0.0,0.0,0.0,0.0,0.0,0.0,0.0,0.0,0.0,0.0,-1.8343,-1.8343,-1.8116,-1.7581,-1.864,-1.9353,-1.953,-2.0734,-2.1467,-2.163,-2.1745,-2.181,-2.1794,-2.4198,-2.5329,-2.5247,-2.5963,-2.6634,-2.7246,-2.7677,-2.7894,-2.7894,-2.7243,-2.7405,-2.8108,-2.741,-2.6835,-2.6414,-2.6368,-2.5566,0.0,0.0,0.0,0.0,0.0,0.0,0.0,-2.5165,-2.5452,-2.5658,-2.6497,-2.7399,-2.81,-2.8034,-2.9151,-3.053,-3.1348,-3.3724,-3.6122,-3.709,-3.8965,-4.065,-4.1101,-4.1548,-4.1719,-4.1283,-4.0531,-3.9986,-4.0026,-4.0098,-4.0176,-4.0196,-4.0196,-4.0196,-4.0176,-4.0147,-4.0127,-4.0106,-4.0269,-4.0374,-4.0374,-4.0625,-4.0653,-4.0413,-4.0521,-4.0472,-4.0224,-4.0289,-4.0534,-4.0942,-4.1637,-4.2516,-4.3562,-4.4267,-4.493,-4.5558,-4.5782,-4.5906,-4.592,-4.5949,-4.5983,-4.6045,-4.6045,-4.6111,-4.6219,-4.6219,-4.6217,-4.6216,-4.6216,-4.6247,-4.6298,0.0,0.0,0.0,0.0,0.0,0.0,0.0,0.0,0.0,0.0,0.0,0.0,0.0,-1.8065,0.0,0.0,-1.8143,-1.7997,-1.7652,-1.8643,-1.9567,-2.0279,-2.1011,-2.1417,-2.148,-2.1402,-2.1402,-2.148,-2.2925,-2.3964,-2.4663,-2.6067,-2.7012,-2.7554,-2.8112,-2.8063,-2.7567,-2.7698,-2.7745,-2.774,-2.7866,-2.7502,-2.6863,-2.6666,-2.58,-2.4653,-2.4317,0.0,0.0,0.0,0.0,0.0,0.0,0.0,-2.5039,-2.5869,-2.6769,-2.7561,-2.795,-2.9289,-3.0894,-3.2169,-3.4699,-3.6943,-3.7149,-3.9423,-4.1393,-4.1059,-4.143,-4.1567,-4.0681,-4.0214,-3.9965,-3.9996,-4.0067,-4.0108,-4.0157,-4.0157,-4.0147,-4.0108,-4.0077,-4.0046,-4.0015,-4.0036,-4.0057,-4.0057,-4.0108,-4.0137,-4.0106,-4.0157,-4.0186,-4.0148,-4.0177,-4.0444,-4.0919,-4.135,-4.2018,-4.2907,-4.3367,-4.4019,-4.4844,-4.5468,-4.5768,-4.5764,-4.5815,-4.5889,-4.5944,-4.5944,-4.5998,-4.6059,-4.6059,-4.6088,-4.6102,-4.6061,-4.6098,-4.6147,0.0,0.0,0.0,0.0,0.0,0.0,0.0,0.0,0.0,0.0,0.0,0.0,0.0,-1.7764,-1.8055,0.0,0.0,0.0,-1.802,-1.8787,-1.9841,-2.1219,-2.1383,-2.1495,-2.1603,-2.151,-2.1525,-2.1709,-2.1958,-2.275,-2.4098,-2.6117,-2.735,-2.7879,-2.8579,-2.8234,-2.7197,-2.7942,-2.771,-2.6856,-2.7644,-2.7586,-2.6992,-2.6545,-2.5795,-2.4918,-2.4351,-2.417,-2.418,-2.418,0.0,0.0,0.0,0.0,-2.4367,-2.5225,-2.5983,-2.6743,-2.7623,-2.9185,-3.0998,-3.2735,-3.4934,-3.6726,-3.6996,-3.9383,-4.1366,-4.0709,-4.0959,-4.1063,-4.0136,-3.9887,-3.9837,-3.9892,-3.9954,-3.9986,-4.0046,-4.0067,-4.0077,-4.0017,-4.0026,-3.9986,-3.9922,-3.9965,-3.9996,-3.9986,-4.0046,-4.0067,-4.0057,-4.0096,-4.0087,-4.0077,-4.0117,-4.049,-4.1275,-4.137,-4.181,-4.2584,-4.2728,-4.3177,-4.3896,-4.4734,-4.5274,-4.5552,-4.555,-4.5657,-4.5841,-4.5712,-4.5731,-4.5867,-4.5872,-4.5929,-4.5988,-4.5924,-4.5944,-4.5983,0.0,0.0,0.0,0.0,0.0,0.0,0.0,0.0,0.0,0.0,-1.663,-1.6701,-1.701,-1.7081,-1.7138,-1.7237,-1.7338,-1.7391,-1.7345,0.0,0.0,-2.0744,-2.1347,-2.1679,-2.1694,-2.1663,-2.1663,-2.1709,-2.2473,-2.3344,-2.4274,-2.4718,-2.5609,-2.6911,-2.718,-2.6852,-2.6092,-2.5866,-2.5843,-2.594,-2.5547,-2.5463,-2.5565,-2.5505,-2.4933,-2.4142,-2.4052,-2.4064,-2.4103,-2.4103,-2.4151,0.0,0.0,0.0,-2.4365,-2.5174,-2.5496,-2.5792,-2.6643,-2.8667,-3.0913,-3.2623,-3.4363,-3.5907,-3.6733,-3.839,-3.9731,-3.9607,-4.0822,-4.1637,-4.0816,-4.0058,-3.9563,-3.9575,-3.9705,-3.9826,-3.9837,-3.9986,-4.0106,-4.0096,-4.0096,-4.0057,-3.9986,-3.9996,-3.9975,-3.9922,-3.9975,-3.9986,-3.9922,-4.0036,-4.0067,-4.0026,-4.0137,-4.0253,-4.0358,-4.1179,-4.1647,-4.1771,-4.247,-4.2852,-4.2976,-4.312,-4.3991,-4.54,-4.4708,-4.4886,-4.5596,-4.4897,-4.5055,-4.5728,-4.5782,-4.5854,-4.5916,-4.5904,-4.5906,-4.5905,0.0,0.0,0.0,0.0,0.0,0.0,0.0,0.0,0.0,0.0,0.0,-1.6675,-1.6962,-1.7075,-1.7125,-1.7162,-1.7285,-1.7486,-1.7787,-1.8811,-1.975,-2.0543,-2.1193,-2.1587,-2.1709,-2.1664,-2.1709,-2.1796,-2.2202,-2.3073,-2.4352,-2.4444,-2.5351,-2.6875,-2.7006,-2.6483,-2.5518,-2.579,-2.5609,-2.5139,-2.526,-2.5416,-2.5544,0.0,0.0,-2.4246,-2.3905,-2.3837,-2.3937,-2.4016,-2.4084,-2.4151,-2.4151,0.0,0.0,0.0,-2.4966,-2.575,-2.7593,-2.8923,-3.0291,-3.2412,-3.4204,-3.5546,-3.5963,-3.7694,-3.9224,-3.9237,-3.9837,-4.0301,-4.0064,-4.0159,-4.0115,-3.9626,-3.9647,-3.9747,-3.9747,-3.9781,-3.9815,-3.9815,-3.9848,-3.9859,-3.9818,-3.9911,-3.9933,-3.99,-3.9922,-3.9933,-3.99,-3.9962,-3.9965,-3.9943,-3.9996,-4.0057,-4.0087,-4.0469,-4.0651,-4.0651,-4.1042,-4.151,-4.2017,-4.2019,-4.2738,-4.3991,-4.3654,-4.3766,-4.4156,-4.4254,-4.4511,-4.491,-4.5398,-4.5645,-4.5737,-4.5685,-4.5718,-4.5796,0.0,0.0,0.0,0.0,0.0,0.0,0.0,0.0,0.0,0.0,0.0,-1.661,-1.6866,0.0,0.0,0.0,-1.7433,-1.7917,-1.8595,-1.929,-1.9961,-2.0531,-2.1163,-2.157,-2.1753,-2.1709,-2.1768,-2.1988,-2.1988,-2.2815,-2.443,-2.4492,-2.5366,-2.6942,-2.6973,-2.6364,-2.5328,-2.5791,-2.5362,-2.4471,-2.5001,-2.5295,-2.5374,0.0,0.0,0.0,0.0,-2.4006,-2.3995,-2.41,-2.4068,-2.3986,-2.4006,-2.3996,0.0,0.0,0.0,-2.5517,-2.7888,-2.8716,-2.9451,-3.174,-3.3549,-3.4871,-3.5323,-3.6851,-3.8289,-3.8711,-3.8804,-3.8784,-3.8719,-3.9664,-4.0234,-3.959,-3.9539,-3.9681,-3.9907,-3.9726,-3.9669,-3.9876,-3.9755,-3.9658,-3.9658,-3.9959,-4.0178,-4.0178,-4.0389,-4.0544,-4.0544,-4.0544,-4.0544,-4.0544,-4.035,-4.0287,-4.034,-4.011,-3.9975,-3.9984,-4.0036,-4.043,-4.1099,-4.1101,-4.1504,-4.2247,-4.2504,-4.2743,-4.2973,-4.3387,-4.379,-4.425,-4.4844,-4.5283,-4.5545,-4.5503,-4.5575,-4.5676,0.0,0.0,0.0,0.0,0.0,0.0,0.0,0.0,0.0,0.0,0.0,-1.6316,-1.6596,-1.6636,-1.674,-1.698,-1.7765,-1.8628,-1.9472,-2.0157,-2.0584,-2.0688,-2.14,0.0,-2.1899,-2.1899,-2.1974,-2.2168,-2.2168,-2.2984,-2.4491,-2.4491,-2.5286,-2.6725,-2.6708,-2.6301,-2.5539,-2.5001,-2.4457,-2.3952,-2.4108,-2.4257,-2.4443,-2.5117,-2.531,-2.5256,-2.5216,-2.4892,-2.4466,-2.4479,-2.4105,-2.3649,-2.3785,-2.3816,-2.3845,0.0,0.0,0.0,-2.6266,-2.738,-2.85,-3.0275,-3.1885,-3.3456,-3.5113,-3.5552,-3.6046,-3.762,-3.7949,-3.774,-3.6991,-3.8125,-3.9184,-3.9129,-3.9232,-3.9605,-4.0446,-3.9951,-3.9815,-4.0628,-4.0002,-3.9495,-3.9495,-4.0388,-4.0939,-4.0939,-4.1775,-4.2268,-4.2268,-4.2268,-4.2268,-4.2268,-4.1602,-4.1238,-4.1218,-4.0596,-4.0244,-4.0186,-4.0186,-4.0215,-4.0253,-4.0253,-4.0329,-4.0479,-4.1246,-4.2049,-4.2756,-4.202,-4.2671,-4.4116,-4.4231,-4.4739,-4.5419,-4.5485,-4.5531,-4.5622,0.0,0.0,0.0,0.0,0.0,0.0,0.0,0.0,0.0,0.0,0.0,0.0,0.0,-1.7779,-1.8187,-1.8283,-1.8813,-1.928,-1.9584,-2.0237,-2.0648,-2.0761,-2.1429,-2.1855,-2.1955,-2.1969,-2.2046,-2.22,-2.22,-2.2982,-2.4491,-2.4491,-2.5286,-2.6691,-2.6691,-2.6335,-2.5718,-2.554,-2.5232,-2.4853,-2.4684,-2.506,-2.5655,-2.5138,-2.5305,-2.5756,-2.5281,-2.5042,-2.4963,-2.5042,-2.4984,-2.4884,-2.4932,-2.4658,-2.4255,-2.3902,-2.4309,-2.4982,-2.5539,-2.6415,-2.7553,-2.9175,-3.0468,-3.1642,-3.2686,-3.3778,-3.4741,-3.5378,-3.5948,-3.6387,-3.6649,-3.7636,-3.8388,-3.8388,-3.8467,-3.8825,-3.9722,-3.9535,-3.941,-3.9746,-3.9537,-3.9389,-3.9427,-3.9833,-4.0153,-4.0288,-4.0617,-4.079,-4.079,-4.0757,-4.0704,-4.0677,-4.0915,-4.1351,-4.1995,-4.1848,-4.1767,-4.1727,-4.1787,-4.1808,-4.1808,-4.1857,-4.1581,-4.1084,-4.1371,-4.138,-4.1255,-4.2049,-4.2718,-4.3369,-4.4518,-4.517,-4.5476,-4.5495,-4.5531,-4.5594,0.0,0.0,0.0,0.0,0.0,0.0,0.0,0.0,0.0,0.0,0.0,0.0,0.0,0.0,-1.895,-1.9201,-1.9583,-1.9925,-2.02,-2.0661,-2.0999,-2.1126,-2.1562,-2.1855,-2.1969,-2.1719,-2.1812,0.0,0.0,0.0,-2.4135,-2.4135,-2.4931,-2.6336,-2.6336,-2.625,-2.6076,-2.5948,-2.5723,-2.5452,-2.5291,-2.5628,-2.6147,-2.5846,-2.5969,-2.6266,-2.604,-2.5717,-2.5415,-2.5547,-2.5526,-2.5433,-2.5456,-2.503,-2.4456,-2.4097,0.0,0.0,-2.5488,0.0,0.0,-2.8323,-2.9348,-3.029,-3.1303,-3.2422,-3.3445,-3.4062,-3.4402,-3.4847,-3.5702,-3.6334,-3.69,-3.7476,-3.7826,-3.8318,-3.9176,-3.9215,-3.9263,-3.9579,-3.9337,-3.9178,-3.9237,-3.9619,-3.9908,-4.0061,-4.045,0.0,-4.0677,-4.0624,-4.0476,-4.0188,-4.0681,-4.1168,-4.1623,-4.1711,-4.1926,-4.2235,-4.2276,-4.2448,-4.2735,-4.2784,-4.2488,-4.1915,-4.1628,-4.1036,-4.0395,-4.1504,-4.2288,-4.2929,-4.4078,-4.4892,-4.5448,-4.5467,-4.5504,-4.5568,0.0,0.0,0.0,0.0,0.0,0.0,0.0,0.0,0.0,0.0,0.0,0.0,0.0,0.0,0.0,-1.9704,-2.0077,-2.0595,-2.1354,-2.1527,-2.1649,-2.1797,-2.1812,-2.1825,-2.1913,-2.1216,-2.1303,0.0,0.0,0.0,0.0,0.0,-2.4188,-2.5592,-2.5592,-2.6015,-2.6674,-2.6141,-2.5802,-2.5659,-2.5851,-2.5819,-2.5828,-2.7249,-2.7385,-2.6877,-2.7588,-2.6995,-2.5932,-2.6062,-2.5702,-2.519,-2.523,-2.4866,-2.4491,0.0,0.0,0.0,0.0,0.0,0.0,-2.7733,-2.8489,-2.9443,-3.1136,-3.1523,-3.2016,-3.3728,-3.3511,-3.3231,-3.4011,-3.4179,-3.4717,-3.6365,-3.7299,-3.8116,-3.8952,-3.9064,-3.938,-4.0253,-3.9493,-3.8892,-3.8925,-3.9774,-4.0347,-4.036,-4.1448,-4.2115,-4.2115,-4.2115,-4.1793,-4.1097,-4.1089,-4.079,-4.0172,-4.0183,-4.0633,-4.1533,-4.1542,-4.2001,-4.2822,-4.286,-4.2841,-4.2784,-4.1934,-4.1113,-4.0358,-4.0339,-4.1304,-4.2794,-4.2832,-4.3855,-4.5298,-4.539,-4.5438,-4.5504,0.0,0.0,0.0,0.0,0.0,0.0,0.0,0.0,0.0,0.0,0.0,0.0,0.0,0.0,-2.1211,-2.1617,-2.1746,-2.1665,-2.1341,-2.1356,-2.1465,-2.1649,-2.1753,-2.1855,-2.1969,-2.1902,-2.2006,0.0,0.0,0.0,0.0,0.0,0.0,-2.5592,-2.5592,-2.6015,-2.6691,-2.6538,-2.6519,-2.6602,-2.6519,-2.6859,-2.7453,-2.7811,-2.8185,-2.8544,-2.8852,-2.8716,-2.8424,-2.8441,-2.7977,-2.7233,-2.6172,-2.5863,0.0,0.0,0.0,0.0,-2.6081,0.0,0.0,0.0,0.0,0.0,-2.9209,-2.9759,-3.0111,-3.1226,-3.2199,-3.2957,-3.3275,-3.3807,-3.4346,-3.481,-3.5609,-3.6662,-3.8042,-3.8228,-3.8544,-3.9361,-3.9141,-3.895,-3.9101,-3.9192,-3.9365,0.0,-3.9892,-4.005,-4.0088,-4.0088,-4.0314,-4.0804,-4.094,-4.1224,-4.1619,-4.1723,-4.1884,-4.2164,-4.2791,-4.3228,-4.3475,-4.4143,-4.4119,-4.352,-4.3365,-4.2851,-4.2068,-4.1485,-4.1858,-4.2872,-4.3542,-4.4461,-4.5361,-4.539,-4.541,-4.5429,0.0,0.0,0.0,0.0,0.0,0.0,0.0,0.0,0.0,0.0,0.0,0.0,0.0,0.0,0.0,-2.2472,-2.2303,-2.2034,-2.1617,-2.1376,-2.1341,-2.1511,-2.1708,-2.184,-2.1911,-2.1815,-2.1916,0.0,0.0,0.0,0.0,0.0,0.0,-2.5182,-2.5182,-2.5775,-2.6775,-2.6403,-2.6487,-2.6892,-2.7215,-2.764,-2.8135,-2.8766,-2.909,-2.9297,-2.9693,-2.959,-2.9281,-2.9368,-2.8922,-2.8062,-2.6592,-2.6184,0.0,0.0,0.0,0.0,0.0,0.0,0.0,0.0,0.0,0.0,-2.8482,-2.8753,-2.8916,-3.0179,-3.1205,-3.2018,-3.2421,-3.289,-3.3317,-3.3652,-3.4135,-3.5027,-3.6681,-3.7201,-3.7559,-3.8042,-3.7961,-3.7872,-3.7938,-3.7843,-3.7973,-3.8484,-3.8233,-3.8236,-3.8617,-3.8662,-3.9088,-4.004,-4.0227,-4.0578,-4.1146,-4.1182,-4.1387,-4.1786,-4.2231,-4.2666,-4.3085,-4.3637,-4.3882,-4.3839,-4.3541,-4.3384,-4.3214,-4.1982,-4.2001,-4.2862,-4.3349,-4.4058,-4.4863,-4.5265,-4.539,-4.54,0.0,0.0,-1.7846,-1.8522,-1.8802,0.0,0.0,0.0,0.0,0.0,0.0,0.0,0.0,0.0,0.0,0.0,-2.2301,-2.1998,-2.1989,-2.1471,-2.1215,-2.1371,-2.1698,-2.1849,-2.1812,-2.1432,-2.1574,0.0,0.0,0.0,0.0,0.0,0.0,0.0,-2.4596,-2.5397,-2.6723,-2.5929,-2.6082,-2.6928,-2.7878,-2.8203,-2.8287,-2.9826,-3.005,-2.9639,-3.0325,-3.0116,-2.9551,-2.9642,-2.9231,-2.8422,-2.6899,-2.6339,-2.614,-2.5582,-2.5898,0.0,0.0,0.0,0.0,0.0,-2.6705,0.0,-2.8317,-2.8203,-2.8195,-2.9836,-3.0357,-3.0765,-3.1489,-3.1715,-3.2012,-3.2748,-3.2934,-3.3584,-3.5268,-3.6197,-3.6736,-3.6829,-3.6665,-3.651,-3.6397,-3.6301,-3.653,-3.7146,-3.673,-3.6768,-3.7507,-3.7674,-3.816,-3.9021,-3.9195,-3.9389,-3.9635,-3.9495,-3.9865,-4.0702,-4.0672,-4.1136,-4.1996,-4.2102,-4.2709,-4.3627,-4.2954,-4.3153,-4.381,-4.218,-4.207,-4.2897,-4.268,-4.3205,-4.4204,-4.5031,-4.5348,-4.5369,-1.755,-1.8426,-1.9233,-1.9427,0.0,0.0,0.0,0.0,0.0,0.0,0.0,0.0,0.0,0.0,0.0,0.0,-2.3067,-2.2471,-2.1951,-2.1272,-2.0957,-2.1135,-2.194,-2.2193,-2.1814,-2.2484,-2.2664,0.0,0.0,0.0,0.0,0.0,0.0,0.0,-2.4611,-2.5108,-2.5925,-2.5709,-2.6436,-2.776,-2.7964,-2.839,-2.9003,-3.0069,-3.0757,-3.1186,-3.145,-3.1796,-3.207,-3.1466,-3.1175,-3.0729,-2.8442,-2.779,-2.7702,-2.7006,-2.6978,0.0,0.0,0.0,0.0,0.0,-2.669,0.0,-2.7234,-2.7422,-2.7465,-2.7977,-2.9215,-3.0264,-3.047,-3.1124,-3.1705,-3.1925,-3.2493,-3.3518,-3.5256,-3.6197,-3.6941,-3.7578,-3.7535,-3.7479,-3.7558,-3.6658,-3.6186,-3.6544,-3.6278,-3.6245,-3.6558,-3.7147,-3.7642,-3.7979,-3.8697,-3.9082,-3.9137,-3.9165,-3.9266,-3.9461,-4.0142,-4.0552,-4.078,-4.1533,-4.2002,-4.2243,-4.2836,-4.3253,-4.3478,-4.3026,-4.3137,-4.3526,-4.2739,-4.3388,-4.4759,-4.4922,-4.5068,-4.5159,-1.8639,-1.9649,-2.0578,-2.0692,0.0,0.0,0.0,0.0,0.0,0.0,0.0,0.0,0.0,0.0,0.0,0.0,0.0,0.0,0.0,0.0,-2.1975,-2.2143,-2.2684,-2.2916,-2.2765,-2.3318,-2.3292,0.0,0.0,0.0,0.0,0.0,0.0,0.0,-2.4673,-2.5287,-2.6376,-2.5858,-2.6383,-2.7572,-2.8339,-2.9108,-2.9896,-3.0795,-3.1382,-3.1709,-3.1781,-3.2265,-3.2712,-3.1499,-3.1399,-3.1368,-2.9008,-2.8544,-2.863,-2.756,-2.7523,-2.7795,0.0,0.0,0.0,-2.804,-2.7151,0.0,0.0,-2.7298,-2.6731,-2.7693,-2.7979,-2.8191,-2.8615,-2.9168,-2.9731,-3.0217,-3.1008,-3.2046,-3.3461,-3.4692,-3.559,-3.5999,-3.599,-3.5951,-3.5946,-3.5312,-3.4895,-3.4899,-3.5147,-3.5354,-3.5443,-3.5835,-3.649,-3.7459,-3.7956,-3.8434,-3.895,-3.8869,-3.8855,-3.8873,-3.9224,-3.9456,-3.9612,-4.0084,-4.0598,-4.1188,-4.1649,-4.2393,-4.3263,-4.2723,-4.2852,-4.3366,-4.3069,-4.3244,-4.3758,-4.4592,-4.4931,-4.4991,-1.973,-2.0667,-2.1515,-2.151,0.0,0.0,0.0,0.0,0.0,0.0,0.0,0.0,0.0,0.0,0.0,0.0,0.0,0.0,0.0,0.0,-2.3062,-2.32,-2.3524,-2.368,-2.3685,-2.3967,-2.3736,-2.3062,0.0,0.0,0.0,0.0,0.0,0.0,0.0,-2.5637,-2.6845,-2.6056,-2.638,-2.7571,-2.8819,-2.9607,-3.0211,-3.1368,-3.18,-3.1852,-3.23,-3.2835,-3.3108,-3.169,-3.1657,-3.1834,-2.9558,-2.9214,-2.9403,-2.8093,-2.8111,-2.8422,-2.7869,-2.7791,-2.7988,-2.8457,-2.7753,-2.7254,0.0,0.0,0.0,-2.7723,-2.712,-2.656,-2.7218,0.0,0.0,-2.8468,0.0,0.0,0.0,-3.2599,0.0,-3.3937,-3.3944,-3.3969,-3.403,-3.3779,-3.3506,-3.323,-3.3818,-3.4184,-3.4135,-3.4482,-3.5332,-3.673,-3.7153,-3.7734,-3.8534,-3.856,-3.8554,-3.8554,-3.8462,-3.851,-3.8713,-3.8713,-3.9239,-4.0114,-4.0282,-4.1199,-4.2552,-4.2109,-4.2155,-4.2567,-4.3139,-4.3001,-4.2655,-4.4165,-4.4739,-4.4764,-1.9824,-2.0748,-2.1495,-2.0912,0.0,0.0,0.0,0.0,0.0,0.0,0.0,0.0,0.0,-2.6988,-2.7178,-2.7699,-2.5998,0.0,-2.5724,-2.4033,0.0,-2.32,-2.3974,-2.4183,-2.3719,-2.441,-2.4182,-2.2906,0.0,0.0,0.0,0.0,0.0,0.0,-2.5664,-2.5797,-2.6124,-2.5818,-2.7026,-2.9128,-2.9317,-2.9042,-2.8784,-3.0971,-3.18,-3.2059,-3.4076,-3.4869,-3.48,-3.3973,-3.3749,-3.344,-3.1163,-3.0489,-3.0386,-2.9506,-2.93,-2.9351,-2.9282,-2.9248,-2.9143,-2.8574,-2.8314,-2.793,-2.6869,0.0,-2.7198,-2.6866,0.0,-2.7705,-2.7794,0.0,0.0,0.0,0.0,0.0,-2.901,-3.049,-3.1948,-3.3022,-3.3037,-3.329,-3.4099,-3.3414,-3.2788,-3.2529,-3.2598,-3.2597,-3.2484,-3.3828,-3.4694,-3.4891,-3.6363,-3.7189,-3.7296,-3.8052,-3.8415,-3.8415,-3.8399,-3.8415,-3.8465,-3.8465,-3.8517,-3.869,-3.9522,-4.0052,-4.0461,-4.1856,-4.1742,-4.0853,-4.2314,-4.2832,-4.2865,-4.3759,-4.4185,-4.4312,-1.9917,-2.11,-2.2054,-2.1395,0.0,0.0,0.0,0.0,0.0,0.0,0.0,0.0,-2.8183,-2.7921,-2.7794,-2.8063,-2.6941,-2.6151,-2.6009,-2.5211,0.0,-2.4305,-2.4654,-2.4783,-2.4638,-2.5005,-2.456,-2.326,-2.3342,0.0,0.0,0.0,0.0,0.0,-2.6339,-2.6831,-2.7407,-2.7722,-2.8219,-2.8904,-2.9799,-2.9696,-2.9248,-3.1557,-3.2731,-3.3268,-3.4234,-3.4855,-3.5007,0.0,-3.3697,0.0,-3.2421,-3.1679,-3.1265,-3.0938,-3.0488,-2.9988,-2.961,-2.9472,-2.9489,0.0,0.0,0.0,-2.8295,0.0,-2.7303,0.0,0.0,0.0,0.0,0.0,0.0,0.0,-2.7647,-2.8156,0.0,0.0,-2.9468,-3.1591,0.0,0.0,-3.2427,-3.2107,-3.1777,-3.1597,-3.2065,-3.231,-3.2212,-3.3328,-3.4162,-3.4588,-3.5271,-3.61,-3.7025,-3.74,-3.7816,-3.8272,-3.8272,-3.8305,-3.8354,-3.8354,-3.8352,-3.8417,-3.8814,-3.9282,-3.982,-4.0531,-4.0726,-4.0698,-4.1376,-4.1828,-4.2259,-4.3522,-4.4051,-4.4109,-2.0441,-2.1565,-2.2493,-2.1814,0.0,0.0,0.0,0.0,0.0,0.0,-2.717,-2.8153,-2.9272,-2.8963,-2.8844,-2.9224,-2.8442,-2.7715,-2.7194,-2.663,-2.6138,-2.5695,-2.5353,-2.53,-2.5605,-2.5471,-2.4876,-2.3774,-2.3877,0.0,0.0,0.0,0.0,0.0,-2.7009,-2.7911,-2.9007,-2.9437,-2.9626,-2.973,-3.0851,-3.116,-3.1123,-3.2643,-3.3835,-3.4697,-3.4697,-3.5042,-3.5301,-3.3973,-3.3921,0.0,-3.3473,-3.2852,-3.2421,-3.2421,-3.1968,-3.1329,-3.0627,0.0,0.0,0.0,0.0,0.0,0.0,0.0,0.0,0.0,0.0,0.0,0.0,0.0,0.0,0.0,0.0,-2.7187,0.0,-2.6613,0.0,0.0,0.0,0.0,0.0,-3.0898,-3.0878,-3.0739,-3.1337,-3.1651,-3.156,-3.2577,-3.3412,-3.3936,-3.4371,-3.5276,-3.6653,-3.6886,-3.7393,-3.8209,-3.8209,-3.8242,-3.8274,-3.8274,-3.8289,-3.8336,-3.8368,-3.868,-3.921,-3.948,-3.979,-4.0155,-4.0608,-4.0895,-4.1262,-4.2905,-4.3513,-4.3582,-2.1635,-2.2224,-2.2493,-2.1814,-2.2757,-2.3595,0.0,-2.3855,-2.4612,-2.6187,-2.6594,-2.7612,-2.9911,-3.0157,-3.0678,-3.2038,-3.09,-3.0093,-3.0077,-2.8237,-2.7158,-2.7127,-2.5939,-2.5673,-2.6446,-2.5751,-2.5083,-2.4468,-2.4468,0.0,0.0,0.0,0.0,0.0,-2.7667,-2.8709,-3.0432,-3.0248,-3.1179,-3.2766,-3.2817,-3.3542,-3.4579,0.0,-3.4956,-3.6232,-3.6232,0.0,0.0,-3.537,-3.5128,0.0,0.0,0.0,0.0,0.0,0.0,0.0,0.0,0.0,0.0,-3.1041,0.0,0.0,0.0,0.0,-2.9365,0.0,0.0,0.0,0.0,0.0,0.0,0.0,0.0,0.0,0.0,-2.5459,-2.5967,-2.7344,-2.901,0.0,0.0,-3.0161,-3.0173,0.0,-3.0118,-3.0086,-2.9888,-3.1438,-3.2309,-3.227,-3.3791,-3.4989,-3.5822,-3.6598,-3.7393,-3.8209,-3.8209,-3.8209,-3.8209,-3.8209,-3.8209,-3.8209,-3.8274,-3.8239,-3.8227,-3.9126,-3.9069,-3.8525,-4.0105,-4.0266,-3.9856,-4.1618,-4.229,-4.2485,-2.2951,-2.3131,-2.3107,-2.2478,-2.3041,-2.3809,-2.4428,-2.4728,-2.5545,-2.7457,-2.8279,-2.943,-3.1446,-3.1821,-3.2285,-3.3208,-3.2258,-3.139,-3.0891,-2.9816,-2.89,-2.8222,-2.7525,-2.701,-2.6704,-2.6233,-2.5484,-2.4422,-2.4497,0.0,0.0,0.0,0.0,0.0,0.0,-2.884,-2.967,-3.1153,-3.1935,-3.2265,-3.3093,-3.4295,-3.5587,0.0,-3.5659,-3.6084,-3.5893,-3.6045,0.0,-3.5646,-3.522,-3.4949,-3.5053,-3.4503,-3.3925,-3.4422,-3.4277,0.0,0.0,0.0,-3.3304,-3.2231,0.0,0.0,0.0,0.0,0.0,0.0,0.0,0.0,0.0,0.0,0.0,0.0,0.0,0.0,0.0,-2.4842,-2.4734,-2.5283,-2.6392,-2.7158,0.0,0.0,0.0,0.0,-2.9225,0.0,-2.9932,-3.1352,-3.2198,-3.2254,-3.3263,-3.419,-3.4989,-3.5802,-3.6598,-3.7412,-3.7955,-3.8209,-3.8209,-3.8209,-3.8209,-3.8209,-3.8207,-3.8156,-3.8053,-3.8393,-3.863,-3.8832,-3.8901,-3.9441,-4.0344,-4.1592,-4.2081,-4.2243,-2.3655,-2.3595,-2.3475,-2.3092,-2.3535,-2.4282,-2.5227,-2.5803,-2.6841,-2.8833,-2.9514,-3.0572,-3.2678,-3.287,-3.324,-3.4272,-3.3786,-3.2892,-3.1665,-3.12,-3.0399,-2.9114,-2.8591,-2.8034,-2.7415,-2.7028,-2.6363,-2.541,-2.5274,-2.5297,0.0,0.0,0.0,0.0,0.0,-2.9391,-3.0245,-3.1914,-3.2666,-3.2821,-3.3928,-3.4933,0.0,0.0,-3.5844,-3.5954,0.0,-3.5783,-3.6002,-3.5694,-3.5438,-3.5288,-3.563,-3.518,-3.4609,-3.5087,-3.4962,-3.4576,-3.4202,-3.4216,0.0,-3.3348,-3.3237,0.0,-3.1765,0.0,-3.1769,0.0,0.0,0.0,0.0,0.0,0.0,0.0,0.0,0.0,0.0,-2.4193,-2.4029,-2.3828,-2.4869,-2.5793,-2.6305,0.0,0.0,0.0,0.0,0.0,0.0,-3.0582,-3.1404,-3.1753,-3.2759,-3.3683,-3.4496,-3.5277,-3.6071,-3.6897,-3.7658,-3.8055,-3.8089,-3.8089,-3.8123,-3.8156,-3.8156,-3.8156,-3.8104,-3.8104,-3.836,-3.8706,-3.8235,-3.8702,-3.9839,-4.1068,-4.1921,-4.2521,-2.3841,-2.3721,-2.3721,-2.3699,-2.4201,-2.4972,-2.6039,-2.701,-2.8298,-3.0211,-3.0228,-3.1006,-3.3572,-3.336,-3.3713,-3.5322,-3.5429,-3.4561,-3.2572,-3.2414,-3.1671,-2.9999,-2.9252,-2.8816,-2.864,-2.8124,-2.7655,-2.7243,0.0,0.0,0.0,0.0,0.0,0.0,-2.8885,-3.0199,-3.1913,-3.248,-3.3373,-3.4514,-3.5267,-3.5481,-3.5291,-3.5291,-3.5571,-3.5932,-3.5667,-3.5577,-3.56,-3.5577,-3.5734,-3.5954,-3.5954,-3.5954,-3.5975,-3.5975,-3.5975,-3.5843,-3.5083,-3.5059,-3.5108,-3.4367,-3.4177,0.0,0.0,0.0,-3.2912,0.0,0.0,0.0,0.0,0.0,0.0,0.0,0.0,0.0,0.0,0.0,-2.3833,-2.311,-2.4505,-2.5861,-2.6733,-2.6241,0.0,0.0,0.0,0.0,0.0,-2.9188,-3.0039,-3.0779,-3.2293,-3.3479,-3.4233,-3.4996,-3.5803,-3.6641,-3.7362,-3.7757,-3.7881,-3.7881,-3.7968,-3.8068,-3.8085,-3.8171,-3.829,-3.829,-3.8204,-3.8101,-3.8101,-3.8192,-3.8499,-4.009,-4.174,-4.3196,-2.5417,-2.5304,-2.519,-2.5091,-2.4814,-2.5265,-2.7206,-2.7688,-2.8717,-3.1174,-3.1834,-3.2742,-3.4499,-3.5003,-3.5462,-3.6151,-3.5732,-3.516,-3.4634,-3.4154,-3.3563,-3.2865,-3.1943,-3.1124,-3.0376,-2.9171,-2.833,-2.786,-2.7454,0.0,-2.7446,0.0,0.0,0.0,0.0,-2.9473,-3.0205,-3.2155,-3.3801,-3.5092,-3.5299,-3.5337,-3.5268,0.0,-3.5205,-3.5435,-3.5182,-3.5304,-3.5554,-3.5188,-3.5274,-3.5435,-3.5251,-3.5418,-3.5667,-3.5526,-3.5728,-3.5995,-3.5987,-3.614,-3.614,-3.5387,-3.52,-3.4904,0.0,0.0,0.0,0.0,0.0,0.0,0.0,0.0,0.0,0.0,0.0,0.0,0.0,0.0,-2.4207,-2.4703,-2.4677,-2.4521,-2.4208,-2.5047,0.0,0.0,0.0,0.0,0.0,0.0,-2.9854,-3.0832,-3.2322,-3.3178,-3.3331,-3.461,-3.5363,-3.5611,-3.697,-3.7631,-3.7685,-3.7721,-3.7739,-3.7739,-3.7774,-3.788,-3.8003,-3.8071,-3.8086,-3.8101,-3.8101,-3.8844,-3.9967,-4.0383,-4.1633,-4.3141,-2.6054,-2.6175,-2.6302,-2.6223,-2.6573,-2.7368,-2.8779,-2.902,-2.9969,-3.2556,-3.3018,-3.3608,-3.4865,-3.5352,-3.5811,-3.643,-3.6122,-3.563,-3.5,-3.4892,-3.4436,-3.35,-3.3191,-3.2477,-3.1268,-3.0521,-2.9673,-2.8716,-2.8335,0.0,-2.8091,0.0,0.0,0.0,0.0,-2.9524,-2.9823,-3.2166,-3.3839,-3.4947,-3.4947,-3.4947,0.0,-3.5126,-3.5133,-3.5067,-3.5239,-3.5283,-3.5258,-3.4994,-3.5065,-3.5268,-3.5128,-3.5251,-3.5525,-3.5862,-3.6129,-3.6458,-3.6902,-3.7182,-3.7233,-3.6688,-3.6655,-3.6378,-3.4994,-3.4827,-3.4636,0.0,-3.2588,-3.1823,0.0,0.0,0.0,0.0,0.0,0.0,0.0,-2.5027,-2.4549,-2.4714,-2.4392,-2.3898,-2.3226,-2.4305,-2.5273,0.0,0.0,0.0,0.0,0.0,-2.9312,-3.0614,-3.177,-3.2545,-3.2818,-3.4301,-3.5031,-3.5031,-3.6609,-3.7354,-3.7374,-3.743,-3.7485,-3.7595,-3.7649,-3.7739,-3.7863,-3.7897,-3.7914,-3.7967,-3.8381,-3.9336,-4.0564,-4.0962,-4.1923,-4.3012,-2.635,-2.6851,-2.7337,-2.7237,-2.8712,-3.0068,-3.0544,-3.0797,-3.1683,-3.3968,-3.3985,-3.4149,-3.5109,-3.5139,-3.546,-3.6368,-3.6398,-3.5845,-3.462,-3.511,-3.4774,-3.3335,-3.3713,-3.3351,-3.2002,-3.1918,-3.1207,-2.9797,0.0,0.0,0.0,0.0,0.0,0.0,0.0,0.0,0.0,-3.2234,-3.36,-3.4546,-3.457,-3.4644,-3.4808,-3.548,-3.5407,-3.5029,-3.5671,-3.5473,-3.4899,-3.4899,-3.5108,-3.5395,-3.5395,-3.5485,-3.5756,-3.6599,-3.6854,-3.703,-3.7667,-3.8021,-3.8139,-3.7901,-3.7997,-3.7732,-3.6175,-3.5678,-3.5323,-3.4505,-3.3066,-3.2152,0.0,0.0,0.0,0.0,0.0,0.0,0.0,-2.5291,-2.4968,-2.4265,-2.4237,0.0,0.0,0.0,0.0,0.0,0.0,0.0,0.0,0.0,-2.8534,-3.009,-3.103,-3.1862,-3.2589,-3.4023,-3.4763,-3.478,-3.6271,-3.7009,-3.7069,-3.7089,-3.7242,-3.7522,-3.7522,-3.7613,-3.7756,-3.7774,-3.7739,-3.7793,-3.8833,-3.9734,-4.0601,-4.1615,-4.2358,-4.2844,-2.7557,-2.8464,-2.9102,-2.8441,-2.9454,-3.0829,-3.2172,-3.2705,-3.3381,-3.4468,-3.5026,-3.556,-3.6167,-3.5854,-3.5758,-3.6227,-3.5893,-3.5561,-3.5321,-3.5426,-3.5383,-3.5222,-3.4674,-3.4406,-3.4394,-3.2744,-3.172,-3.1301,0.0,0.0,0.0,0.0,0.0,0.0,0.0,0.0,-3.1591,-3.1979,0.0,-3.4689,-3.4965,-3.5425,-3.5934,-3.6293,-3.6348,-3.6275,-3.6423,-3.5786,-3.4899,-3.4899,-3.5337,-3.5883,-3.5883,-3.6404,-3.7026,-3.7045,-3.7144,-3.7417,-3.7977,-3.8151,-3.8177,-3.805,-3.7921,-3.7369,-3.5786,-3.5282,-3.4951,-3.4161,-3.3348,-3.2711,-3.2394,0.0,0.0,0.0,0.0,0.0,0.0,-2.6491,-2.5805,-2.5712,-2.5727,-2.5265,-2.4038,0.0,0.0,0.0,0.0,0.0,0.0,0.0,-2.7589,0.0,-3.0729,0.0,0.0,0.0,-3.4559,-3.4577,-3.6097,-3.6831,-3.6851,-3.7031,-3.7089,-3.7106,-3.7166,-3.7299,-3.7486,-3.7595,-3.7667,-3.7847,-3.9334,-4.0091,-4.0508,-4.1949,-4.2485,-4.2536,-2.8985,-2.9735,-3.0283,-2.9855,-3.111,-3.242,-3.3156,-3.3996,-3.4611,-3.4817,-3.5042,-3.527,-3.5536,-3.5651,-3.5752,-3.5911,-3.5814,-3.5701,-3.5604,-3.5589,-3.5589,-3.5604,-3.5239,-3.4941,-3.4738,-3.3427,-3.2245,-3.1301,0.0,0.0,0.0,0.0,0.0,-2.9062,0.0,-3.0792,0.0,0.0,0.0,-3.4622,-3.5069,-3.5448,-3.5799,-3.63,-3.6286,-3.6093,-3.6464,-3.6145,-3.5627,-3.5869,-3.6224,-3.6572,-3.6572,-3.6879,-3.7345,-3.7753,-3.7953,-3.8179,-3.8803,-3.8994,-3.8899,-3.855,-3.8453,-3.813,-3.6783,-3.6009,-3.5346,-3.4575,-3.3739,-3.2937,-3.2228,-3.0752,0.0,0.0,0.0,0.0,0.0,0.0,-2.6396,-2.6459,-2.6133,-2.5386,-2.4085,-2.4646,0.0,0.0,0.0,0.0,0.0,0.0,-2.749,0.0,0.0,0.0,0.0,0.0,0.0,-3.4521,-3.6057,-3.6809,-3.6791,-3.6911,-3.697,-3.6989,-3.7029,-3.7089,-3.7204,-3.726,-3.7373,-3.7645,-3.9155,-3.9838,-4.017,-4.1723,-4.2236,-4.2239,-3.0179,-3.0803,-3.1336,-3.1207,-3.2615,-3.3847,-3.3934,-3.4904,-3.5524,-3.5181,-3.5013,-3.4935,-3.4998,-3.5466,-3.5752,-3.5752,-3.5863,-3.5878,-3.5671,-3.5671,-3.5621,-3.5554,-3.5537,-3.5282,-3.4823,-3.41,-3.2946,0.0,0.0,0.0,0.0,0.0,0.0,0.0,0.0,0.0,0.0,0.0,-3.4242,-3.4755,-3.5222,-3.5508,-3.5742,-3.6379,-3.6324,-3.5982,-3.6565,-3.6678,-3.6583,-3.6949,-3.714,-3.7241,-3.7308,-3.7424,-3.7639,-3.8426,-3.8644,-3.8761,-3.9354,-3.9468,-3.9292,-3.8832,-3.8816,-3.863,-3.7502,-3.6529,-3.5588,-3.4819,-3.3884,-3.2944,-3.2031,-3.0892,0.0,0.0,0.0,0.0,0.0,0.0,-2.6792,-2.6623,-2.6048,-2.5193,-2.3978,0.0,0.0,0.0,0.0,0.0,-2.5147,0.0,0.0,0.0,0.0,-3.0706,-3.2108,0.0,-3.4559,-3.4503,-3.6038,-3.6788,-3.6788,-3.6829,-3.6871,-3.6968,-3.6987,-3.7007,-3.7007,-3.7007,-3.7105,-3.7362,-3.8642,-3.9323,-3.9784,-4.1186,-4.1764,-4.1906,-3.0724,-3.1766,-3.2524,-3.2124,-3.3224,-3.4307,-3.472,-3.5563,-3.6018,-3.5688,-3.5629,-3.5725,-3.6041,-3.6023,-3.5973,-3.5973,-3.5831,-3.5671,-3.5537,-3.5537,-3.5587,-3.5671,-3.5572,-3.5621,-3.585,-3.4901,-3.3924,0.0,0.0,-3.0424,0.0,0.0,0.0,0.0,0.0,0.0,0.0,-3.2823,-3.3895,-3.5441,-3.5725,-3.6249,-3.6872,-3.7188,-3.7275,-3.7227,-3.7291,-3.7424,-3.7568,-3.7626,-3.7616,-3.7705,-3.7992,-3.8438,-3.8815,-3.8799,-3.8789,-3.8805,-3.8871,-3.8711,-3.8504,-3.8448,-3.8217,-3.7694,-3.6434,-3.57,-3.4993,-3.3992,-3.3337,-3.2619,-3.1651,-3.1862,-3.1532,0.0,0.0,0.0,0.0,0.0,-2.699,-2.6094,-2.5765,-2.5206,-2.4175,-2.3962,0.0,0.0,-2.3267,0.0,0.0,0.0,0.0,-2.7877,0.0,-3.0277,-3.1217,-3.3238,-3.4312,-3.4424,-3.5973,-3.6722,-3.6722,-3.6888,-3.6928,-3.6829,-3.6948,-3.7007,-3.7007,-3.7007,-3.7007,-3.7115,-3.7903,-3.8719,-3.9526,-4.0408,-4.1037,-4.1463,-3.2154,-3.3035,-3.3814,-3.3824,-3.4783,-3.5762,-3.6335,-3.6682,-3.6858,-3.6757,-3.6827,-3.6941,-3.7107,-3.7041,-3.6857,-3.6464,-3.6451,-3.6252,-3.5651,-3.5621,-3.5621,-3.5572,-3.5522,-3.5554,-3.5716,-3.4911,-3.4116,0.0,0.0,0.0,0.0,0.0,0.0,0.0,0.0,-3.1724,-3.2671,-3.3763,-3.4736,-3.5537,-3.6059,-3.643,-3.6708,-3.6816,-3.6892,-3.6983,-3.6892,-3.7134,-3.7492,-3.7449,-3.7694,-3.8072,-3.8215,-3.8493,-3.875,-3.8694,-3.8611,-3.8544,-3.8544,-3.8476,-3.8335,-3.8148,-3.8001,-3.769,-3.6908,-3.6166,-3.5435,-3.4488,-3.3408,-3.2489,-3.217,-3.1858,-3.145,-3.0807,0.0,0.0,0.0,0.0,0.0,-2.7036,-2.6163,-2.5303,-2.4527,-2.4176,0.0,0.0,0.0,0.0,0.0,0.0,0.0,-2.829,0.0,-3.0418,-3.1742,-3.3447,-3.4557,-3.5066,-3.6162,-3.6705,-3.6748,-3.6849,-3.6891,-3.6911,-3.6987,-3.7007,-3.6989,-3.6911,-3.6888,-3.6939,-3.7568,-3.8314,-3.912,-3.9804,-4.0497,-4.1088,-3.3846,-3.4421,-3.4958,-3.5175,-3.5731,-3.6333,-3.6887,-3.6793,-3.6768,-3.7099,-3.7248,-3.7434,-3.7673,-3.744,-3.7072,-3.6592,-3.6676,-3.6375,-3.5507,-3.5754,-3.5799,-3.5504,-3.5504,0.0,-3.5504,-3.5026,-3.4488,-3.3784,-3.284,0.0,0.0,0.0,0.0,0.0,-3.1914,-3.2638,-3.3312,-3.4591,-3.5355,-3.5753,-3.623,-3.646,-3.6492,-3.6492,-3.6554,-3.6631,-3.6523,-3.6769,-3.7118,-3.7013,-3.7358,-3.787,-3.81,-3.8258,-3.8331,-3.8331,-3.8234,-3.8119,-3.8234,-3.8148,-3.8004,-3.7873,-3.7815,-3.7669,-3.7148,-3.6527,-3.5734,-3.4627,-3.3326,-3.2425,-3.2578,-3.1997,-3.1497,-3.157,0.0,0.0,0.0,-2.8596,0.0,-2.7566,-2.627,-2.5261,-2.5002,-2.443,0.0,0.0,0.0,0.0,0.0,0.0,0.0,0.0,0.0,0.0,-3.2108,-3.3567,-3.4692,-3.5479,-3.6278,-3.6664,-3.6708,-3.6708,-3.6788,-3.6908,-3.6928,-3.6948,-3.6948,-3.6888,-3.6869,-3.6901,-3.7283,-3.8017,-3.8929,-3.9361,-4.0147,-4.0989,-3.5595,-3.5795,-3.5829,-3.5978,-3.5629,-3.5462,-3.5949,-3.5325,-3.5245,-3.6447,-3.6514,-3.6726,-3.7605,-3.6817,-3.6193,-3.6227,-3.6227,-3.5844,-3.4979,-3.5889,-3.6178,0.0,0.0,-3.5504,-3.5504,-3.5489,-3.516,-3.4503,0.0,0.0,-3.285,0.0,-3.2086,-3.2482,-3.263,-3.3442,-3.4694,-3.4894,-3.5476,-3.6196,-3.6196,-3.6305,-3.6492,-3.6492,-3.6492,-3.6492,-3.6492,-3.6492,-3.6523,-3.6523,-3.66,-3.6861,-3.7653,-3.7815,-3.77,-3.77,-3.7567,-3.746,-3.7828,-3.7565,-3.7284,-3.7612,-3.7583,-3.7345,-3.6816,-3.6452,-3.5707,-3.405,-3.3002,-3.2425,-3.2578,-3.2465,-3.2099,-3.1253,0.0,0.0,0.0,-2.8178,0.0,-2.7301,-2.5821,-2.5013,-2.5542,-2.4693,0.0,0.0,0.0,0.0,0.0,0.0,0.0,-2.8334,-2.8991,0.0,-3.1893,-3.3375,-3.4552,-3.5414,-3.6139,-3.6502,-3.6502,-3.6502,-3.6582,-3.6702,-3.6768,-3.6809,-3.6811,-3.693,-3.7007,-3.7007,-3.7007,-3.7857,-3.9101,-3.9118,-3.9992,-4.1186,-3.483,-3.5395,-3.583,-3.5619,-3.6047,-3.6391,-3.642,-3.6168,-3.6285,-3.7011,-3.7171,-3.7491,-3.8184,-3.7724,-3.7465,0.0,-3.705,-3.6537,0.0,-3.5869,-3.5698,-3.5777,-3.5762,-3.5703,-3.5504,-3.5504,-3.54,-3.5175,0.0,0.0,0.0,-3.3081,-3.3066,-3.32,-3.3711,-3.4223,-3.4723,-3.5253,-3.5698,-3.6053,-3.6053,-3.6148,-3.6305,-3.6305,-3.6383,-3.6492,-3.6492,-3.6554,-3.6631,-3.6523,-3.6585,-3.6708,-3.6723,-3.6921,-3.7163,-3.7163,-3.7134,-3.7165,-3.7255,-3.7314,-3.7328,-3.7344,-3.7403,-3.7344,-3.6984,-3.6303,-3.5483,-3.4683,-3.3867,-3.3135,-3.2671,-3.2578,-3.2412,-3.2044,-3.1285,0.0,-3.0214,0.0,-2.6907,-2.6891,-2.5723,-2.4968,-2.5048,-2.5091,0.0,0.0,0.0,0.0,0.0,0.0,0.0,0.0,-2.977,0.0,-3.2429,-3.4039,-3.5235,-3.6036,-3.626,-3.6423,-3.6502,-3.6602,-3.6643,-3.6702,-3.6725,-3.6725,-3.6725,-3.6786,-3.6786,-3.6786,-3.6786,-3.7728,-3.9011,-3.9011,-3.9948,-4.1209,-3.5255,-3.5842,-3.621,-3.582,-3.6474,-3.7022,-3.6879,-3.6603,-3.6553,-3.6982,-3.7055,-3.7317,-3.8091,-3.7944,0.0,-3.7967,-3.7349,-3.6731,-3.6213,-3.606,-3.5901,-3.5678,-3.5663,-3.561,-3.5433,-3.5296,0.0,-3.521,-3.4974,-3.4651,-3.4247,-3.4389,-3.4451,-3.4466,-3.4888,-3.5131,-3.5209,-3.5617,-3.5894,-3.6005,-3.6005,-3.6053,-3.6116,-3.6116,-3.6211,-3.6383,-3.6383,-3.6476,-3.66,-3.6523,-3.6507,-3.6461,-3.6274,-3.6399,-3.6631,-3.6708,-3.6785,-3.6847,-3.7014,-3.715,-3.7224,-3.7224,-3.7314,-3.7389,-3.7135,-3.6378,-3.5652,-3.526,-3.4436,-3.3616,-3.3113,-3.2791,-3.2578,-3.2496,-3.1407,-3.0593,-3.0541,0.0,-2.6776,0.0,0.0,0.0,0.0,-2.5958,-2.6283,0.0,0.0,0.0,0.0,0.0,0.0,-2.8165,-3.0451,0.0,-3.3339,-3.4576,-3.5559,-3.6301,-3.6301,-3.6343,-3.6423,-3.6523,-3.6544,-3.6544,-3.6602,-3.6623,-3.6623,-3.6681,-3.6702,-3.6737,-3.7015,-3.7889,-3.9085,-3.9382,-4.0293,-4.1346,-3.6513,-3.6819,-3.6847,-3.6461,-3.6893,-3.7274,-3.723,-3.6592,-3.6237,-3.6593,-3.6388,-3.6577,-3.7565,-3.7674,-3.7587,-3.739,0.0,0.0,-3.5373,-3.6476,-3.6635,-3.5404,-3.5404,-3.5375,-3.5323,-3.4962,-3.4742,-3.4698,-3.5195,-3.5472,-3.5472,-3.5797,-3.5973,-3.5973,-3.6005,-3.6005,-3.6005,-3.6005,-3.6005,-3.6005,-3.6005,-3.6005,-3.6005,-3.6005,-3.6085,-3.6196,-3.6211,-3.6352,-3.6492,-3.6492,-3.6383,-3.6211,-3.6196,-3.6211,-3.6242,-3.6414,-3.6492,-3.6616,-3.7043,-3.7075,-3.703,-3.7134,-3.73,-3.7405,-3.7224,-3.6692,-3.6133,-3.579,-3.4838,-3.3961,-3.3743,-3.3144,-3.2667,-3.2594,-3.1475,-3.0567,-3.0428,-2.8404,-2.6979,0.0,0.0,0.0,-2.6499,-2.7075,-2.7407,0.0,0.0,0.0,0.0,0.0,-2.7961,-2.9169,-3.1045,-3.2777,-3.4339,-3.4945,-3.557,-3.628,-3.628,-3.628,-3.6301,-3.628,-3.628,-3.6301,-3.6423,-3.6502,-3.6502,-3.6675,-3.6751,-3.6838,-3.7568,-3.8419,-3.9254,-4.0005,-4.0823,-4.1542,0.0,0.0,-3.6619,-3.6353,-3.6712,-3.689,-3.6583,-3.6381,-3.6454,-3.7077,-3.7077,-3.7361,-3.8186,-3.8429,-3.8414,-3.8208,-3.7608,-3.7295,-3.7483,-3.7065,-3.6582,-3.6091,-3.6353,-3.6201,-3.5525,-3.5434,-3.5214,-3.4835,-3.4968,-3.5034,-3.5034,-3.5457,-3.5619,-3.5619,-3.5893,-3.6005,-3.6005,-3.6005,-3.6005,-3.6005,-3.6005,-3.6068,-3.6148,-3.6148,-3.6179,-3.6211,-3.6383,-3.6352,-3.6274,-3.646,-3.646,-3.6383,-3.6242,-3.6305,-3.6414,-3.6305,-3.6383,-3.6523,-3.6647,-3.6847,-3.6969,-3.6846,-3.6846,-3.6923,-3.7014,-3.6828,-3.6488,-3.6152,-3.5732,-3.5083,-3.4054,-3.3715,-3.3351,-3.2573,-3.1407,-3.0567,-3.0428,-2.8607,-2.7288,0.0,-2.6891,-2.6622,-2.6649,-2.7431,-2.7973,0.0,0.0,0.0,0.0,-2.963,-3.0142,-2.9446,-3.1888,-3.3448,-3.3956,-3.4869,-3.5574,-3.6084,-3.6084,-3.6152,-3.6301,-3.6131,-3.6152,-3.6301,-3.6322,-3.636,-3.6395,-3.7088,-3.7373,-3.748,-3.8308,-3.9155,-3.9891,-4.0083,-4.0627,-4.13,-3.6078,-3.6626,-3.7002,-3.6772,-3.738,-3.7822,-3.7607,-3.7498,-3.763,-3.8055,-3.8048,-3.8143,-3.8583,-3.8723,-3.8723,-3.8516,-3.8009,-3.7686,-3.767,-3.7327,-3.6937,-3.6489,-3.6704,-3.6574,-3.6114,-3.5882,-3.5592,-3.5141,-3.4982,-3.4902,-3.4902,-3.5297,-3.5444,-3.5459,-3.5623,-3.5831,-3.6005,-3.6005,-3.6037,-3.6085,-3.6085,-3.6085,-3.6116,-3.6116,-3.6148,-3.6211,-3.6305,-3.6352,-3.6352,-3.646,-3.6492,-3.6492,-3.6383,-3.6414,-3.6492,-3.6383,-3.6414,-3.6523,-3.6569,-3.6739,-3.6862,-3.6831,-3.6877,-3.6938,-3.6862,-3.6907,-3.6828,-3.65,-3.6232,-3.5669,-3.4493,-3.4085,-3.3485,-3.216,-3.1127,-3.0382,-3.0012,-2.8554,-2.7651,-2.7961,-2.789,-2.7917,-2.8222,-2.9013,-2.9563,-2.9672,-3.0029,0.0,-2.9756,-3.1142,-3.1326,-2.9906,-3.2503,-3.3955,-3.4027,-3.4878,-3.5638,-3.6226,-3.6226,-3.6401,-3.6769,-3.6803,-3.6803,-3.6752,-3.7055,-3.7095,-3.704,-3.7629,-3.7801,-3.778,-3.8585,-3.9267,-3.9876,-4.0239,-4.0718,-4.1209,-3.6966,-3.7434,-3.7675,-3.7477,-3.8319,-3.9031,-3.9031,-3.887,-3.8833,-3.9068,-3.8907,-3.8819,-3.8819,-3.887,-3.8797,-3.859,-3.8389,-3.7984,-3.7277,-3.7552,-3.7453,-3.6859,-3.6842,-3.6819,-3.6733,-3.6373,-3.5963,-3.5552,-3.517,-3.4982,-3.4982,-3.5198,-3.5302,-3.5335,-3.5367,-3.5576,-3.5894,-3.5894,-3.6022,-3.6179,-3.6179,-3.6116,-3.6068,-3.6068,-3.6163,-3.6242,-3.6242,-3.6352,-3.6492,-3.6492,-3.6492,-3.6492,-3.6492,-3.6492,-3.6492,-3.6492,-3.6492,-3.6523,-3.6631,-3.6662,-3.6739,-3.6908,-3.7044,-3.7013,-3.6754,-3.6922,-3.7043,-3.6754,-3.6486,-3.5996,-3.506,-3.4418,-3.35,-3.1875,-3.0957,-3.0207,-2.9504,0.0,-2.8202,-2.8731,-2.9092,-2.9533,-3.0163,-3.0811,-3.123,-3.1415,-3.1431,-3.1431,-3.1406,-3.218,-3.2072,-3.0775,-3.3023,-3.4299,-3.4413,-3.5107,-3.579,-3.6487,-3.6487,-3.6774,-3.7236,-3.7491,-3.7491,-3.731,-3.7828,-3.7916,-3.7766,-3.8122,-3.8133,-3.8002,-3.8777,-3.9302,-3.9675,-4.036,-4.0782,-4.103,-3.7251,-3.7834,-3.8295,-3.8094,-3.8502,-3.8797,-3.8627,-3.8553,-3.8701,-3.9068,-3.8907,-3.887,-3.9017,-3.9228,-3.9156,-3.8797,-3.8708,-3.8568,-3.831,-3.8323,-3.809,-3.7485,-3.761,-3.7465,-3.6971,-3.6893,-3.6642,-3.6156,-3.5587,-3.5316,-3.5301,-3.5085,-3.4986,-3.4986,-3.5285,-3.5432,-3.5497,-3.5497,-3.572,-3.6037,-3.6037,-3.6195,-3.6429,-3.6429,-3.6429,-3.646,-3.646,-3.646,-3.6492,-3.6492,-3.6492,-3.6492,-3.6492,-3.6492,-3.6492,-3.6492,-3.6492,-3.6492,-3.6523,-3.6523,-3.6585,-3.6723,-3.6662,-3.6631,-3.6693,-3.6739,-3.6769,-3.6708,-3.6661,-3.6458,-3.5909,-3.512,-3.4102,-3.271,-3.1503,-3.0406,-2.9529,0.0,-2.9292,-2.9277,-2.9826,-3.0365,-3.082,-3.0979,-3.1444,-3.2396,-3.2469,-3.2419,-3.2294,-3.2962,-3.3196,-3.2845,-3.3585,-3.429,-3.4965,-3.6029,-3.6527,-3.649,-3.649,-3.6659,-3.6952,-3.6774,-3.6859,-3.7137,-3.7236,-3.7327,-3.7526,-3.8294,-3.8596,-3.8655,-3.9547,-3.9952,-4.0018,-4.0137,-4.0221,-4.0271,-3.7781,-3.8177,-3.8478,-3.8366,-3.8612,-3.8745,-3.8686,-3.859,-3.8553,-3.8738,-3.8701,-3.8738,-3.8907,-3.8922,-3.8885,-3.8797,-3.8782,-3.8708,-3.8516,-3.8404,-3.8221,-3.7944,-3.802,-3.7922,-3.7647,-3.7314,-3.7047,-3.6838,-3.6199,-3.5865,-3.5851,-3.5385,-3.518,-3.5166,-3.4934,-3.4971,-3.5136,-3.5136,-3.5317,-3.5688,-3.5688,-3.5894,-3.6226,-3.6226,-3.6336,-3.6492,-3.6492,-3.6492,-3.6492,-3.6492,-3.6492,-3.6492,-3.6492,-3.6492,-3.6492,-3.6492,-3.6492,-3.6492,-3.6492,-3.6492,-3.6523,-3.6569,-3.6554,-3.6523,-3.6569,-3.66,-3.66,-3.6693,-3.6693,-3.6507,-3.593,-3.5217,-3.4324,-3.3262,-3.2044,0.0,-3.0639,-3.032,-3.0252,-3.0546,-3.0871,-3.13,-3.1961,-3.2426,-3.2956,-3.367,-3.4064,-3.4271,-3.4281,-3.4638,-3.4814,-3.4761,-3.4856,-3.5192,-3.5742,-3.6267,-3.6662,-3.6923,-3.6923,-3.7145,-3.7557,-3.7519,-3.7628,-3.78,-3.8022,-3.8143,-3.8209,-3.8733,-3.8892,-3.8795,-3.9318,-3.9609,-3.9747,-3.9935,-4.0037,-4.0096,-3.8202,-3.8315,-3.8485,-3.8646,-3.8772,-3.8951,-3.906,-3.8977,-3.8879,-3.8931,-3.8931,-3.8992,-3.9164,-3.9142,-3.9098,-3.9033,-3.9018,-3.8885,-3.859,-3.8352,-3.8202,-3.8277,-3.8202,-3.8202,-3.8202,-3.7752,-3.752,-3.752,-3.6867,-3.6533,-3.6533,-3.588,-3.5625,-3.5595,-3.4907,-3.4767,-3.5022,-3.4861,-3.4986,-3.527,-3.527,-3.5527,-3.5863,-3.5863,-3.6068,-3.6398,-3.6398,-3.6429,-3.6492,-3.6492,-3.6492,-3.6492,-3.6492,-3.6492,-3.6492,-3.6492,-3.6492,-3.6492,-3.6492,-3.6492,-3.6492,-3.6492,-3.6492,-3.6492,-3.6492,-3.6492,-3.6523,-3.6631,-3.6662,-3.6507,-3.6042,-3.5361,-3.4589,-3.3609,0.0,-3.1785,0.0,-3.1274,-3.1305,-3.1932,-3.2164,-3.2583,-3.3345,-3.3983,-3.4475,-3.4861,-3.5354,-3.5669,-3.5746,-3.5856,-3.599,-3.6135,-3.6156,-3.627,-3.6492,-3.6653,-3.6982,-3.7427,-3.7427,-3.7645,-3.8001,-3.8205,-3.8278,-3.8307,-3.865,-3.8761,-3.8722,-3.8952,-3.8925,-3.875,-3.8914,-3.9131,-3.9425,-3.9651,-3.9833,-3.9986,-3.824,-3.8202,-3.8443,-3.9053,-3.917,-3.9358,-3.9911,-3.9998,-4.0037,-4.0247,-4.0247,-4.0247,-4.0286,-4.0663,-4.058,-3.9784,-3.9725,-3.946,-3.8826,-3.8427,-3.8277,-3.8478,-3.8277,-3.8202,-3.8202,-3.8159,-3.813,-3.813,-3.7535,-3.723,-3.7215,-3.6562,-3.6228,-3.6214,-3.561,-3.5319,-3.5325,-3.4695,-3.4635,-3.4935,-3.4935,-3.5136,-3.5432,-3.5432,-3.5688,-3.6037,-3.6037,-3.6241,-3.6492,-3.6492,-3.6492,-3.6492,-3.6492,-3.6492,-3.6492,-3.6492,-3.6492,-3.6492,-3.6492,-3.6492,-3.6492,-3.6492,-3.6492,-3.6492,-3.6492,-3.6492,-3.6492,-3.6523,-3.6523,-3.6538,-3.6615,-3.5982,-3.5057,-3.386,0.0,0.0,-3.1528,-3.1998,-3.2659,-3.3211,-3.3873,-3.4463,-3.4908,-3.4983,-3.5212,-3.5687,-3.5762,-3.574,-3.5629,-3.5629,-3.59,-3.6536,-3.6977,-3.7132,-3.7049,-3.7725,-3.7978,-3.7854,-3.7854,-3.7828,-3.773,-3.7876,-3.7934,-3.7963,-3.8164,-3.8307,-3.8448,-3.8588,-3.8616,-3.8616,-3.875,-3.9013,-3.9325,-3.9325,-3.9432,-3.9554,-3.8876,-3.9115,-3.9396,-4.0094,-4.0211,-4.0222,-4.0339,-4.0446,-4.0524,-4.0461,-4.0578,-4.068,-4.0811,-4.0888,-4.0784,-4.0456,-4.0403,-4.0047,-3.9121,-3.904,-3.8812,-3.8344,-3.824,-3.8202,-3.8202,-3.8202,-3.8202,-3.8202,-3.797,-3.7868,-3.7839,-3.7215,-3.6925,-3.6896,-3.6243,-3.5952,-3.5909,-3.5305,-3.5097,-3.5171,-3.4777,-3.4802,-3.5103,-3.5103,-3.5299,-3.5608,-3.5608,-3.5847,-3.6195,-3.6195,-3.6336,-3.6492,-3.6492,-3.6492,-3.6492,-3.6492,-3.6492,-3.6492,-3.6492,-3.6492,-3.6492,-3.6492,-3.6492,-3.6492,-3.6492,-3.6492,-3.6492,-3.6492,-3.6492,-3.6523,-3.6585,-3.5999,-3.5475,-3.5443,0.0,-3.3937,-3.4063,-3.3854,-3.3838,-3.4174,-3.4261,-3.4445,-3.4823,-3.5328,-3.5797,-3.614,-3.668,-3.6991,-3.702,-3.702,-3.7132,-3.7416,-3.7575,-3.7648,-3.7591,-3.8007,-3.8107,-3.7905,-3.802,-3.8049,-3.8008,-3.7934,-3.802,-3.8193,-3.8193,-3.8294,-3.8391,-3.8448,-3.8492,-3.8476,-3.8616,-3.8755,-3.8892,-3.904,-3.9094,-3.9121,-3.9184,-3.9518,-3.9838,-4.0386,-4.0448,-4.0535,-4.0768,-4.0782,-4.0768,-4.0877,-4.0848,-4.0967,-4.1194,-4.1273,-4.1224,-4.1018,-4.0989,-4.0593,-3.9639,-3.9392,-3.8946,-3.8231,-3.8202,-3.8202,-3.8202,-3.8202,-3.8202,-3.8202,-3.8202,-3.8202,-3.8188,-3.7781,-3.7593,-3.7564,-3.691,-3.662,-3.6577,-3.5938,-3.5697,-3.5654,-3.5183,-3.5015,-3.5077,-3.5077,-3.5248,-3.5565,-3.5565,-3.5944,-3.6449,-3.6563,-3.6757,-3.6964,-3.7091,-3.6984,-3.6799,-3.6799,-3.6661,-3.6492,-3.6492,-3.6492,-3.6492,-3.6492,-3.6492,-3.6492,-3.6492,-3.6492,-3.6492,-3.6492,-3.6492,-3.6492,-3.6492,-3.6107,-3.5891,-3.6138,-3.5474,-3.5115,-3.5579,-3.512,-3.4859,-3.5209,-3.5046,-3.5016,-3.5299,-3.5852,-3.6311,-3.6564,-3.7137,-3.7524,-3.7612,-3.773,-3.7759,-3.7685,-3.7759,-3.7759,-3.7759,-3.7992,-3.8049,-3.7905,-3.8049,-3.8078,-3.8049,-3.7934,-3.7992,-3.8164,-3.8193,-3.8237,-3.825,-3.8307,-3.8307,-3.825,-3.8335,-3.8476,-3.8628,-3.8805,-3.886,-3.8914,-3.8943,-3.9215,-3.9562,-3.969,-3.969,-4.0083,-4.1212,-4.1001,-4.0944,-4.1619,-4.1296,-4.11,-4.1396,-4.2022,-4.2143,-4.146,-4.1412,-4.1119,-4.0437,-3.9392,-3.8626,-3.8231,-3.8202,-3.8202,-3.8202,-3.8202,-3.8202,-3.8202,-3.8202,-3.8202,-3.8202,-3.8202,-3.8202,-3.8173,-3.7578,-3.7317,-3.7273,-3.6591,-3.6315,-3.6315,-3.6301,-3.5923,-3.5407,-3.5407,-3.5599,-3.5908,-3.5908,-3.6541,-3.7449,-3.7793,-3.7879,-3.7962,-3.8376,-3.8046,-3.7507,-3.7507,-3.703,-3.6507,-3.6507,-3.6507,-3.6507,-3.6492,-3.6492,-3.6492,-3.6492,-3.6492,-3.6492,-3.6492,-3.6492,-3.6492,-3.6492,-3.6492,-3.6276,-3.5629,-3.5521,-3.5521,-3.5521,-3.5521,-3.5737,-3.6415,-3.6492,-3.6554,-3.6693,-3.6693,-3.6785,-3.6969,-3.7015,-3.7015,-3.7015,-3.7301,-3.7405,-3.7194,-3.7405,-3.751,-3.751,-3.7759,-3.7905,-3.7905,-3.7905,-3.7847,-3.77,-3.7847,-3.7817,-3.773,-3.8049,-3.8078,-3.7934,-3.8107,-3.8078,-3.7905,-3.7905,-3.816,-3.8595,-3.8595,-3.8777,-3.8996,-3.9519,-3.9879,-4.0214,-4.0743,-4.0815,-4.0886,-4.1113,-4.1128,-4.1212,-4.1465,-4.1493,-4.1521,-4.1577,-4.1785,-4.1755,-4.1416,-4.1402,-4.1114,-4.0452,-3.9539,-3.8791,-3.8204,-3.8222,-3.8202,-3.8202,-3.8202,-3.8202,-3.8202,-3.8202,-3.8202,-3.8202,-3.8202,-3.8202,-3.8188,-3.8014,-3.7941,-3.7897,-3.7273,-3.7012,-3.6968,-3.6504,-3.6199,-3.6025,-3.6025,-3.6096,-3.6201,-3.6201,-3.6529,-3.7005,-3.7094,-3.7316,-3.7605,-3.7962,-3.8139,-3.815,-3.7872,-3.7833,-3.7735,-3.7002,-3.6993,-3.7092,-3.6615,-3.6492,-3.6492,-3.6492,-3.6492,-3.6492,-3.6492,-3.6492,-3.6492,-3.6492,-3.6492,-3.643,-3.6215,-3.6184,-3.6184,-3.6184,-3.6076,-3.6121,-3.6461,-3.6383,-3.6367,-3.6538,-3.6631,-3.6723,-3.6785,-3.6908,-3.7015,-3.7015,-3.709,-3.7121,-3.7044,-3.721,-3.73,-3.73,-3.7596,-3.7759,-3.7759,-3.7847,-3.7876,-3.7847,-3.7876,-3.7876,-3.7847,-3.7963,-3.7963,-3.7889,-3.7963,-3.7963,-3.7905,-3.7905,-3.7992,-3.8119,-3.8119,-3.8148,-3.8262,-3.9617,-3.9971,-4.0238,-4.049,-4.0503,-4.0517,-4.0574,-4.056,-4.0603,-4.093,-4.0944,-4.0944,-4.1015,-4.1184,-4.1241,-4.1128,-4.1213,-4.0886,-4.0095,-3.9698,-3.9136,-3.8354,-3.846,-3.8304,-3.7763,-3.7863,-3.7953,-3.7953,-3.8127,-3.8202,-3.8202,-3.8202,-3.8202,-3.8202,-3.8202,-3.8202,-3.8188,-3.781,-3.7665,-3.7622,-3.7215,-3.6925,-3.6707,-3.6707,-3.6707,-3.6707,-3.6707,-3.6997,-3.7367,-3.7546,-3.7846,-3.8247,-3.8441,-3.8569,-3.8592,-3.8201,-3.8275,-3.8317,-3.7494,-3.7584,-3.7738,-3.7061,-3.6892,-3.683,-3.6553,-3.6707,-3.6815,-3.6538,-3.6492,-3.6492,-3.6492,-3.6492,-3.6492,-3.6492,-3.6492,-3.6492,-3.6492,-3.6383,-3.6352,-3.6492,-3.6383,-3.6383,-3.6492,-3.6569,-3.6631,-3.6631,-3.677,-3.6877,-3.6816,-3.6923,-3.6969,-3.6862,-3.7044,-3.7119,-3.7119,-3.7315,-3.7494,-3.7612,-3.77,-3.773,-3.773,-3.773,-3.773,-3.773,-3.7788,-3.7788,-3.7759,-3.7788,-3.7788,-3.773,-3.773,-3.7759,-3.7817,-3.7817,-3.7847,-3.7918,-3.9394,-3.9645,-3.9777,-3.9394,-3.9305,-3.9438,-3.9865,-3.9557,-3.9513,-4.0172,-3.9922,-3.9774,-3.9966,-4.0343,-4.0616,-4.0616,-4.0816,-4.0562,-3.969,-3.9943,-3.9675,-3.8644,-3.8876,-3.8396,-3.7057,-3.7416,-3.7619,-3.7619,-3.7929,-3.8089,-3.8165,-3.8127,-3.8127,-3.8202,-3.8165,-3.8165,-3.8202,-3.8202,-3.8202,-3.8202,-3.8202,-3.7883,-3.7389,-3.7389,-3.7389,-3.7389,-3.7389,-3.7738,-3.8277,-3.8598,-3.9002,-3.9328,-3.9328,-3.9174,-3.8866,-3.8547,-3.8527,-3.8512,-3.8034,-3.822,-3.8381,-3.7721,-3.7598,-3.7445,-3.6676,-3.6969,-3.723,-3.6615,-3.6492,-3.6492,-3.6492,-3.6492,-3.6492,-3.6492,-3.6492,-3.6492,-3.6492,-3.6492,-3.6492,-3.6492,-3.6492,-3.6492,-3.6492,-3.6492,-3.6492,-3.6492,-3.66,-3.6631,-3.6523,-3.6785,-3.6877,-3.6693,-3.6862,-3.6969,-3.6969,-3.6984,-3.7151,-3.748,-3.748,-3.748,-3.751,-3.751,-3.751,-3.751,-3.7628,-3.7612,-3.751,-3.7612,-3.7612,-3.751,-3.751,-3.7553,-3.7671,-3.7671,-3.7759,-3.7876,-3.9305,-3.9394,-3.9438,-3.9305,-3.9305,-3.9349,-3.9438,-3.9394,-3.9438,-3.976,-3.973,-3.97,-3.9774,-3.9862,-3.9906,-3.9906,-4.0298,-4.0488,-4.0419,-4.0391,-4.0039,-3.9313,-3.8806,-3.8208,-3.7399,-3.7478,-3.7627,-3.7814,-3.7296,-3.725,-3.7725,-3.7404,-3.7596,-3.8202,-3.7877,-3.7915,-3.8202,-3.8202,-3.8202,-3.8202,-3.8202,-3.813,-3.8014,-3.8014,-3.8014,-3.8014,-3.8014,-3.8086,-3.8202,-3.8315,-3.8612,-3.8929,-3.8929,-3.9094,-3.9227,-3.8845,-3.9065,-3.9244,-3.8297,-3.8456,-3.875,-3.8183,-3.843,-3.8402,-3.686,-3.6599,-3.6676,-3.6522,-3.6492,-3.6492,-3.6492,-3.6492,-3.6492,-3.6492,-3.6492,-3.6492,-3.6492,-3.6492,-3.6492,-3.6492,-3.6492,-3.6492,-3.6492,-3.6492,-3.6492,-3.6492,-3.6523,-3.6523,-3.6492,-3.6554,-3.6585,-3.6538,-3.6708,-3.6754,-3.6754,-3.6908,-3.7075,-3.7254,-3.7254,-3.7359,-3.751,-3.751,-3.751,-3.751,-3.7539,-3.7539,-3.751,-3.7539,-3.7539,-3.751,-3.751,-3.751,-3.7524,-3.7524,-3.7569,-3.7599,-3.9305,-3.9305,-3.9305,-3.9305,-3.9305,-3.9305,-3.9305,-3.9305,-3.9349,-3.9496,-3.9496,-3.9496,-3.9496,-3.9496,-3.9554,-3.97,-3.992,-4.0225,-4.0544,-4.0328,-4.0059,-3.9755,-3.9136,-3.8637,-3.8168,-3.7702,-3.7507,-3.7675,-3.7203,-3.7137,-3.7532,-3.708,-3.7134,-3.7634,-3.7419,-3.7534,-3.7901,-3.7901,-3.8014,-3.8202,-3.8202,-3.8202,-3.8202,-3.8202,-3.8202,-3.8202,-3.8202,-3.8202,-3.8202,-3.8202,-3.8352,-3.8523,-3.8523,-3.8782,-3.9038,-3.876,-3.909,-3.9412,-3.8868,-3.9078,-3.9347,-3.8803,-3.903,-3.8913,-3.7322,-3.7215,-3.7277,-3.663,-3.6492,-3.6492,-3.6492,-3.6492,-3.6492,-3.6492,-3.6492,-3.6492,-3.6492,-3.6492,-3.6492,-3.6492,-3.6492,-3.6492,-3.6492,-3.6492,-3.6492,-3.6492,-3.6492,-3.6492,-3.6492,-3.6492,-3.6492,-3.6492,-3.6585,-3.66,-3.66,-3.6708,-3.6831,-3.6952,-3.7059,-3.7165,-3.7271,-3.7345,-3.7359,-3.7359,-3.7359,-3.7359,-3.7359,-3.7359,-3.7359,-3.7359,-3.7464,-3.751,-3.751,-3.751,-3.751,-3.751,-3.9305,-3.9305,-3.9305,-3.9305,-3.9305,-3.9305,-3.9305,-3.9305,-3.9305,-3.9305,-3.9305,-3.9305,-3.9305,-3.9305,-3.9407,-3.97,-3.97,-3.9876,-4.0298,-4.0097,-3.9996,-3.9996,-3.9557,-3.9145,-3.8908,-3.802,-3.7488,-3.7437,-3.7206,-3.7195,-3.7467,-3.6912,-3.6793,-3.7015,-3.6878,-3.7017,-3.738,-3.7495,-3.7725,-3.8052,-3.8165,-3.8202,-3.8202,-3.8202,-3.8202,-3.8202,-3.8202,-3.8202,-3.8202,-3.8202,-3.8202,-3.8202,-3.8202,-3.8427,-3.8671,-3.8516,-3.8833,-3.9235,-3.9265,-3.9517,-3.9703,-3.9336,-3.9337,-3.9134,-3.796,-3.7995,-3.795,-3.6829,-3.6475,-3.6352,-3.632,-3.632,-3.632,-3.6383,-3.6429,-3.6429,-3.6492,-3.6492,-3.6492,-3.6492,-3.6492,-3.6492,-3.6492,-3.6492,-3.6492,-3.6492,-3.6492,-3.6492,-3.6492,-3.6492,-3.6492,-3.6492,-3.6492,-3.6492,-3.6492,-3.6492,-3.6554,-3.6662,-3.6831,-3.6938,-3.6999,-3.7119,-3.7164,-3.7164,-3.7164,-3.7164,-3.7164,-3.7164,-3.7164,-3.7164,-3.7345,-3.7421,-3.7421,-3.7421,-3.7421,-3.7435,-3.9305,-3.9305,-3.9305,-3.9305,-3.9305,-3.9305,-3.9305,-3.9305,-3.9305,-3.9305,-3.9305,-3.9305,-3.9305,-3.9305,-3.9407,-3.97,-3.97,-3.9818,-4.0053,-3.9996,-3.9996,-3.9996,-3.9557,-3.9145,-3.8908,-3.8347,-3.7952,-3.7647,-3.696,-3.6869,-3.7394,-3.6698,-3.6634,-3.715,-3.6464,-3.6256,-3.6506,-3.7095,-3.738,-3.7457,-3.7976,-3.8202,-3.8202,-3.8202,-3.8202,-3.8202,-3.8202,-3.8202,-3.8202,-3.8202,-3.8202,-3.8202,-3.8202,-3.824,-3.8277,-3.824,-3.8441,-3.8627,-3.8627,-3.8811,-3.9023,-3.929,-3.926,-3.9065,-3.8631,-3.7937,-3.7296,-3.6999,-3.6321,-3.5752,-3.5576,-3.5544,-3.5672,-3.6005,-3.6068,-3.6163,-3.646,-3.6492,-3.6492,-3.6492,-3.6492,-3.6492,-3.6492,-3.6492,-3.6492,-3.6492,-3.6492,-3.6492,-3.6492,-3.6492,-3.6492,-3.6492,-3.6492,-3.6492,-3.6492,-3.6492,-3.6523,-3.6523,-3.6554,-3.6724,-3.7015,-3.703,-3.703,-3.703,-3.703,-3.703,-3.703,-3.703,-3.703,-3.703,-3.7076,-3.7076,-3.7076,-3.7076,-3.7135,-3.7254,-3.9305,-3.9305,-3.9305,-3.9305,-3.9305,-3.9305,-3.9305,-3.9305,-3.9305,-3.9305,-3.9305,-3.9305,-3.9305,-3.9305,-3.9349,-3.9452,-3.9496,-3.9584,-3.9818,-3.9703,-3.9659,-3.9818,-3.9336,-3.9011,-3.8908,-3.8427,-3.814,-3.7978,-3.7174,-3.6959,-3.7327,-3.6681,-3.6614,-3.6954,-3.6276,-3.6116,-3.6483,-3.6528,-3.6744,-3.7017,-3.761,-3.7725,-3.7558,-3.7801,-3.7877,-3.7915,-3.8254,-3.8366,-3.8389,-3.8501,-3.8464,-3.8366,-3.8366,-3.8277,-3.8202,-3.8329,-3.8366,-3.8389,-3.8612,-3.8723,-3.887,-3.9141,-3.925,-3.9233,-3.9127,-3.8387,-3.759,-3.7278,-3.6628,-3.6049,-3.5968,-3.5832,-3.5799,-3.5973,-3.6163,-3.632,-3.6492,-3.6492,-3.6492,-3.6492,-3.6492,-3.6492,-3.6492,-3.6492,-3.6492,-3.6492,-3.6492,-3.6492,-3.6492,-3.6492,-3.6492,-3.6492,-3.6492,-3.6492,-3.6492,-3.6492,-3.6492,-3.6492,-3.6492,-3.6585,-3.6708,-3.68,-3.6831,-3.6831,-3.6831,-3.6831,-3.6831,-3.6831,-3.6831,-3.6831,-3.6969,-3.7015,-3.6999,-3.7075,-3.7105,-3.7105]},{"header":{"parameterUnit":"m.s-1","parameterCategory":1,"la1":30.6,"la2":28.766,"lo1":-90.7593,"lo2":-88.6598,"dy":0.0162,"dx":0.0183,"nx":116,"ny":114,"refTime":"2024-03-16T18:00:00:Z","depth":0,"parameterNumber":3,"parameterNumberName":"V-component_of_WINDS"},"data":[0.0,0.0,0.0,0.0,0.0,0.0,0.0,0.0,0.0,0.0,0.0,0.0,0.0,0.0,0.0,0.0,0.0,0.0,0.0,0.0,0.0,0.0,0.0,0.0,0.0,0.0,0.0,0.0,0.0,0.0,0.0,0.0,0.0,0.0,0.0,0.0,0.0,0.0,0.0,0.0,0.0,0.0,0.0,0.0,0.0,0.0,0.0,0.0,0.0,0.0,0.0,0.0,0.0,0.0,0.0,0.0,0.0,0.0,0.0,0.0,0.0,0.0,0.0,0.0,0.0,0.0,0.0,0.0,0.0,0.0,0.0,0.0,0.0,0.0,0.0,0.0,0.0,0.0,0.0,0.0,0.0,0.0,0.0,0.0,0.0,0.0,0.0,0.0,0.0,0.0,0.0,0.0,0.0,0.0,0.0,0.0,0.0,0.0,0.0,0.0,0.0,0.0,0.0,0.0,0.0,0.0,0.0,0.0,0.0,0.0,0.0,0.0,0.0,0.0,0.0,0.0,0.0,0.0,0.0,0.0,0.0,0.0,0.0,0.0,0.0,0.0,0.0,0.0,0.0,0.0,0.0,0.0,0.0,0.0,0.0,0.0,0.0,0.0,0.0,0.0,0.0,0.0,0.0,0.0,0.0,0.0,0.0,0.0,0.0,0.0,0.0,0.0,0.0,0.0,0.0,0.0,0.0,0.0,0.0,0.0,0.0,0.0,0.0,0.0,0.0,0.0,0.0,0.0,0.0,0.0,0.0,0.0,0.0,0.0,0.0,0.0,0.0,0.0,0.0,0.0,0.0,0.0,0.0,0.0,0.0,0.0,0.0,0.0,0.0,0.0,0.0,0.0,0.0,0.0,0.0,0.0,0.0,0.0,0.0,0.0,0.0,0.0,0.0,0.0,0.0,0.0,0.0,0.0,0.0,0.0,0.0,0.0,0.0,0.0,0.0,0.0,0.0,0.0,0.0,0.0,0.0,0.0,0.0,0.0,0.0,0.0,0.0,0.0,0.0,0.0,0.0,0.0,0.0,0.0,0.0,0.0,0.0,0.0,0.0,0.0,0.0,0.0,0.0,0.0,0.0,0.0,0.0,0.0,0.0,0.0,0.0,0.0,0.0,0.0,0.0,0.0,0.0,0.0,0.0,0.0,0.0,0.0,0.0,0.0,0.0,0.0,0.0,0.0,0.0,0.0,0.0,0.0,0.0,0.0,0.0,0.0,0.0,0.0,0.0,0.0,0.0,0.0,0.0,0.0,0.0,0.0,0.0,0.0,0.0,0.0,0.0,0.0,0.0,0.0,0.0,0.0,0.0,0.0,0.0,0.0,0.0,0.0,0.0,0.0,0.0,0.0,0.0,0.0,0.0,0.0,0.0,0.0,0.0,0.0,0.0,0.0,0.0,0.0,0.0,0.0,0.0,0.0,0.0,0.0,0.0,0.0,0.0,0.0,0.0,0.0,0.0,0.0,0.0,0.0,0.0,0.0,0.0,0.0,0.0,0.0,0.0,0.0,0.0,0.0,0.0,0.0,0.0,0.0,0.0,0.0,0.0,0.0,0.0,0.0,0.0,0.0,0.0,0.0,0.0,0.0,0.0,0.0,0.0,0.0,0.0,0.0,0.0,0.0,0.0,0.0,0.0,0.0,0.0,0.0,0.0,0.0,0.0,0.0,0.0,0.0,0.0,0.0,0.0,0.0,0.0,0.0,0.0,0.0,0.0,0.0,0.0,0.0,0.0,0.0,0.0,0.0,0.0,0.0,0.0,0.0,0.0,0.0,0.0,0.0,0.0,0.0,0.0,0.0,0.0,0.0,0.0,0.0,0.0,0.0,0.0,0.0,0.0,0.0,0.0,0.0,0.0,0.0,0.0,0.0,0.0,0.0,0.0,0.0,0.0,0.0,0.0,0.0,0.0,0.0,0.0,0.0,0.0,0.0,0.0,0.0,0.0,0.0,0.0,0.0,0.0,0.0,0.0,0.0,0.0,0.0,0.0,0.0,0.0,0.0,0.0,0.0,0.0,0.0,0.0,0.0,0.0,0.0,0.0,0.0,0.0,0.0,0.0,0.0,0.0,0.0,0.0,0.0,0.0,0.0,0.0,0.0,0.0,0.0,0.0,0.0,0.0,0.0,0.0,0.0,0.0,0.0,0.0,0.0,0.0,0.0,0.0,0.0,0.0,0.0,0.0,0.0,0.0,0.0,0.0,0.0,0.0,0.0,0.0,0.0,0.0,0.0,0.0,0.0,0.0,0.0,0.0,0.0,0.0,0.0,0.0,0.0,0.0,0.0,0.0,0.0,0.0,0.0,0.0,0.0,0.0,0.0,0.0,0.0,0.0,0.0,0.0,0.0,0.0,0.0,0.0,0.0,0.0,0.0,0.0,0.0,0.0,0.0,0.0,0.0,0.0,0.0,0.0,0.0,0.0,0.0,0.0,0.0,0.0,0.0,0.0,0.0,0.0,0.0,0.0,0.0,0.0,0.0,0.0,0.0,0.0,0.0,0.0,0.0,0.0,0.0,0.0,0.0,0.0,0.0,0.0,0.0,0.0,0.0,0.0,0.0,0.0,0.0,0.0,0.0,0.0,0.0,0.0,0.0,0.0,0.0,0.0,0.0,0.0,0.0,0.0,0.0,0.0,0.0,0.0,0.0,0.0,0.0,0.0,0.0,0.0,0.0,0.0,0.0,0.0,0.0,0.0,0.0,0.0,0.0,0.0,0.0,0.0,0.0,0.0,0.0,0.0,0.0,0.0,0.0,0.0,0.0,0.0,0.0,0.0,0.0,0.0,0.0,0.0,0.0,0.0,0.0,0.0,0.0,0.0,0.0,0.0,0.0,0.0,0.0,0.0,0.0,0.0,0.0,0.0,0.0,0.0,0.0,0.0,0.0,0.0,0.0,0.0,0.0,0.0,0.0,0.0,0.0,0.0,0.0,0.0,0.0,0.0,0.0,0.0,0.0,0.0,0.0,0.0,0.0,0.0,0.0,0.0,0.0,0.0,0.0,0.0,0.0,0.0,0.0,0.0,0.0,0.0,0.0,0.0,0.0,0.0,0.0,0.0,0.0,0.0,0.0,0.0,0.0,0.0,0.0,0.0,0.0,0.0,0.0,0.0,0.0,0.0,0.0,0.0,0.0,0.0,0.0,0.0,0.0,0.0,0.0,0.0,0.0,0.0,0.0,0.0,0.0,0.0,0.0,0.0,0.0,0.0,0.0,0.0,0.0,0.0,0.0,0.0,0.0,0.0,0.0,0.0,0.0,0.0,0.0,0.0,0.0,0.0,0.0,0.0,0.0,0.0,0.0,0.0,0.0,0.0,0.0,0.0,0.0,0.0,0.0,0.0,0.0,0.0,0.0,0.0,0.0,0.0,0.0,0.0,0.0,0.0,0.0,0.0,0.0,0.0,0.0,0.0,0.0,0.0,0.0,0.0,0.0,0.0,0.0,0.0,0.0,0.0,0.0,0.0,0.0,0.0,0.0,0.0,0.0,0.0,0.0,0.0,0.0,0.0,0.0,0.0,0.0,0.0,0.0,0.0,0.0,0.0,0.0,0.0,0.0,0.0,0.0,0.0,0.0,0.0,0.0,0.0,0.0,0.0,0.0,0.0,0.0,0.0,0.0,0.0,0.0,0.0,0.0,0.0,0.0,0.0,0.0,0.0,0.0,0.0,0.0,0.0,0.0,0.0,0.0,0.0,0.0,0.0,0.0,0.0,0.0,0.0,0.0,0.0,0.0,0.0,0.0,0.0,0.0,0.0,0.0,0.0,0.0,0.0,0.0,0.0,0.0,0.0,0.0,0.0,0.0,0.0,0.0,0.0,0.0,0.0,0.0,0.0,0.0,0.0,0.0,0.0,0.0,0.0,0.0,0.0,0.0,0.0,0.0,0.0,0.0,0.0,0.0,0.0,0.0,0.0,0.0,0.0,0.0,0.0,0.0,0.0,0.0,0.0,0.0,0.0,0.0,0.0,0.0,0.0,0.0,0.0,0.0,0.0,0.0,0.0,0.0,0.0,0.0,0.0,0.0,0.0,0.0,0.0,0.0,0.0,0.0,0.0,0.0,0.0,0.0,0.0,0.0,0.0,0.0,0.0,0.0,0.0,0.0,0.0,0.0,0.0,0.0,0.0,0.0,0.0,0.0,0.0,0.0,0.0,0.0,0.0,0.0,0.0,0.0,0.0,0.0,0.0,0.0,0.0,0.0,0.0,0.0,0.0,0.0,0.0,0.0,0.0,0.0,0.0,0.0,0.0,0.0,0.0,0.0,0.0,0.0,0.0,0.0,0.0,0.0,0.0,0.0,0.0,0.0,0.0,0.0,0.0,0.0,0.0,0.0,0.0,0.0,0.0,0.0,0.0,0.0,0.0,0.0,0.0,0.0,0.0,0.0,0.0,0.0,0.0,0.0,0.0,0.0,0.0,0.0,0.0,0.0,0.0,0.0,0.0,0.0,0.0,0.0,0.0,0.0,0.0,0.0,0.0,0.0,0.0,0.0,0.0,0.0,0.0,0.0,0.0,0.0,0.0,0.0,0.0,0.0,0.0,0.0,0.0,0.0,0.0,0.0,0.0,0.0,0.0,0.0,0.0,0.0,0.0,0.0,0.0,0.0,0.0,0.0,0.0,0.0,0.0,0.0,0.0,0.0,0.0,0.0,0.0,0.0,0.0,0.0,0.0,0.0,0.0,0.0,0.0,0.0,0.0,0.0,0.0,0.0,0.0,0.0,0.0,0.0,0.0,0.0,0.0,0.0,0.0,0.0,0.0,0.0,0.0,0.0,0.0,0.0,0.0,0.0,0.0,0.0,0.0,0.0,0.0,0.0,0.0,0.0,0.0,0.0,0.0,0.0,0.0,0.0,0.0,0.0,0.0,0.0,0.0,0.0,0.0,0.0,0.0,0.0,0.0,0.0,0.0,0.0,0.0,0.0,0.0,0.0,0.0,0.0,0.0,0.0,0.0,0.0,0.0,0.0,0.0,0.0,0.0,0.0,0.0,0.0,0.0,0.0,0.0,0.0,0.0,0.0,0.0,0.0,0.0,0.0,0.0,0.0,0.0,0.0,0.0,0.0,0.0,0.0,0.0,0.0,0.0,0.0,0.0,0.0,0.0,0.0,0.0,0.0,0.0,0.0,0.0,0.0,0.0,0.0,0.0,0.0,0.0,0.0,0.0,0.0,0.0,0.0,0.0,0.0,0.0,0.0,0.0,0.0,0.0,0.0,0.0,0.0,0.0,0.0,0.0,0.0,0.0,0.0,0.0,0.0,0.0,0.0,0.0,0.0,0.0,0.0,0.0,0.0,0.0,0.0,0.0,0.0,0.0,0.0,0.0,0.0,0.0,0.0,0.0,0.0,0.0,0.0,0.0,0.0,0.0,0.0,0.0,0.0,0.0,0.0,0.0,0.0,0.0,0.0,0.0,0.0,0.0,0.0,0.0,0.0,0.0,0.0,0.0,0.0,0.0,0.0,0.0,0.0,0.0,0.0,0.0,0.0,0.0,0.0,0.0,0.0,0.0,0.0,0.0,0.0,0.0,0.0,0.0,0.0,0.0,0.0,0.0,0.0,0.0,0.0,0.0,0.0,0.0,0.0,0.0,0.0,0.0,0.0,0.0,0.0,0.0,0.0,0.0,0.0,0.0,0.0,0.0,0.0,0.0,0.0,0.0,0.0,0.0,0.0,0.0,0.0,0.0,0.0,0.0,0.0,0.0,0.0,0.0,0.0,0.0,0.0,0.0,0.0,0.0,0.0,0.0,0.0,0.0,0.0,0.0,0.0,0.0,0.0,0.0,0.0,0.0,0.0,0.0,0.0,0.0,0.0,0.0,0.0,0.0,0.0,0.0,0.0,0.0,0.0,0.0,0.0,0.0,0.0,0.0,0.0,0.0,0.0,0.0,0.0,0.0,0.0,0.0,0.0,0.0,0.0,0.0,0.0,0.0,0.0,0.0,0.0,0.0,0.0,0.0,0.0,0.0,0.0,0.0,0.0,0.0,0.0,0.0,0.0,0.0,0.0,0.0,0.0,0.0,0.0,0.0,0.0,0.0,0.0,0.0,0.0,0.0,0.0,0.0,0.0,0.0,0.0,0.0,0.0,-0.568,-0.5825,0.0,0.0,0.0,0.0,0.0,0.0,0.0,0.0,0.0,0.0,0.0,0.0,0.0,0.0,0.0,0.0,0.0,0.0,0.0,0.0,0.0,0.0,0.0,0.0,0.0,0.0,0.0,0.0,0.0,0.0,0.0,0.0,0.0,0.0,0.4294,0.4166,0.4178,0.4295,0.403,0.3999,0.419,0.4257,0.4276,0.4203,0.0,0.0,0.0,0.0,0.0,0.0,0.0,0.0,0.0,0.0,0.0,0.0,0.0,0.0,0.0,0.0,0.0,0.0,0.0,0.0,0.0,0.0,0.0,0.0,0.0,0.0,0.0,0.0,0.0,0.0,0.0,0.0,0.0,0.0,0.0,0.0,0.0,0.0,0.0,0.0,0.0,0.0,0.0,0.0,0.0,0.0,0.0,0.0,0.0,0.0,0.0,0.0,0.0,0.0,0.0,0.0,0.0,0.0,0.0,0.0,0.0,0.0,0.0,0.0,0.0,0.0,0.0,0.0,0.0,0.0,-0.5685,-0.5754,0.0,0.0,0.0,0.0,0.0,0.0,0.0,0.0,0.0,0.0,0.0,0.0,0.0,0.0,0.0,0.0,0.0,0.0,0.0,0.0,0.0,0.0,0.0,0.4648,0.4573,0.441,0.4388,0.4375,0.4347,0.4343,0.4321,0.4276,0.4254,0.4248,0.4186,0.4013,0.4021,0.4225,0.4031,0.4058,0.4298,0.4248,0.4181,0.4093,0.0,0.0,0.0,0.0,0.0,0.0,0.0,0.0,0.0,0.0,0.0,0.0,0.0,0.0,0.0,0.0,0.0,0.0,0.0,0.0,0.0,0.0,0.0,0.0,0.0,0.0,0.0,0.0,0.0,0.0,0.0,0.0,0.0,0.0,0.0,0.0,0.0,0.0,0.0,0.0,0.0,0.0,0.0,0.0,0.0,0.0,0.0,0.0,0.0,0.0,0.0,0.0,0.0,0.0,0.0,0.0,0.0,0.0,0.0,0.0,0.0,0.0,0.0,0.0,-0.5654,-0.573,-0.5708,-0.5922,-0.5947,-0.5814,-0.5615,-0.5539,-0.5584,-0.5681,0.0,0.0,0.0,0.0,0.0,0.0,0.0,0.0,0.0,0.0,0.0,0.0,0.0,0.0,0.0,0.0,0.0,0.0,0.0,0.0,0.0,0.4854,0.4826,0.4743,0.4735,0.467,0.4496,0.4465,0.4372,0.414,0.4121,0.4015,0.378,0.3986,0.4043,0.3948,0.403,0.4165,0.4297,0.4047,0.3997,0.4103,0.4216,0.0,0.0,0.0,0.0,0.0,0.0,0.0,0.0,0.0,0.0,0.0,0.0,0.0,0.0,0.0,0.0,0.0,0.0,0.0,0.0,0.0,0.0,0.0,0.0,0.0,0.0,0.0,0.0,0.0,0.0,0.0,0.0,0.0,0.0,0.0,0.0,0.0,0.0,0.0,0.0,0.0,0.0,0.0,-0.3259,-0.309,0.0,0.0,0.0,0.0,0.0,0.0,0.0,0.0,0.0,0.0,0.0,0.0,0.0,-0.5187,-0.4933,-0.5628,-0.5856,-0.5591,-0.5906,-0.6041,-0.6041,-0.6062,-0.6181,-0.6297,-0.6096,0.0,-0.554,-0.5714,0.0,0.0,0.0,0.0,0.0,0.0,0.0,0.0,0.0,0.0,0.0,0.0,0.0,0.0,0.0,0.0,0.0,0.0,0.0,0.0,0.0,0.4685,0.4636,0.4535,0.4523,0.4462,0.4282,0.4275,0.4182,0.3997,0.3921,0.385,0.3813,0.3778,0.3835,0.4009,0.4301,0.4479,0.4531,0.4387,0.4368,0.4446,0.4515,0.4341,0.4089,0.4106,0.0,0.0,0.0,0.0,0.0,0.0,0.0,0.0,0.0,0.0,0.0,0.0,0.0,0.0,0.0,0.0,0.0,0.0,0.0,0.0,0.0,0.0,0.0,0.0,0.0,0.0,0.0,0.0,0.0,0.0,0.0,0.0,0.0,0.0,0.0,0.0,0.0,0.0,0.0,-0.3164,-0.3499,-0.3347,-0.3502,-0.363,0.0,0.0,0.0,0.0,0.0,0.0,0.0,0.0,0.0,-0.4613,-0.5174,-0.5412,-0.5297,-0.5931,-0.6117,-0.5835,-0.6088,-0.6099,-0.5871,-0.6238,-0.6319,-0.6248,-0.6379,-0.622,-0.589,-0.5958,-0.5916,-0.5905,0.0,0.0,0.0,0.0,-0.6335,-0.6147,0.0,0.0,0.0,0.0,0.0,0.0,0.0,0.0,0.0,0.0,0.0,0.0,0.4542,0.453,0.4525,0.4449,0.4434,0.4374,0.4233,0.4187,0.4092,0.3904,0.3786,0.3751,0.3796,0.3704,0.3865,0.4315,0.4583,0.4766,0.4827,0.4797,0.4783,0.4783,0.4783,0.4512,0.4107,0.4145,0.4065,0.0,0.0,0.0,0.0,0.0,0.0,0.0,0.0,0.0,0.0,0.0,0.0,0.0,0.0,0.0,0.0,0.0,0.0,0.0,0.0,0.0,0.0,0.0,0.0,0.0,0.0,0.0,0.0,0.0,0.0,0.0,0.0,0.0,0.0,0.0,0.0,0.0,0.0,-0.3288,-0.3531,-0.3559,-0.3634,-0.37,0.0,0.0,0.0,0.0,0.0,0.0,-0.4289,-0.4389,-0.4551,-0.4763,-0.5221,-0.5426,-0.5432,-0.5918,-0.6049,-0.5816,-0.6134,-0.6155,-0.5881,-0.6431,-0.6595,-0.6408,-0.6678,-0.6646,-0.6447,-0.6174,-0.6019,-0.5972,-0.6151,-0.6145,-0.6085,-0.6566,-0.6522,-0.6274,0.0,0.0,0.0,0.0,0.0,0.0,0.0,0.0,0.0,0.0,0.0,0.4604,0.46,0.4664,0.4699,0.476,0.4773,0.471,0.4587,0.4444,0.4254,0.3917,0.3824,0.3713,0.3527,0.3885,0.4348,0.4972,0.4836,0.4939,0.5156,0.505,0.4999,0.4999,0.4999,0.4855,0.4638,0.4405,0.4202,0.4061,0.0,0.0,0.0,0.0,0.0,0.0,0.0,0.0,0.0,0.0,0.0,0.0,0.0,0.0,0.0,0.0,0.0,0.0,0.0,0.0,0.0,0.0,0.0,0.0,0.0,0.0,0.0,0.0,0.0,0.0,0.0,0.0,0.0,0.0,0.0,0.0,0.0,0.0,0.0,-0.339,-0.3421,0.0,0.0,0.0,0.0,-0.3677,-0.3808,-0.4083,-0.4554,-0.4601,-0.4789,-0.5264,-0.5111,-0.5005,-0.4952,-0.5353,-0.5425,-0.5242,-0.5965,-0.629,-0.629,-0.677,-0.7055,-0.7158,-0.7047,-0.7038,-0.7086,-0.6253,-0.5879,-0.5838,-0.6173,-0.6216,-0.6169,-0.6839,-0.6655,-0.6169,0.0,0.0,0.0,0.0,0.0,0.0,0.0,0.0,0.4517,0.4493,0.4473,0.446,0.4412,0.4516,0.4566,0.4602,0.4613,0.4593,0.4546,0.4234,0.4087,0.4162,0.3876,0.3832,0.402,0.4359,0.4691,0.5018,0.5127,0.5222,0.5344,0.5262,0.5243,0.5243,0.5243,0.5235,0.5133,0.4776,0.4485,0.4224,0.4096,0.3867,0.0,0.0,0.0,0.0,0.0,0.0,0.0,0.0,0.0,0.0,0.0,0.0,0.0,0.0,0.0,0.0,0.0,0.0,0.0,0.0,0.0,0.0,0.0,0.0,0.0,0.0,0.0,0.0,0.0,0.0,0.0,0.0,0.0,0.0,0.0,0.0,0.0,-0.3458,-0.3475,0.0,-0.3686,-0.369,-0.3732,-0.3934,-0.3911,-0.4167,-0.4818,-0.4728,-0.4781,-0.5051,-0.5258,-0.537,-0.5342,-0.5934,-0.6182,-0.6182,-0.6419,-0.6577,-0.6616,-0.7046,-0.7277,-0.7356,-0.7556,-0.7612,-0.7558,-0.6956,-0.6663,-0.6596,-0.6643,-0.6582,-0.6472,-0.6831,-0.6751,-0.6436,0.0,0.0,0.0,0.0,0.0,0.0,0.0,0.0,0.4424,0.4396,0.437,0.4371,0.4397,0.4475,0.4503,0.4555,0.4566,0.4547,0.4506,0.4213,0.4081,0.4232,0.4025,0.4096,0.4448,0.472,0.4976,0.5219,0.5415,0.5534,0.5654,0.5654,0.5697,0.5782,0.561,0.5612,0.5599,0.5195,0.4831,0.4531,0.4406,0.4145,0.3816,0.0,0.0,0.0,0.0,0.0,0.0,0.0,0.0,0.0,0.0,0.0,0.0,0.0,0.0,0.0,0.0,0.0,0.0,0.0,0.0,0.0,0.0,0.0,0.0,0.0,0.0,0.0,0.0,0.0,0.0,0.0,0.0,0.0,0.0,-0.292,-0.3334,-0.3469,-0.3506,-0.3585,-0.3777,-0.3702,-0.3803,-0.4169,-0.4099,-0.4365,-0.5165,-0.4993,-0.4968,-0.5164,-0.5406,-0.5533,-0.5533,-0.615,-0.645,-0.6491,-0.6778,-0.6943,-0.703,-0.7435,-0.76,-0.7596,-0.7888,-0.7951,-0.7837,-0.7597,-0.7409,-0.731,-0.7124,-0.6937,-0.6861,-0.7101,-0.7089,-0.6894,0.0,0.0,0.0,0.0,0.0,0.0,0.0,0.4294,0.4293,0.4209,0.4281,0.4405,0.4584,0.4537,0.4558,0.4679,0.469,0.4638,0.452,0.4363,0.4246,0.414,0.4259,0.4493,0.4812,0.4938,0.5227,0.5694,0.5694,0.5858,0.6086,0.6081,0.6222,0.6452,0.61,0.598,0.6086,0.5695,0.5313,0.5007,0.4635,0.4451,0.4284,0.0,0.0,0.0,0.0,0.0,0.0,0.0,0.0,0.0,0.0,0.0,0.0,0.0,0.0,0.0,0.0,0.0,0.0,0.0,0.0,0.0,0.0,0.0,0.0,0.0,0.0,0.0,0.0,0.0,0.0,0.0,0.0,0.0,-0.172,-0.2583,-0.3268,-0.3478,-0.352,-0.3581,-0.3764,-0.3638,-0.3766,-0.4375,-0.4375,-0.4716,-0.5565,-0.5371,-0.5371,-0.5705,-0.5502,-0.5416,-0.5416,-0.5838,-0.6091,-0.6133,-0.6954,-0.7364,-0.7405,-0.7781,-0.7987,-0.7987,-0.7987,-0.7991,-0.7987,-0.7983,-0.7979,-0.7951,-0.7504,-0.733,-0.7365,-0.7686,-0.7695,-0.7454,0.0,0.0,0.0,0.0,0.0,0.0,0.0,0.4357,0.4473,0.4372,0.457,0.4735,0.4728,0.4758,0.4762,0.4723,0.469,0.4676,0.464,0.433,0.4268,0.4531,0.4787,0.5072,0.5305,0.5432,0.5597,0.5855,0.5855,0.5934,0.6083,0.5994,0.6046,0.6225,0.6098,0.6065,0.6114,0.5989,0.5755,0.5454,0.5048,0.4743,0.4566,0.0,0.0,0.0,0.0,0.0,0.0,0.0,0.0,0.0,0.0,0.0,0.0,0.0,0.0,0.0,0.0,0.0,0.0,0.0,0.0,0.0,0.0,0.0,0.0,0.0,0.0,0.0,0.0,0.0,0.0,0.0,-0.0781,-0.1409,-0.169,-0.2426,-0.3013,-0.3329,-0.357,-0.3757,-0.3806,-0.3835,-0.4101,-0.4737,-0.4834,-0.5195,-0.5924,-0.5717,-0.5587,-0.5707,-0.554,-0.5456,-0.5456,-0.5675,-0.5979,-0.6322,-0.6579,-0.684,-0.7191,-0.7277,-0.7364,-0.7364,-0.7364,-0.7537,-0.7833,-0.7754,-0.7916,-0.8208,-0.7905,-0.776,-0.7691,-0.7876,-0.7922,-0.7822,0.0,0.0,0.0,0.0,0.0,0.0,0.0,0.4325,0.4498,0.4437,0.4641,0.4834,0.498,0.493,0.4873,0.4798,0.482,0.4777,0.4621,0.4462,0.448,0.0,0.0,0.5377,0.5578,0.5699,0.5888,0.6056,0.6056,0.6116,0.623,0.6159,0.6213,0.6378,0.6232,0.6303,0.648,0.6236,0.6062,0.598,0.5636,0.529,0.4966,0.4798,0.4692,0.4628,0.434,0.4455,0.4682,0.4264,0.0,0.0,0.0,0.0,0.0,0.0,0.0,0.0,0.0,0.0,0.0,0.0,0.0,0.0,0.0,0.0,0.0,0.0,0.0,0.0,0.0,0.0,0.0,0.0,-0.0595,-0.1188,-0.1476,-0.244,-0.3196,-0.3484,-0.372,-0.3877,-0.3877,-0.4138,-0.4511,-0.5069,-0.5332,-0.5692,-0.6288,-0.609,-0.5992,-0.5992,-0.5846,-0.5755,-0.5755,-0.5916,-0.6124,-0.6384,-0.6605,-0.683,-0.7095,-0.7095,-0.7183,-0.7272,-0.7272,-0.7496,-0.7845,-0.7654,-0.7703,0.0,0.0,0.0,0.0,0.0,-0.8089,-0.7959,0.0,0.0,0.0,0.0,0.0,0.0,0.0,0.4275,0.443,0.4505,0.4607,0.486,0.5258,0.5068,0.4931,0.4942,0.4965,0.4838,0.4547,0.469,0.0,0.5026,0.5276,0.5526,0.5723,0.5885,0.6056,0.6287,0.6322,0.6325,0.6387,0.6373,0.6526,0.6739,0.6432,0.6577,0.7,0.6441,0.6295,0.6458,0.6267,0.5886,0.5424,0.5365,0.5413,0.5453,0.5056,0.5176,0.5473,0.4909,0.0,0.0,0.0,0.0,0.0,0.0,0.0,0.0,0.0,0.0,0.0,0.0,0.0,0.0,0.0,0.0,0.0,0.0,0.0,0.0,0.0,0.0,0.0,0.0,-0.0334,-0.0787,-0.1266,-0.2575,-0.3525,-0.3714,-0.3905,-0.4008,-0.4008,-0.4395,-0.4863,-0.5409,-0.5718,-0.6125,-0.6645,-0.6543,0.0,0.0,0.0,-0.6127,-0.6083,-0.6254,-0.6343,-0.6343,-0.6741,-0.6962,-0.6918,-0.6918,-0.7051,-0.7312,-0.7224,-0.7404,-0.772,-0.7448,-0.7401,-0.7504,-0.8034,-0.8292,-0.8334,-0.8292,-0.8205,-0.8031,0.0,0.0,0.0,0.0,0.0,0.0,0.0,0.4373,0.4535,0.4505,0.4932,0.5273,0.5292,0.5126,0.5009,0.5147,0.4913,0.4731,0.4657,0.0,0.516,0.5146,0.548,0.5773,0.6013,0.6135,0.6265,0.6404,0.6314,0.6325,0.6384,0.6344,0.6399,0.6487,0.6415,0.6451,0.6542,0.672,0.662,0.6364,0.6593,0.6239,0.5668,0.5732,0.5651,0.5488,0.5511,0.5679,0.5831,0.5451,0.5435,0.5513,0.5111,0.0,0.0,0.0,0.0,0.0,0.0,0.0,0.0,0.0,0.0,0.0,0.0,0.0,0.0,0.0,0.0,0.0,0.0,0.0,0.0,0.0,-0.0349,-0.0836,-0.1527,-0.2527,-0.3256,-0.3449,-0.3865,-0.4146,-0.4146,-0.4295,-0.4731,-0.5563,-0.5717,-0.6128,-0.6963,-0.682,-0.6704,-0.6704,-0.6476,-0.6257,-0.6083,-0.6127,-0.6038,-0.5819,0.0,0.0,-0.5952,-0.5816,-0.5861,-0.6041,-0.5633,-0.5941,-0.6653,-0.6479,-0.67,-0.7221,-0.7694,-0.8151,-0.8506,-0.8281,-0.8324,-0.8395,0.0,0.0,0.0,0.0,0.0,0.0,0.0,0.4486,0.4628,0.4378,0.4883,0.5275,0.5328,0.5228,0.5229,0.5397,0.5259,0.5218,0.0,0.5582,0.5713,0.5598,0.5901,0.6054,0.6083,0.626,0.638,0.6387,0.638,0.6382,0.6384,0.638,0.6382,0.6387,0.6387,0.6454,0.6541,0.6634,0.6609,0.6497,0.656,0.6386,0.6054,0.6131,0.6132,0.6153,0.6187,0.6311,0.6437,0.614,0.5966,0.5841,0.5542,0.5104,0.4671,0.0,0.0,0.0,0.0,0.0,0.0,0.0,0.0,0.0,0.0,0.0,0.0,0.0,0.0,-0.0264,-0.0035,0.0,0.0,0.0,-0.0163,-0.0584,-0.1448,-0.2175,-0.2843,-0.3382,-0.3919,-0.4192,-0.4062,-0.4321,-0.4835,-0.563,-0.5897,-0.6343,-0.7051,-0.701,-0.6966,-0.6966,-0.6745,-0.6571,-0.6438,-0.6216,-0.6041,-0.5908,-0.5641,-0.5599,-0.5688,-0.5508,-0.5628,-0.6,-0.5662,-0.5891,-0.6481,-0.6198,-0.6305,-0.6612,-0.6877,-0.7455,-0.8164,-0.8072,-0.8252,-0.8552,0.0,0.0,0.0,0.0,0.0,0.0,0.0,0.4576,0.4623,0.4304,0.4748,0.5168,0.5328,0.5296,0.5327,0.551,0.5651,0.0,0.0,0.6221,0.6288,0.6153,0.6454,0.6505,0.6228,0.6461,0.6487,0.6387,0.6387,0.6387,0.6387,0.6387,0.6376,0.6404,0.6404,0.6437,0.6568,0.65,0.6557,0.6691,0.6631,0.6573,0.6523,0.6472,0.6589,0.6804,0.6756,0.683,0.69,0.677,0.6405,0.5973,0.5884,0.5334,0.469,0.4642,0.421,0.0,0.0,0.0,0.0,0.0,0.0,0.0,0.0,-0.0158,-0.0224,-0.0203,-0.0206,-0.0176,-0.0038,0.0,0.0,0.0,0.0,-0.0305,-0.1136,-0.1817,-0.2448,-0.3152,-0.3813,-0.4123,-0.3901,-0.4304,-0.4837,-0.5497,-0.5985,-0.6485,-0.7005,-0.7068,-0.7109,-0.7139,-0.6982,-0.6805,-0.6745,-0.6388,-0.6132,-0.6023,-0.5639,-0.5494,-0.5586,-0.5382,-0.5557,-0.6051,-0.5947,-0.6003,-0.6224,-0.5989,-0.5905,-0.5905,-0.5905,-0.6523,-0.7408,-0.754,-0.794,-0.8388,0.0,0.0,0.0,0.0,0.0,0.0,0.0,0.0,0.4472,0.4539,0.488,0.5122,0.5131,0.5132,0.5192,0.5335,0.5891,0.0,0.6017,0.6589,0.6843,0.6615,0.7178,0.7211,0.6747,0.6954,0.6886,0.6387,0.6387,0.6387,0.6387,0.6387,0.6382,0.6287,0.6287,0.6268,0.6208,0.6792,0.6891,0.6748,0.7121,0.7232,0.7054,0.6716,0.6674,0.6817,0.6877,0.6812,0.6779,0.698,0.6574,0.599,0.5973,0.5436,0.4675,0.4169,0.3585,0.299,0.2391,0.1794,0.1366,0.1561,0.0975,0.0378,0.0,-0.0034,-0.0305,-0.0286,-0.0295,-0.0227,-0.0039,0.0,0.0,0.0,0.0,-0.0175,-0.0713,-0.161,-0.2238,-0.2325,-0.3314,-0.3946,-0.3903,-0.3946,-0.4302,-0.501,-0.5497,-0.6081,-0.67,-0.6991,-0.7204,-0.7343,-0.7169,-0.6936,-0.6612,-0.6566,-0.6262,-0.5722,-0.5619,-0.543,-0.5148,-0.4878,-0.4933,-0.5161,-0.5149,-0.5062,-0.4942,-0.5062,-0.5144,-0.5144,-0.5144,-0.5455,-0.603,-0.6691,-0.7316,-0.7852,0.0,0.0,0.0,0.0,0.0,0.0,0.0,0.0,0.0,0.4401,0.473,0.5019,0.5148,0.54,0.5548,0.5527,0.0,0.0,0.6578,0.7111,0.7319,0.7075,0.745,0.7458,0.7092,0.7369,0.7462,0.7217,0.7146,0.7083,0.7083,0.6936,0.6822,0.6706,0.6706,0.6633,0.6508,0.672,0.6803,0.6774,0.6885,0.691,0.6869,0.6722,0.6689,0.6759,0.6909,0.6886,0.0,0.0,0.66,0.5861,0.5642,0.5057,0.4296,0.3752,0.344,0.3012,0.2064,0.1474,0.1079,0.0774,0.0437,0.0169,0.0142,-0.0107,-0.0285,-0.0296,-0.0304,-0.0274,-0.0203,-0.0083,0.0,0.0,0.0,-0.0178,-0.0627,-0.121,-0.1613,-0.1705,-0.2423,-0.305,-0.3452,-0.3535,-0.3923,-0.4829,-0.4975,-0.5444,-0.6467,-0.6467,-0.6556,-0.6796,-0.674,-0.6645,-0.647,-0.6333,-0.6222,-0.6083,-0.5798,-0.559,-0.5452,-0.5174,-0.5104,-0.5198,-0.5398,-0.5344,-0.5055,-0.5269,-0.5151,-0.4872,-0.486,-0.4924,-0.5191,-0.5897,-0.6694,-0.7404,0.0,0.0,0.0,0.0,0.0,0.0,0.0,0.0,0.0,0.0,0.4692,0.4991,0.5154,0.5515,0.5699,0.0,0.0,0.0,0.0,0.7385,0.7589,0.748,0.7789,0.7824,0.7507,0.7806,0.7846,0.7705,0.7615,0.7566,0.7566,0.7373,0.7204,0.7079,0.7079,0.6998,0.6864,0.689,0.6925,0.696,0.6865,0.6886,0.6912,0.6616,0.6611,0.6709,0.6815,0.6777,0.0,0.0,0.6374,0.5525,0.528,0.4588,0.3768,0.3389,0.3171,0.2863,0.186,0.1353,0.0957,0.0314,0.0071,0.0,0.0,-0.0111,-0.0223,-0.0228,-0.0273,-0.0281,-0.0209,-0.0129,-0.0044,0.0,0.0,-0.0135,-0.0449,-0.0807,-0.1031,-0.1211,-0.166,-0.2153,-0.2644,-0.2998,-0.3528,-0.4393,-0.4386,-0.4776,-0.5745,-0.5795,-0.5905,-0.6124,-0.6236,-0.6283,-0.6222,-0.6034,-0.6003,-0.6083,-0.5714,-0.5513,-0.5518,-0.5294,-0.5232,-0.5237,-0.5456,-0.5398,-0.5133,-0.5248,-0.5078,-0.4747,-0.4678,-0.465,-0.4738,-0.5155,-0.5927,-0.6741,0.0,0.0,0.0,0.0,0.0,0.0,0.0,0.0,0.0,0.0,0.0,0.0,0.0,0.5227,0.533,0.0,0.0,0.0,0.0,0.7196,0.7655,0.7959,0.8373,0.8387,0.8007,0.8169,0.802,0.751,0.7513,0.7516,0.7516,0.7516,0.7433,0.7292,0.7292,0.7208,0.7119,0.7486,0.7552,0.7366,0.744,0.7466,0.7369,0.6458,0.6321,0.6609,0.6535,0.0,0.0,0.0,0.5793,0.5026,0.5026,0.4202,0.0,0.2965,0.2579,0.2155,0.1716,0.1372,0.1015,0.0595,0.025,0.0,0.0,0.0,0.0,0.0,-0.016,-0.0246,-0.0042,-0.0172,-0.0219,-0.0045,0.0,0.0,0.0,-0.0404,-0.0718,-0.0718,-0.1121,-0.1436,-0.1436,-0.2332,-0.3094,-0.359,-0.3884,-0.4103,-0.4279,-0.4894,-0.5267,-0.5419,-0.5807,-0.5947,-0.5815,-0.5817,-0.5628,-0.5229,-0.5134,-0.5138,-0.5134,-0.5038,-0.4993,-0.4993,-0.4763,-0.4623,-0.4619,-0.4616,-0.4616,-0.4616,-0.4612,-0.4612,-0.46,-0.4465,-0.5008,-0.5764,0.0,0.0,0.0,0.0,0.0,0.0,0.0,0.0,0.0,0.0,0.0,0.0,0.0,0.0,0.0,0.0,0.0,0.0,0.0,0.7013,0.7366,0.7446,0.7947,0.809,0.7867,0.8147,0.8204,0.8032,0.8009,0.7967,0.7971,0.7858,0.7776,0.7622,0.7622,0.7696,0.7739,0.7661,0.7627,0.7563,0.7422,0.7171,0.6798,0.6626,0.6353,0.6056,0.0,0.0,0.0,0.5739,0.5138,0.4352,0.4102,0.3489,0.2828,0.2531,0.2338,0.2061,0.1445,0.1183,0.0954,0.0329,0.0074,0.0,0.0,0.0,-0.0078,-0.0353,-0.012,0.0,-0.0329,-0.0127,0.0087,0.0,0.0,0.0,0.0,-0.0135,-0.018,0.0,-0.0403,-0.0718,-0.0718,-0.1635,-0.238,-0.2698,-0.2878,-0.3181,-0.3783,-0.3828,-0.3963,-0.4189,-0.4312,-0.4561,-0.4891,-0.4893,-0.5057,-0.5486,-0.5255,-0.5191,-0.5189,-0.5156,-0.5143,-0.5141,-0.5438,-0.5436,-0.5281,-0.522,-0.5096,-0.4894,-0.4691,-0.4621,-0.4616,-0.4538,-0.4652,-0.4924,0.0,0.0,0.0,0.0,0.0,0.0,0.0,0.0,0.0,0.0,0.0,0.0,0.0,0.0,0.0,0.0,0.0,0.0,0.0,0.0,0.6993,0.7123,0.759,0.7791,0.7785,0.7967,0.8119,0.818,0.8084,0.8087,0.8146,0.8043,0.7952,0.7889,0.7889,0.795,0.8042,0.782,0.7688,0.7584,0.7342,0.6932,0.644,0.6381,0.608,0.0,0.0,0.0,0.0,0.5264,0.4718,0.3977,0.3709,0.3109,0.2493,0.2248,0.2083,0.1855,0.1306,0.1002,0.0726,0.015,0.0,0.0,0.0,0.0,-0.0039,-0.0236,-0.004,0.0081,-0.0203,0.0,0.0171,0.0,0.0,0.0,0.0,0.0,0.0045,0.0227,-0.0045,-0.0271,-0.0269,-0.0914,-0.1522,-0.1829,-0.1994,-0.2281,-0.2716,-0.2834,-0.2973,-0.3176,-0.3397,-0.3767,-0.4329,-0.4307,-0.4663,-0.539,-0.5291,-0.5225,-0.519,-0.519,-0.519,-0.524,-0.5541,-0.5641,-0.5482,-0.5518,-0.544,-0.5237,-0.4933,-0.4812,-0.4808,-0.468,-0.4583,-0.461,0.0,0.0,0.0,0.0,0.0,0.0,0.0,0.0,0.0,0.0,0.0,0.0,0.0,0.0,0.0,0.0,0.0,0.0,0.0,0.0,0.0,0.6966,0.7308,0.7534,0.7638,0.7689,0.7777,0.7944,0.7834,0.7841,0.7959,0.7967,0.7971,0.7971,0.7971,0.7975,0.7983,0.7975,0.7761,0.7402,0.7254,0.6864,0.6317,0.5821,0.0,0.0,0.0,0.0,0.0,0.5002,0.4545,0.3844,0.3763,0.3019,0.2196,0.2226,0.1964,0.1587,0.1305,0.0892,0.0454,0.0076,0.0,0.0,0.0,0.0,0.0079,0.0235,0.0157,0.0079,0.0242,0.0122,0.0,0.0,0.0,0.0,0.0,0.0,0.0,0.0,0.0,0.0,0.0,-0.0229,-0.0551,-0.0991,-0.1307,-0.1384,-0.1193,-0.1929,-0.2322,-0.2374,-0.2927,-0.3524,-0.4102,-0.412,-0.4434,-0.4979,-0.524,-0.5295,-0.5155,-0.5205,-0.5203,-0.5148,-0.5196,-0.5244,-0.524,-0.5486,-0.5584,-0.5586,-0.5288,-0.519,-0.5179,-0.4845,-0.4761,-0.4732,0.0,0.0,0.0,0.0,0.0,0.0,0.0,0.0,0.0,0.0,0.0,0.0,0.0,0.0,0.0,0.0,0.0,0.0,0.0,0.0,0.0,0.0,0.0,0.0,0.0,0.0,0.0,0.0,0.0,0.7323,0.7265,0.7362,0.7389,0.7389,0.7389,0.75,0.7649,0.774,0.7614,0.7322,0.0,0.6952,0.6082,0.0,0.0,0.0,0.0,0.0,0.0,0.4822,0.4163,0.3288,0.2758,0.2391,0.2205,0.259,0.2417,0.1983,0.1702,0.1355,0.0875,0.0155,0.0,0.0,0.0,0.0118,0.0156,-0.0077,0.0153,0.0381,0.0113,0.0155,0.024,0.0206,0.0087,0.0,0.0,0.0,0.0095,0.0284,0.0142,0.0094,0.0282,0.0047,-0.0047,0.0,-0.0616,-0.1055,-0.1169,-0.1396,-0.1626,-0.1856,-0.2019,-0.235,-0.291,-0.3346,-0.3823,-0.4388,-0.4496,-0.4485,-0.4465,-0.5147,-0.5158,-0.473,-0.5346,-0.5609,-0.5486,-0.5338,-0.5438,-0.5586,-0.5288,-0.5338,-0.5484,-0.5409,-0.5353,-0.5287,0.0,0.0,0.0,0.0,0.0,0.0,0.0,0.0,0.0,0.0,0.0,0.0,0.0,0.0,0.0,0.0,0.0,0.0,0.0,0.0,0.0,0.0,0.0,0.0,0.0,0.0,0.0,0.0,0.0,0.0,0.0,0.6888,0.6943,0.6985,0.7128,0.7254,0.7338,0.0,0.0,0.0,0.0,0.0,0.0,0.0,0.0,0.0,0.0,0.0,0.0,0.4608,0.4063,0.3346,0.2711,0.2326,0.2195,0.2536,0.2337,0.2013,0.1863,0.1538,0.1081,0.0431,0.0275,0.0235,0.0039,0.0077,0.0153,0.0112,0.0298,0.0445,0.0292,0.0301,0.0274,0.0202,0.0085,0.0,0.0,0.0,0.0048,0.0193,0.0097,0.0048,0.0191,0.0096,0.0048,0.0193,-0.029,-0.0631,-0.0687,-0.09,-0.1168,-0.1488,-0.1511,-0.1861,-0.2562,-0.3159,-0.3581,-0.3877,-0.3877,-0.3862,-0.3833,-0.431,-0.4339,-0.4034,-0.487,-0.5207,-0.5158,-0.5417,-0.5572,-0.5723,-0.5572,-0.5623,-0.5777,-0.5777,-0.5588,-0.5339,0.0,0.0,0.0,0.0,0.0,0.0,0.0,0.0,0.0,0.0,0.0,0.0,0.0,0.0,0.0,0.0,0.0,0.0,0.0,0.0,0.0,0.0,0.0,0.0,0.0,0.0,0.0,0.0,0.0,0.0,0.0,0.0,0.0,0.0,0.0,0.0,0.0,0.0,0.0,0.0,0.0,0.0,0.0,0.0,0.0,0.0,0.0,0.0,0.0,0.0,0.4145,0.3685,0.3105,0.2587,0.2221,0.2354,0.2154,0.1903,0.1948,0.1687,0.1257,0.0825,0.0667,0.0507,0.0228,0.0114,0.0188,0.0511,0.0508,0.0434,0.0614,0.0443,0.023,0.008,0.0042,0.0,0.0,0.0,0.0,0.0,0.0,0.0,0.0,0.0,0.0,0.0,-0.0197,-0.0246,-0.0049,-0.0502,-0.0915,-0.1277,-0.1265,-0.1742,-0.2637,-0.3139,-0.3393,-0.34,-0.34,-0.3318,-0.3215,-0.3322,-0.3265,-0.3257,-0.411,-0.4477,-0.4627,-0.5371,-0.5744,-0.5902,-0.5955,-0.6061,-0.6114,-0.6008,-0.5638,-0.5267,0.0,0.0,0.0,0.0,0.0,0.0,0.0,0.0,0.0,0.0,0.7365,0.6817,0.0,0.0,0.0,0.0,0.0,0.0,0.0,0.0,0.0,0.0,0.0,0.0,0.0,0.0,0.0,0.0,0.0,0.0,0.0,0.0,0.0,0.0,0.0,0.0,0.0,0.0,0.0,0.0,0.0,0.0,0.0,0.0,0.0,0.0,0.0,0.0,0.0,0.0,0.4488,0.3697,0.3166,0.2628,0.2291,0.2749,0.2595,0.2319,0.2377,0.2118,0.1725,0.149,0.102,0.0663,0.0914,0.0833,0.0635,0.0534,0.0741,0.0911,0.0789,0.0498,0.0336,0.0392,0.0167,0.0,0.0,0.0,0.0,0.0,0.0,0.0,0.0,0.0,0.0,0.0,-0.005,-0.0151,-0.0302,-0.0409,-0.0838,-0.1564,-0.1431,-0.1617,-0.23,-0.2188,-0.2353,-0.2849,-0.2849,-0.2844,-0.2837,-0.3334,-0.3253,-0.2776,-0.3427,0.0,-0.4259,-0.4418,-0.5108,-0.6008,-0.6008,-0.6273,-0.659,-0.6114,-0.585,-0.5688,0.0,0.0,0.0,0.0,0.0,0.0,0.0,0.8678,0.9079,0.9356,0.9111,0.859,0.7764,0.7044,0.0,0.0,0.0,0.0,0.0,0.0,0.0,0.0,0.0,0.0,0.0,0.0,0.0,0.0,0.0,0.0,0.0,0.0,0.0,0.0,0.0,0.0,0.0,0.0,0.0,0.0,0.0,0.0,0.0,0.0,0.0,0.0,0.0,0.0,0.0,0.0,0.4665,0.422,0.3687,0.3212,0.2793,0.2687,0.2546,0.2473,0.2503,0.2353,0.2156,0.196,0.1686,0.1437,0.1459,0.1372,0.1279,0.1248,0.1166,0.1093,0.108,0.0696,0.0436,0.0535,0.0321,0.017,0.0137,0.0047,0.0,0.0,0.0,0.0,0.0,0.0,0.0,0.0,0.0,-0.0051,-0.0202,-0.0308,-0.058,-0.0984,-0.1047,-0.1223,-0.1514,-0.1514,-0.1683,-0.1964,-0.2132,-0.2244,-0.2244,-0.2523,-0.2512,-0.2217,-0.2826,-0.3198,-0.3448,-0.3776,-0.4211,-0.4755,-0.4916,-0.5243,-0.5571,-0.5408,-0.5301,-0.519,0.0,0.0,0.0,0.0,0.0,0.0,0.0,0.9533,1.0213,1.0382,1.0696,1.034,0.8852,0.8079,0.7609,0.0,0.0,0.0,0.0,0.0,0.0,0.0,0.0,0.0,0.0,0.0,0.0,0.7015,0.0,0.0,0.0,0.0,0.0,0.0,0.0,0.0,0.0,0.0,0.0,0.0,0.0,0.0,0.0,0.0,0.0,0.0,0.0,0.0,0.0,0.0,0.4842,0.4804,0.4301,0.3845,0.3357,0.2764,0.2634,0.265,0.2624,0.2668,0.2666,0.251,0.2382,0.223,0.2021,0.192,0.1887,0.1937,0.1681,0.1412,0.1379,0.0997,0.0677,0.0714,0.0541,0.0446,0.0443,0.0318,0.0187,0.0098,0.0099,0.005,0.0,0.0,0.0,0.0,0.0,0.0,0.0,-0.0208,-0.0373,-0.0495,-0.0715,-0.083,-0.1009,-0.1121,-0.1234,-0.1234,-0.1627,-0.1739,-0.1683,-0.1851,-0.1851,-0.1851,-0.23,-0.2581,-0.275,-0.3197,-0.3531,-0.3698,-0.3918,-0.4198,-0.4536,-0.4594,-0.4536,-0.4423,0.0,0.0,0.0,0.0,0.0,0.0,0.0,0.9605,1.033,1.1252,1.1472,1.1291,1.0724,0.9362,0.8495,0.0,0.0,0.0,0.0,0.0,0.0,0.0,0.0,0.0,0.0,0.0,0.0,0.8415,0.7779,0.0,0.0,0.0,0.0,0.0,0.0,0.7117,0.0,0.0,0.0,0.0,0.0,0.0,0.0,0.0,0.0,0.0,0.0,0.0,0.4601,0.501,0.5161,0.5092,0.4683,0.4178,0.3738,0.3613,0.3417,0.3206,0.3083,0.3215,0.3409,0.337,0.3008,0.2712,0.2858,0.2609,0.2298,0.22,0.2386,0.2351,0.1681,0.1376,0.1212,0.1164,0.0967,0.0852,0.0931,0.0898,0.0782,0.039,0.0344,0.0248,0.0,0.0,0.0,0.0,0.0,0.0,0.0,0.0,-0.0275,-0.0839,-0.0615,-0.0728,-0.1234,-0.1065,-0.0953,-0.0953,-0.1514,-0.1627,-0.1346,-0.1908,-0.202,-0.1795,-0.1851,-0.2188,0.0,-0.275,-0.3251,-0.3974,-0.3973,-0.4198,-0.4424,-0.3923,-0.3864,-0.3974,0.0,0.0,0.0,0.0,0.0,0.0,0.962,1.0036,1.0626,1.1562,1.1839,1.1868,1.1587,1.0687,0.9801,0.9029,0.0,0.0,0.0,0.0,0.0,0.0,0.0,0.0,0.0,0.0,0.0,0.8474,0.8262,0.0,0.0,0.0,0.0,0.0,0.0,0.7574,0.7601,0.0,0.0,0.0,0.0,0.0,0.0,0.0,0.0,0.0,0.0,0.0,0.4993,0.4998,0.5032,0.4991,0.4832,0.4537,0.4183,0.3633,0.3518,0.3563,0.3293,0.3221,0.3294,0.3448,0.3273,0.312,0.3262,0.3141,0.2953,0.284,0.2755,0.2619,0.2318,0.2036,0.1776,0.1542,0.1419,0.1316,0.1215,0.1169,0.1076,0.0801,0.0774,0.0742,0.0504,0.036,0.0156,0.0,0.0,0.0,0.0,0.0,-0.011,-0.0336,-0.0224,-0.028,-0.0505,-0.0561,-0.0785,-0.1121,-0.157,-0.1908,-0.2132,-0.2188,-0.2132,-0.202,-0.1851,-0.1964,0.0,-0.2132,-0.2355,-0.2689,-0.2689,-0.2858,-0.3082,-0.2859,-0.2971,-0.3195,0.0,0.0,0.0,0.0,0.0,0.962,1.0149,1.0516,1.1013,1.1731,1.2089,1.2195,1.2036,1.1428,1.0672,0.9705,0.932,0.0,0.0,0.0,0.0,0.0,0.0,0.0,0.0,0.0,0.8507,0.8507,0.8606,0.858,0.0,0.0,0.8401,0.8242,0.0,0.0,0.0,0.0,0.0,0.0,0.0,0.0,0.0,0.0,0.0,0.0,0.0,0.0,0.0,0.0,0.0,0.4851,0.0,0.0,0.0,0.0,0.388,0.4004,0.3655,0.3639,0.3683,0.3645,0.3581,0.3532,0.3481,0.3389,0.334,0.3372,0.319,0.2987,0.2855,0.2656,0.2357,0.0,0.0,0.1778,0.1635,0.1581,0.1476,0.1231,0.1276,0.1219,0.09,0.0669,0.0476,0.027,0.0274,0.0221,0.011,0.011,0.0055,0.0,0.0,0.0,0.0,-0.0168,-0.0505,-0.0897,-0.1514,-0.1964,-0.23,-0.2412,-0.2412,-0.2356,-0.2132,-0.202,0.0,-0.1908,-0.1851,-0.1795,-0.1795,-0.1908,-0.2076,-0.2076,-0.23,-0.2525,0.0,0.0,0.0,0.0,0.0,0.0,1.0448,1.0943,1.1447,1.1857,1.2193,1.2306,1.2036,1.1396,1.0882,1.0613,0.9857,0.0,0.0,0.0,0.0,0.0,0.0,0.0,0.0,0.0,0.8804,0.8804,0.8804,0.8718,0.86,0.86,0.8527,0.8395,0.0,0.0,0.0,0.0,0.0,0.0,0.0,0.0,0.0,0.0,0.0,0.0,0.0,0.0,0.0,0.0,0.0,0.0,0.0,0.4877,0.5132,0.0,0.4682,0.4602,0.4289,0.4645,0.4902,0.4082,0.4008,0.3979,0.349,0.3293,0.3326,0.3725,0.3792,0.3658,0.3259,0.3192,0.3052,0.2578,0.2313,0.0,0.237,0.2283,0.2085,0.1737,0.1738,0.16,0.1125,0.0982,0.092,0.0894,0.0897,0.0729,0.0392,0.0392,0.028,0.0,0.0,0.0,0.0,0.0,0.0,0.0,-0.1234,-0.1627,-0.1346,-0.2521,-0.2971,-0.2693,-0.2693,-0.2525,0.0,-0.2188,-0.202,-0.1795,-0.1795,-0.1795,-0.1795,-0.1795,-0.1964,-0.2188,0.0,0.0,0.0,0.0,0.0,0.0,0.0,1.0588,1.0705,1.1398,1.1372,1.1407,1.1714,1.1283,1.089,1.0613,0.9941,0.0,0.0,0.0,0.0,0.0,0.0,0.0,0.0,0.0,0.9263,0.9335,0.9335,0.9283,0.9152,0.9047,0.8837,0.8521,0.8395,0.8242,0.0,0.0,0.0,0.0,0.0,0.0,0.0,0.0,0.0,0.0,0.0,0.0,0.0,0.0,0.0,0.0,0.0,0.0,0.0,0.4295,0.458,0.4908,0.4356,0.4287,0.4269,0.4015,0.3975,0.3958,0.3962,0.3839,0.3825,0.409,0.4154,0.4023,0.3692,0.3625,0.3408,0.2856,0.2843,0.0,0.2877,0.2637,0.246,0.2407,0.1801,0.1348,0.1244,0.1056,0.0812,0.0559,0.0561,0.0505,0.0393,0.0393,0.028,0.0,0.0,0.0,0.0,0.0,-0.0224,-0.0617,-0.1009,-0.1346,-0.1627,-0.1794,-0.185,-0.1739,-0.1964,-0.202,-0.1964,-0.2356,-0.2469,-0.2413,-0.2188,-0.2076,-0.2076,-0.1851,-0.1851,-0.1908,0.0,0.0,0.0,0.0,0.0,0.0,0.0,1.0686,1.0658,1.116,1.1033,1.1077,1.1507,1.1325,1.1121,1.1065,1.0379,0.0,0.0,0.0,0.0,0.0,0.0,0.0,0.0,0.942,0.9575,0.991,0.991,0.9857,0.9778,0.9652,0.9343,0.889,0.8659,0.0,0.0,0.0,0.0,0.0,0.0,0.0,0.7784,0.0,0.0,0.0,0.0,0.0,0.0,0.0,0.0,0.0,0.0,0.0,0.0,0.0,0.465,0.5066,0.4484,0.4423,0.4479,0.4161,0.4038,0.4047,0.4211,0.4178,0.4225,0.4622,0.4655,0.4522,0.4323,0.4225,0.397,0.3338,0.342,0.3503,0.3339,0.3184,0.3015,0.2792,0.202,0.1471,0.1578,0.1328,0.1136,0.0951,0.0785,0.0729,0.0729,0.0729,0.0673,0.0505,0.028,0.0168,0.0168,0.0056,-0.0168,-0.0561,-0.0673,-0.0953,-0.1458,-0.1346,-0.1346,-0.1514,-0.1683,-0.1739,0.0,-0.2132,-0.2132,-0.1851,-0.1739,-0.1795,-0.1851,-0.1683,-0.1739,-0.1964,0.0,0.0,0.0,0.0,0.0,0.0,0.0,1.1123,1.1094,1.1074,1.1072,1.1179,1.1417,1.1398,1.1488,1.1733,0.0,0.0,0.0,0.0,0.0,0.0,0.0,0.0,0.0,0.9577,0.9794,1.0427,1.0477,1.0485,1.0465,1.0352,1.0026,0.9475,0.9069,0.8765,0.8573,0.8321,0.7993,0.7644,0.7852,0.7804,0.0,0.0,0.0,0.0,0.0,0.0,0.0,0.0,0.0,0.0,0.0,0.0,0.0,0.0,0.0,0.0,0.0,0.5008,0.5296,0.4498,0.429,0.4296,0.4381,0.4386,0.0,0.5292,0.5289,0.5153,0.512,0.4957,0.4597,0.3935,0.4059,0.4136,0.3797,0.3849,0.3641,0.2983,0.2305,0.1946,0.2015,0.179,0.1673,0.1787,0.1456,0.1288,0.129,0.1288,0.1288,0.1344,0.0783,0.0504,0.0505,0.028,0.0112,0.0112,-0.0168,-0.0449,-0.0785,-0.1009,-0.129,0.0,-0.1627,-0.1514,-0.1234,-0.157,-0.1234,-0.0449,-0.0729,-0.1009,-0.1234,-0.1234,-0.1627,-0.2188,0.0,0.0,0.0,0.0,0.0,0.0,0.0,0.0,0.0,0.0,1.0883,1.0905,1.0824,1.0984,1.118,0.0,0.0,0.0,0.0,0.0,0.0,0.0,0.0,0.0,0.0,1.0102,1.0425,1.0788,1.1143,1.1274,1.1177,1.1331,1.1021,1.031,0.9894,0.9247,0.8448,0.8374,0.8151,0.7838,0.8064,0.8019,0.0,0.0,0.0,0.0,0.7901,0.8167,0.0,0.0,0.0,0.0,0.0,0.0,0.0,0.0,0.538,0.5812,0.5152,0.0,0.5379,0.5178,0.5111,0.5135,0.0,0.5282,0.0,0.0,0.0,0.0,0.5186,0.5054,0.4855,0.4343,0.4423,0.4546,0.4397,0.4105,0.3591,0.2779,0.2252,0.2023,0.2069,0.1667,0.1378,0.1426,0.132,0.1328,0.1289,0.1274,0.143,0.165,0.1304,0.1203,0.1458,0.1402,0.1234,0.1009,0.0953,0.0729,0.0449,0.0393,0.0336,0.0224,-0.0224,-0.0393,-0.0336,-0.0897,-0.1009,-0.0785,-0.0561,-0.0561,-0.0617,-0.0617,-0.1009,-0.157,0.0,0.0,0.0,0.0,0.0,0.0,0.0,0.0,0.0,0.0,0.0,0.0,0.0,0.0,0.0,0.0,0.0,0.0,0.0,0.0,0.0,0.0,0.0,0.0,1.0385,1.059,1.101,1.1684,1.1861,1.2074,1.2236,1.1991,1.1561,1.0917,1.0165,0.9365,0.8586,0.8586,0.8377,0.8066,0.835,0.0,0.0,0.0,0.0,0.0,0.7901,0.8237,0.0,0.8622,0.8483,0.8232,0.0,0.0,0.0,0.0,0.5487,0.578,0.5503,0.5535,0.5591,0.5521,0.5458,0.5491,0.5749,0.0,0.0,0.0,0.0,0.0,0.0,0.5614,0.542,0.491,0.5243,0.553,0.5338,0.4747,0.4088,0.3563,0.2907,0.2591,0.2638,0.2178,0.1838,0.1834,0.1513,0.1357,0.1478,0.1466,0.1621,0.1999,0.1928,0.189,0.1774,0.1663,0.1558,0.1514,0.1627,0.157,0.129,0.129,0.1234,0.1065,0.0617,0.0393,0.0393,-0.0112,-0.0168,0.0112,0.0168,0.0112,-0.0056,-0.0056,-0.0505,-0.1177,0.0,0.0,0.0,0.0,0.0,0.0,0.0,0.0,0.0,0.0,0.0,0.0,0.0,0.0,0.0,0.0,0.0,0.0,0.0,0.0,0.0,0.0,0.0,1.0845,1.1099,1.1082,1.1565,1.2551,1.2651,1.2911,1.3319,1.2668,1.2008,1.1347,1.0264,0.9411,0.8804,0.8831,0.8605,0.8285,0.8652,0.0,0.0,0.0,0.0,0.0,0.0,0.0,0.0,0.865,0.8609,0.8478,0.7918,0.0,0.0,0.0,0.0,0.0,0.5798,0.5917,0.5957,0.5811,0.5686,0.569,0.6112,0.0,0.0,0.0,0.0,0.0,0.0,0.6244,0.6087,0.5609,0.6101,0.6508,0.63,0.5547,0.4948,0.4724,0.3948,0.3451,0.345,0.2942,0.2602,0.2491,0.1859,0.1542,0.1704,0.17,0.1804,0.2123,0.233,0.2239,0.1844,0.1631,0.1646,0.1837,0.2121,0.2124,0.1844,0.1905,0.1739,0.1402,0.0,0.0,0.1009,0.0729,0.0897,0.1346,0.1121,0.0841,0.0617,0.0561,0.0,-0.0785,0.0,0.0,0.0,0.0,0.0,0.0,0.0,0.0,0.0,0.0,0.0,0.0,0.0,0.0,0.0,0.0,0.0,0.0,0.0,0.0,0.0,0.0,1.1776,1.0947,1.1099,1.1627,1.2061,1.236,1.3459,1.3957,1.387,1.397,1.3088,1.1388,1.0724,0.9831,0.8811,0.8936,0.8797,0.8567,0.8732,0.0,0.0,0.0,0.0,0.0,0.0,0.0,0.0,0.8345,0.864,0.8867,0.8045,0.0,0.0,0.0,0.0,0.0,0.607,0.6179,0.6357,0.6506,0.6511,0.6511,0.6576,0.0,0.0,0.0,0.0,0.0,0.0,0.6356,0.6402,0.647,0.6414,0.6444,0.6674,0.6245,0.5836,0.5688,0.5019,0.4487,0.4244,0.3545,0.2911,0.2548,0.2396,0.215,0.1703,0.1682,0.1721,0.1773,0.1747,0.185,0.2038,0.2283,0.2303,0.2149,0.2399,0.2416,0.2142,0.2452,0.2356,0.2076,0.0,0.1851,0.1683,0.1627,0.1627,0.1739,0.1683,0.1627,0.157,0.129,0.0729,0.0056,0.0,0.0,0.0,0.0,0.0,0.0,0.0,0.0,0.0,0.0,0.0,0.0,0.0,0.0,0.0,0.0,0.0,0.0,0.0,0.0,0.0,0.0,1.2662,1.2064,1.2123,1.2715,1.3237,1.3641,1.4674,1.5142,1.5058,1.4391,1.3135,1.1382,1.0907,1.0162,0.9237,0.9133,0.9028,0.8916,0.0,0.0,0.0,0.0,0.0,0.0,0.0,0.0,0.0,0.0,0.8522,0.8722,0.802,0.0,0.0,0.0,0.0,0.0,0.6573,0.6549,0.6568,0.677,0.6741,0.6741,0.0,0.0,0.0,0.0,0.0,0.0,0.0,0.7096,0.7194,0.7331,0.7253,0.7231,0.7465,0.7106,0.6777,0.674,0.6067,0.5634,0.5482,0.4634,0.4013,0.388,0.3007,0.2394,0.2204,0.1877,0.1706,0.1638,0.1624,0.1674,0.1841,0.1959,0.2196,0.2398,0.2525,0.2547,0.2407,0.2426,0.2448,0.2469,0.0,0.2132,0.202,0.202,0.1908,0.1795,0.1795,0.1795,0.1739,0.1402,0.1121,0.0729,0.0,0.0,0.0,0.0,0.0,0.0,0.0,0.0,0.0,0.0,0.0,0.0,0.0,0.0,0.0,0.0,0.0,0.0,0.0,0.0,1.3881,1.3881,1.3433,1.3186,1.3164,1.3786,1.4392,1.497,1.5768,1.6037,1.579,1.4493,1.3086,1.162,1.101,1.0367,0.9666,0.9316,0.9159,0.9159,0.0,0.0,0.0,0.0,0.0,0.0,0.0,0.0,0.0,0.0,0.0,0.0,0.0,0.0,0.0,0.7359,0.706,0.7013,0.7081,0.6965,0.685,0.6942,0.0,0.0,0.0,0.0,0.0,0.0,0.0,0.0,0.7593,0.7798,0.7928,0.7966,0.8,0.8106,0.8227,0.7935,0.7682,0.7716,0.7174,0.6736,0.6684,0.5834,0.5216,0.5139,0.3962,0.314,0.2936,0.2474,0.21,0.1819,0.1768,0.1717,0.1617,0.1617,0.1844,0.2369,0.2431,0.2506,0.2486,0.2333,0.2415,0.2567,0.2287,0.218,0.2132,0.2132,0.1964,0.1795,0.1795,0.1795,0.1795,0.1514,0.1346,0.1177,0.0,0.0,0.0,0.0,0.0,0.0,0.0,0.0,0.0,0.0,0.0,0.0,0.0,0.0,0.0,0.0,0.0,0.0,0.0,0.0,1.4176,1.4176,1.3905,1.3721,1.3645,1.4546,1.5148,1.5449,1.6483,1.6421,1.5236,1.4438,1.3442,1.2283,1.1141,1.0367,0.9943,0.929,0.9008,0.9008,0.9008,0.0,0.0,0.0,0.0,0.0,0.0,0.0,0.0,0.0,0.0,0.0,0.0,0.0,0.8827,0.7694,0.7502,0.76,0.7415,0.7441,0.7476,0.7228,0.704,0.0,0.6899,0.6903,0.0,0.7244,0.0,0.0,0.7746,0.806,0.8263,0.826,0.836,0.8504,0.8621,0.857,0.8549,0.8693,0.8226,0.7786,0.7531,0.698,0.6334,0.5596,0.5445,0.4941,0.3932,0.3882,0.3379,0.2371,0.2321,0.212,0.1617,0.1617,0.1619,0.1674,0.2011,0.2132,0.2135,0.2436,0.2426,0.2246,0.2191,0.2045,0.1851,0.1851,0.1795,0.1795,0.1795,0.1795,0.1795,0.1795,0.157,0.129,0.0,0.0,0.0,0.0,0.0,0.0,0.0,0.0,0.0,0.0,0.0,0.0,0.0,0.0,0.0,0.0,0.0,0.0,0.0,0.0,1.4326,1.4326,1.4163,1.4164,1.4432,1.549,1.6112,1.6306,1.6961,1.6781,1.5808,1.516,1.4183,1.2931,1.2343,1.1647,1.0835,1.0055,0.966,0.9511,0.9057,0.891,0.0,0.0,0.0,0.0,0.0,0.0,0.0,0.0,0.8496,0.8586,0.7994,0.8513,0.9144,0.8184,0.7966,0.8049,0.7941,0.7805,0.7691,0.7605,0.7591,0.0,0.0,0.7462,0.7602,0.8065,0.8313,0.0,0.8715,0.884,0.8928,0.8901,0.8928,0.8976,0.911,0.8961,0.8892,0.9011,0.873,0.8482,0.8379,0.7882,0.7469,0.7247,0.639,0.5729,0.5371,0.4859,0.4226,0.3425,0.3725,0.3476,0.2625,0.2924,0.2773,0.212,0.1881,0.1797,0.1869,0.1987,0.2118,0.2206,0.2206,0.2161,0.2066,0.2034,0.1932,0.1822,0.1822,0.1656,0.1489,0.169,0.1575,0.1304,0.0,0.0,0.0,0.0,0.0,0.0,0.0,0.0,0.0,0.0,0.0,0.0,0.0,0.0,0.0,0.0,0.0,0.0,0.0,1.3707,1.4231,1.4339,1.4303,1.4426,1.4764,1.5962,1.6711,1.7036,1.7326,1.6941,1.5898,1.5331,1.4484,1.3451,1.2989,1.2299,1.144,1.0558,1.0057,0.9782,0.9131,0.891,0.0,0.0,0.0,0.0,0.0,0.0,0.0,0.0,0.8568,0.8664,0.8242,0.8727,0.9318,0.8558,0.8448,0.8532,0.8359,0.8269,0.8174,0.8048,0.0,0.0,0.8069,0.7983,0.8052,0.8579,0.8894,0.9166,0.9376,0.9356,0.9251,0.9187,0.9242,0.9319,0.9309,0.9208,0.9176,0.9251,0.9069,0.8867,0.8766,0.8476,0.8305,0.8306,0.7494,0.6892,0.6704,0.6042,0.5338,0.4498,0.479,0.451,0.3648,0.3993,0.3852,0.3173,0.2622,0.2134,0.1648,0.1648,0.182,0.2061,0.2061,0.2067,0.2026,0.205,0.1952,0.179,0.179,0.1626,0.1462,0.1658,0.1598,0.1438,0.0,0.0,0.0,0.0,0.0,0.0,0.0,0.0,0.0,0.0,0.0,0.0,0.0,0.0,0.0,0.0,0.0,0.0,0.0,1.339,1.3847,1.4177,1.4326,1.4437,1.4503,1.5825,1.684,1.7501,1.7559,1.6808,1.5309,1.4761,1.4249,1.376,1.2767,1.2075,1.164,1.0637,1.0044,0.9687,0.9192,0.9015,0.8989,0.0,0.0,0.0,0.0,0.0,0.0,0.0,0.8905,0.8792,0.8806,0.9076,0.9303,0.8769,0.8825,0.904,0.8701,0.8855,0.9007,0.8613,0.0,0.0,0.8644,0.8342,0.824,0.8642,0.9039,0.9377,0.9573,0.9447,0.9213,0.8969,0.9246,0.9412,0.9227,0.9296,0.9414,0.9418,0.9236,0.8999,0.8757,0.8866,0.8875,0.8638,0.8732,0.8505,0.7862,0.7569,0.6828,0.5559,0.5317,0.5031,0.4598,0.4598,0.4689,0.4822,0.4273,0.3173,0.1617,0.1617,0.1633,0.1714,0.1714,0.1677,0.1703,0.1704,0.1704,0.1704,0.1704,0.1704,0.1704,0.1703,0.1703,0.1757,0.0,0.0,0.0,0.0,0.0,0.0,0.0,0.0,0.0,0.0,0.0,0.0,0.0,0.0,0.0,0.0,0.0,0.0,0.0,1.3215,1.3728,1.3847,1.4198,1.4403,1.4426,1.5466,1.6595,1.7776,1.7532,1.6903,1.6004,1.5219,1.4598,1.4147,1.37,1.306,1.2307,1.1856,1.1357,1.0857,1.0215,0.9791,0.9459,0.0,0.0,0.0,0.0,0.0,0.0,0.0,0.0,0.0,0.8808,0.0,0.9334,0.8974,0.8987,0.9028,0.8759,0.8866,0.913,0.9189,0.9109,0.9101,0.0,0.9075,0.0,0.0,0.9907,1.0031,1.0065,0.9789,0.9495,0.9419,0.9222,0.9127,0.9206,0.9228,0.9313,0.9402,0.9512,0.9512,0.9228,0.923,0.9169,0.8985,0.8835,0.8649,0.8458,0.8175,0.7584,0.6643,0.6926,0.6614,0.5608,0.5944,0.5855,0.5225,0.5078,0.4371,0.3274,0.2521,0.2177,0.2189,0.1782,0.1635,0.1644,0.1666,0.1686,0.1702,0.1682,0.157,0.1411,0.1599,0.1489,0.1386,0.0,0.0,0.0,0.0,0.0,0.0,0.0,0.0,0.0,0.0,1.156,1.1746,0.0,0.0,0.0,0.0,0.0,0.0,1.2496,1.3062,1.3456,1.3618,1.4076,1.4414,1.4586,1.5271,1.6063,1.6998,1.7014,1.6606,1.586,1.5625,1.5262,1.4818,1.4872,1.4271,1.3202,1.2736,1.2071,1.1286,1.0523,1.0023,0.9736,0.0,0.0,0.0,0.0,0.0,0.0,0.0,0.0,0.0,0.8805,0.0,0.9113,0.8928,0.898,0.9059,0.8903,0.9059,0.933,0.9606,0.9366,0.9194,0.9543,0.9393,0.9423,1.0135,1.0251,1.0217,1.0303,1.0009,0.9689,0.9519,0.9301,0.9165,0.9104,0.9072,0.9159,0.9319,0.9423,0.9423,0.9382,0.9354,0.9259,0.9171,0.8955,0.8823,0.8752,0.8521,0.8118,0.7548,0.7777,0.7518,0.6741,0.7073,0.6977,0.6423,0.6227,0.5817,0.5229,0.3925,0.3224,0.3024,0.2473,0.2121,0.1921,0.1942,0.186,0.1668,0.1651,0.1541,0.1437,0.1573,0.1516,0.1415,0.0,0.0,1.2561,1.2603,0.0,0.0,0.0,0.0,0.0,0.0,1.1522,1.1659,0.0,0.0,0.0,1.2845,1.2845,1.2834,1.279,1.2846,1.3054,1.3421,1.394,1.4404,1.4822,1.5153,1.5378,1.548,1.6172,1.6045,1.5232,1.5831,1.5916,1.5569,1.5845,1.5296,1.4093,1.3261,1.2305,1.1294,1.0391,0.999,0.9877,0.9407,0.0,0.0,0.0,0.0,0.0,0.0,0.0,0.0,0.8836,0.8843,0.8811,0.8777,0.8956,0.9132,0.9126,0.9318,0.9612,0.9877,0.9599,0.9301,0.9352,0.9563,0.9857,1.0236,1.0175,1.0108,1.0289,1.0142,0.982,0.9388,0.9432,0.9388,0.8955,0.8911,0.8999,0.9218,0.9087,0.9043,0.9262,0.9237,0.9197,0.9197,0.9138,0.902,0.8853,0.8619,0.8413,0.8248,0.8028,0.7908,0.7923,0.789,0.7907,0.7997,0.7512,0.7276,0.7238,0.5627,0.4574,0.4024,0.3578,0.3027,0.2521,0.2521,0.222,0.1768,0.1768,0.1718,0.1667,0.1667,0.1667,0.1617,0.0,0.0,1.2791,1.2756,0.0,0.0,0.0,0.0,0.0,0.0,0.0,0.0,0.0,0.0,0.0,1.2343,1.2343,1.2191,1.1831,1.2426,1.287,1.2957,1.3756,1.4242,1.435,1.4529,1.4642,1.4666,1.5379,1.5598,1.5358,1.4914,1.4878,1.5103,1.4677,1.4174,1.3605,1.3067,1.2489,1.1859,1.1249,1.0638,1.0106,0.9728,0.9305,0.0,0.0,0.0,0.0,0.0,0.0,0.0,0.9035,0.9044,0.8991,0.9253,0.9334,0.9334,0.9346,0.9577,0.9883,1.0148,1.0472,1.0571,0.9938,1.0259,1.0608,1.0343,1.0407,1.045,1.0341,0.9965,0.9646,0.9563,0.9257,0.8999,0.8911,0.8911,0.8911,0.8999,0.913,0.9218,0.9305,0.9297,0.9275,0.9275,0.9053,0.9013,0.9191,0.8798,0.8557,0.8504,0.8288,0.8063,0.7912,0.7811,0.7784,0.7926,0.7756,0.7821,0.8084,0.6282,0.5129,0.4624,0.4526,0.4175,0.3674,0.3674,0.3325,0.2877,0.2877,0.2574,0.222,0.222,0.1969,0.1667,0.0,0.0,0.0,0.0,0.0,0.0,0.0,0.0,0.0,0.0,0.0,0.0,0.0,1.1844,0.0,0.0,1.2151,1.2053,1.1795,1.2457,1.3043,1.3454,1.394,1.4176,1.4116,1.4233,1.4233,1.4116,1.436,1.4721,1.5151,1.5278,1.5321,1.5273,1.5066,1.4531,1.3782,1.3472,1.2827,1.2026,1.1578,1.1076,1.0514,0.9937,0.9518,0.9187,0.8911,0.0,0.0,0.0,0.0,0.0,0.0,0.0,0.8867,0.9097,0.9185,0.9222,0.9352,0.9658,0.9964,1.0143,1.0691,1.1031,1.039,1.0887,1.1382,1.105,1.0714,1.0412,1.0332,1.0027,0.9733,0.9602,0.9388,0.9213,0.9087,0.9087,0.913,0.9213,0.9345,0.9476,0.9607,0.9519,0.9432,0.9432,0.9213,0.9174,0.9305,0.9087,0.8955,0.8947,0.8815,0.8597,0.8325,0.8366,0.831,0.8243,0.8332,0.8457,0.8615,0.7201,0.6381,0.6126,0.5727,0.5279,0.4778,0.4778,0.4429,0.3979,0.3979,0.3627,0.3173,0.3473,0.3224,0.2772,0.0,0.0,0.0,0.0,0.0,0.0,0.0,0.0,0.0,0.0,0.0,0.0,0.0,1.1591,1.1894,0.0,0.0,0.0,1.1984,1.2523,1.3195,1.3945,1.4086,1.4093,1.3962,1.4069,1.4012,1.3797,1.3621,1.3975,1.484,1.5693,1.591,1.5573,1.576,1.521,1.412,1.3817,1.2995,1.1852,1.1451,1.1076,1.0667,0.9925,0.9644,0.9534,0.9044,0.8857,0.8831,0.8831,0.0,0.0,0.0,0.0,0.8659,0.8809,0.8947,0.9078,0.9343,0.9659,0.996,1.0165,1.0722,1.1141,1.0783,1.1386,1.191,1.1721,1.1119,1.0572,1.0567,1.0362,1.0164,0.9946,0.9777,0.9646,0.9476,0.9388,0.9345,0.9515,0.9563,0.9646,0.9907,0.9733,0.9602,0.9646,0.9476,0.9388,0.9432,0.9349,0.9301,0.9345,0.9262,0.9116,0.882,0.8935,0.8839,0.8567,0.8839,0.8981,0.8881,0.814,0.7779,0.7776,0.7062,0.6468,0.5984,0.5917,0.5615,0.5125,0.5074,0.4726,0.4327,0.4776,0.4576,0.4175,0.0,0.0,0.0,0.0,0.0,0.0,0.0,0.0,0.0,0.0,1.2,1.1968,1.1664,1.163,1.1614,1.1572,1.1421,1.1375,1.1481,0.0,0.0,1.3057,1.3567,1.3844,1.3821,1.3834,1.3834,1.3797,1.394,1.4201,1.4549,1.4451,1.4785,1.542,1.5222,1.4808,1.4203,1.3251,1.2327,1.1414,1.0745,1.0126,0.959,0.9472,0.9384,0.9267,0.9173,0.9087,0.8982,0.8982,0.891,0.0,0.0,0.0,0.8838,0.9069,0.9154,0.9197,0.9369,0.9731,1.0156,1.0521,1.1041,1.1408,1.1187,1.1508,1.1863,1.1732,1.1754,1.1743,1.156,1.1298,1.1111,1.1068,1.0593,1.0207,1.0164,0.9646,0.9305,0.9349,0.9349,0.9432,0.9646,0.9602,0.9689,0.9907,0.9689,0.9646,0.9907,0.9519,0.9388,0.9563,0.9174,0.8924,0.8901,0.8612,0.8473,0.8451,0.8834,0.9011,0.8988,0.8675,0.8601,0.8619,0.8387,0.8066,0.763,0.7312,0.6935,0.6528,0.6282,0.5884,0.5384,0.5484,0.5129,0.4774,0.0,0.0,0.0,0.0,0.0,0.0,0.0,0.0,0.0,0.0,0.0,1.2004,1.163,1.1463,1.1389,1.144,1.1252,1.1301,1.1662,1.2274,1.2764,1.3119,1.3697,1.3952,1.3797,1.3868,1.3797,1.3586,1.3672,1.3932,1.438,1.4184,1.4489,1.5167,1.4931,1.4342,1.3497,1.3141,1.2318,1.1291,1.1213,1.0953,1.0548,0.0,0.0,1.0261,0.981,0.951,0.9309,0.9159,0.9035,0.891,0.891,0.0,0.0,0.0,0.9241,0.9372,0.967,0.9888,1.0172,1.0727,1.1279,1.1636,1.1555,1.1975,1.232,1.2277,1.2322,1.2273,1.1772,1.1515,1.1314,1.1176,1.0809,1.0511,1.0511,1.0381,1.025,1.025,1.012,1.0077,1.0159,0.9951,0.9864,0.9994,0.9907,0.9864,0.9994,0.9825,0.9733,0.982,0.9602,0.9432,0.9301,0.9297,0.9292,0.9292,0.9334,0.9298,0.9267,0.9075,0.8792,0.8501,0.8288,0.8112,0.7935,0.8052,0.7949,0.7818,0.775,0.7332,0.6734,0.7083,0.6731,0.6182,0.0,0.0,0.0,0.0,0.0,0.0,0.0,0.0,0.0,0.0,0.0,1.2095,1.17,0.0,0.0,0.0,1.1348,1.1497,1.1961,1.2468,1.287,1.3174,1.3744,1.3941,1.3692,1.3797,1.3668,1.331,1.331,1.3641,1.4247,1.4141,1.4461,1.5088,1.4951,1.4315,1.3396,1.3354,1.2645,1.1574,1.1825,1.1795,1.153,0.0,0.0,0.0,0.0,1.0376,1.0001,0.9798,0.9511,0.9237,0.9185,0.9211,0.0,0.0,0.0,0.9382,0.9773,0.9888,1.0033,1.0581,1.1144,1.1625,1.169,1.2107,1.2487,1.2578,1.2608,1.2415,1.1838,1.1749,1.1679,1.1446,1.1198,1.1051,1.1114,1.111,1.1094,1.1152,1.0932,1.0766,1.0766,1.0474,1.0251,1.0251,1.0211,1.0156,1.0156,1.0156,1.0156,1.0156,0.9967,0.9812,0.9592,0.963,0.9689,0.9738,0.9519,0.938,0.9347,0.9159,0.8775,0.826,0.8166,0.8163,0.8207,0.8434,0.8611,0.8702,0.8717,0.8393,0.7928,0.828,0.7985,0.7388,0.0,0.0,0.0,0.0,0.0,0.0,0.0,0.0,0.0,0.0,0.0,1.252,1.2113,1.2059,1.1913,1.1534,1.1731,1.1982,1.2256,1.278,1.3019,1.2927,1.3372,0.0,1.342,1.342,1.3334,1.3123,1.3123,1.3471,1.4104,1.4104,1.4562,1.5391,1.5381,1.5109,1.4671,1.4037,1.3244,1.2402,1.2184,1.1929,1.1724,1.2081,1.231,1.242,1.2367,1.1873,1.1214,1.1188,1.0638,0.9917,0.964,0.9562,0.9543,0.0,0.0,0.0,0.9495,0.9628,0.9675,0.991,1.0514,1.1113,1.1451,1.168,1.193,1.2269,1.233,1.2217,1.193,1.2296,1.2637,1.2619,1.2229,1.2014,1.2269,1.1739,1.137,1.165,1.1423,1.1278,1.1278,1.1058,1.0969,1.0969,1.0706,1.0588,1.0588,1.0588,1.0588,1.0588,0.994,0.9615,0.9611,0.9,0.8784,0.8955,0.8955,0.8915,0.8924,0.874,0.848,0.8236,0.8579,0.8842,0.8991,0.8597,0.8633,0.8975,0.8698,0.8646,0.8726,0.8482,0.8233,0.7942,0.0,0.0,0.0,0.0,0.0,0.0,0.0,0.0,0.0,0.0,0.0,0.0,0.0,1.2711,1.2675,1.2536,1.2305,1.2194,1.2297,1.28,1.3028,1.2847,1.3325,1.3491,1.329,1.3266,1.3214,1.3109,1.3109,1.3436,1.4104,1.4104,1.4562,1.541,1.541,1.509,1.4514,1.4193,1.3451,1.2527,1.2815,1.2768,1.2582,1.3086,1.3314,1.3336,1.3021,1.2588,1.2175,1.2011,1.1584,1.1144,1.1036,1.0786,1.039,0.987,0.9484,0.9309,0.9549,0.9484,0.9487,1.0117,1.038,1.0626,1.1135,1.1384,1.1582,1.1709,1.1854,1.1955,1.1908,1.2093,1.2242,1.2242,1.199,1.1824,1.2097,1.204,1.2049,1.2152,1.1899,1.1714,1.1585,1.1234,1.0806,1.0372,1.0268,1.0217,1.0217,1.0351,1.0479,1.0662,1.0677,1.055,1.0228,0.9661,0.9403,0.949,0.9312,0.9221,0.9221,0.8993,0.8791,0.8592,0.8746,0.8701,0.8534,0.8555,0.8691,0.8824,0.8754,0.8678,0.8531,0.8432,0.8233,0.7988,0.0,0.0,0.0,0.0,0.0,0.0,0.0,0.0,0.0,0.0,0.0,0.0,0.0,0.0,1.3423,1.3507,1.3054,1.2816,1.2931,1.3226,1.3313,1.3073,1.3408,1.3491,1.3266,1.3114,1.3073,0.0,0.0,0.0,1.3899,1.3899,1.4358,1.5205,1.5205,1.5041,1.4715,1.4383,1.3858,1.3285,1.3589,1.3663,1.3684,1.4326,1.4506,1.4373,1.4175,1.3746,1.323,1.3017,1.2623,1.2233,1.2142,1.1672,1.1049,1.0509,0.0,0.0,0.9848,0.0,0.0,1.0065,1.0213,1.0356,1.0893,1.1124,1.1272,1.1397,1.1427,1.1449,1.16,1.1674,1.1767,1.1951,1.1881,1.1944,1.2211,1.2412,1.2521,1.2622,1.2545,1.24,1.2277,1.183,1.1396,1.0922,1.0602,0.0,1.0425,1.0553,1.0656,1.0675,1.0948,1.0791,1.0185,0.9822,0.9583,0.946,0.9276,0.9216,0.9279,0.9143,0.9031,0.8909,0.8848,0.8629,0.8356,0.8586,0.8748,0.8832,0.8868,0.8879,0.8783,0.8581,0.8382,0.8137,0.0,0.0,0.0,0.0,0.0,0.0,0.0,0.0,0.0,0.0,0.0,0.0,0.0,0.0,0.0,1.4316,1.396,1.3859,1.4201,1.408,1.3892,1.3621,1.3597,1.3539,1.3396,1.3001,1.2895,0.0,0.0,0.0,0.0,0.0,1.3965,1.4813,1.4813,1.5019,1.5362,1.464,1.4524,1.4777,1.4477,1.4534,1.4912,1.5772,1.5811,1.5478,1.5928,1.539,1.4412,1.4298,1.3774,1.3113,1.2821,1.2195,1.1486,0.0,0.0,0.0,0.0,0.0,0.0,0.9685,0.9949,1.0354,1.0721,1.0854,1.0985,1.1285,1.101,1.0797,1.1051,1.1105,1.128,1.1772,1.2119,1.2385,1.2656,1.2693,1.2795,1.3079,1.3262,1.3392,1.3355,1.2971,1.2721,1.2677,1.1836,1.1334,1.1334,1.1334,1.1101,1.0676,1.0626,1.0217,0.9367,0.9323,0.9194,0.8828,0.8877,0.8975,0.9151,0.9159,0.9155,0.9143,0.8913,0.8739,0.8624,0.862,0.8779,0.9096,0.9104,0.9272,0.9525,0.8977,0.8627,0.8382,0.0,0.0,0.0,0.0,0.0,0.0,0.0,0.0,0.0,0.0,0.0,0.0,0.0,0.0,1.513,1.4892,1.4772,1.4613,1.4361,1.4303,1.4174,1.3892,1.3692,1.3491,1.3266,1.2998,1.2898,0.0,0.0,0.0,0.0,0.0,0.0,1.4813,1.4813,1.5019,1.5371,1.5168,1.5042,1.4936,1.5042,1.5196,1.5414,1.5734,1.5906,1.5985,1.5952,1.5754,1.5473,1.5442,1.5111,1.4556,1.3806,1.3213,0.0,0.0,0.0,0.0,1.1138,0.0,0.0,0.0,0.0,0.0,1.0487,1.0575,1.0515,1.0638,1.093,1.1067,1.0852,1.0985,1.116,1.131,1.157,1.1868,1.2361,1.2421,1.2524,1.2789,1.3144,1.3222,1.2705,1.3114,1.3028,0.0,1.2006,1.1958,1.1827,1.1827,1.1751,1.1604,1.1114,1.0805,1.0763,1.0354,1.0104,1.0025,1.0175,1.0279,1.0337,1.0141,0.9983,0.9798,0.9415,0.9108,0.8942,0.8582,0.8611,0.882,0.876,0.8844,0.9023,0.8874,0.8775,0.8676,0.0,0.0,0.0,0.0,0.0,0.0,0.0,0.0,0.0,0.0,0.0,0.0,0.0,0.0,0.0,1.5919,1.5616,1.5285,1.4961,1.4657,1.4361,1.4104,1.3763,1.3515,1.3362,1.2914,1.2781,0.0,0.0,0.0,0.0,0.0,0.0,1.4429,1.4429,1.4769,1.5303,1.5206,1.5177,1.5176,1.5319,1.5479,1.5716,1.6068,1.6208,1.6198,1.6248,1.6192,1.6106,1.5946,1.5622,1.5118,1.4139,1.374,0.0,0.0,0.0,0.0,0.0,0.0,0.0,0.0,0.0,0.0,1.0543,1.043,1.0204,1.0318,1.0517,1.0674,1.0573,1.0647,1.0785,1.0894,1.105,1.1339,1.1874,1.2042,1.2204,1.2361,1.2794,1.2994,1.274,1.3077,1.3121,1.2644,1.2469,1.2332,1.2361,1.2283,1.2231,1.2194,1.163,1.1253,1.1025,1.089,1.08,1.0661,1.0971,1.1084,1.0942,1.0829,1.0485,1.0071,0.9703,0.942,0.9185,0.8971,0.888,0.8867,0.9017,0.9064,0.9026,0.9004,0.8977,0.8928,0.0,0.0,1.5582,1.5995,1.6059,0.0,0.0,0.0,0.0,0.0,0.0,0.0,0.0,0.0,0.0,0.0,1.6389,1.5909,1.5721,1.5034,1.4546,1.428,1.3923,1.3686,1.3597,1.2909,1.2708,0.0,0.0,0.0,0.0,0.0,0.0,0.0,1.388,1.4369,1.5119,1.4895,1.5059,1.543,1.5374,1.5553,1.5923,1.6533,1.6571,1.6345,1.668,1.6694,1.6465,1.6136,1.5789,1.5272,1.4227,1.4115,1.4156,1.3247,1.3231,0.0,0.0,0.0,0.0,0.0,1.1267,0.0,1.087,1.051,1.0192,1.0237,1.0157,1.0108,1.0345,1.0343,1.044,1.0641,1.0701,1.0912,1.1417,1.1718,1.1892,1.1922,1.2357,1.275,1.3068,1.2989,1.316,1.375,1.3007,1.266,1.2915,1.2788,1.2629,1.2444,1.2217,1.1714,1.0852,1.1278,1.1337,1.1097,1.1567,1.165,1.14,1.138,1.0996,1.0373,1.0164,0.9913,0.9662,0.9787,0.9568,0.9265,0.9706,0.9776,0.9598,0.9469,0.9381,0.9282,1.5089,1.5807,1.6426,1.641,0.0,0.0,0.0,0.0,0.0,0.0,0.0,0.0,0.0,0.0,0.0,0.0,1.6798,1.6289,1.5875,1.5314,1.4914,1.4696,1.466,1.4309,1.3631,1.351,1.3283,0.0,0.0,0.0,0.0,0.0,0.0,0.0,1.3853,1.4205,1.4705,1.4768,1.5148,1.5706,1.5701,1.594,1.6284,1.6496,1.6743,1.6977,1.6899,1.704,1.7232,1.6952,1.6751,1.6425,1.5523,1.5168,1.4963,1.4359,1.4119,0.0,0.0,0.0,0.0,0.0,1.2269,0.0,1.142,1.1324,1.1166,1.0775,1.0814,1.0903,1.079,1.0755,1.0685,1.0643,1.0793,1.1052,1.1455,1.1718,1.1958,1.221,1.265,1.2814,1.2521,1.3207,1.3529,1.3121,1.3339,1.3371,1.3081,1.3291,1.3238,1.28,1.2807,1.2699,1.2528,1.2443,1.2381,1.2347,1.2657,1.2786,1.2711,1.2451,1.2242,1.2113,1.188,1.1539,1.1143,1.163,1.1056,0.9949,1.031,1.0617,1.0849,1.0837,1.056,1.0167,1.5919,1.6782,1.7498,1.7363,0.0,0.0,0.0,0.0,0.0,0.0,0.0,0.0,0.0,0.0,0.0,0.0,0.0,0.0,0.0,0.0,1.5674,1.5504,1.5373,1.506,1.4503,1.443,1.4099,0.0,0.0,0.0,0.0,0.0,0.0,0.0,1.3782,1.4125,1.4658,1.4704,1.4965,1.5441,1.583,1.6176,1.6486,1.6633,1.6862,1.7038,1.6943,1.7156,1.7439,1.7014,1.6871,1.6722,1.5668,1.5458,1.5464,1.4731,1.4634,1.4663,0.0,0.0,0.0,1.3752,1.3169,0.0,0.0,1.2012,1.1554,1.1435,1.1198,1.1034,1.1128,1.0942,1.0711,1.0626,1.0791,1.0956,1.0912,1.123,1.1564,1.1697,1.1911,1.2029,1.1984,1.2678,1.3134,1.3179,1.3624,1.3793,1.3561,1.3577,1.3552,1.3403,1.3348,1.3281,1.3222,1.3336,1.3379,1.3385,1.3746,1.3731,1.3398,1.3218,1.2898,1.2445,1.2337,1.2156,1.1947,1.2352,1.2186,1.1569,1.1239,1.1033,1.091,1.1118,1.1047,1.0801,1.6777,1.7574,1.8295,1.8089,0.0,0.0,0.0,0.0,0.0,0.0,0.0,0.0,0.0,0.0,0.0,0.0,0.0,0.0,0.0,0.0,1.6336,1.6207,1.5979,1.5711,1.5418,1.5306,1.4868,1.4063,0.0,0.0,0.0,0.0,0.0,0.0,0.0,1.4138,1.4576,1.4592,1.4811,1.5243,1.5892,1.6201,1.6318,1.6722,1.6908,1.6936,1.7174,1.7458,1.765,1.7072,1.701,1.6927,1.5716,1.5615,1.5799,1.4977,1.5026,1.5272,1.4857,1.4544,1.4376,1.4617,1.4065,1.3403,0.0,0.0,0.0,1.2162,1.1687,1.1308,1.1658,0.0,0.0,1.075,0.0,0.0,0.0,1.0907,0.0,1.1027,1.107,1.1242,1.1552,1.192,1.2444,1.3215,1.3535,1.3724,1.3792,1.3714,1.374,1.3916,1.3845,1.3734,1.3646,1.4035,1.4223,1.4223,1.4524,1.4398,1.3899,1.3899,1.3463,1.2744,1.2797,1.2743,1.2655,1.2974,1.309,1.3014,1.2319,1.1723,1.128,1.1679,1.1727,1.1629,1.6635,1.7448,1.8077,1.7586,0.0,0.0,0.0,0.0,0.0,0.0,0.0,0.0,0.0,1.9608,1.9746,2.0125,1.8845,0.0,1.869,1.7262,0.0,1.6207,1.6324,1.6083,1.5403,1.5664,1.5295,1.4279,0.0,0.0,0.0,0.0,0.0,0.0,1.4372,1.4373,1.4184,1.4496,1.5058,1.5815,1.5918,1.5728,1.5547,1.6511,1.6908,1.7046,1.8119,1.854,1.8504,1.8064,1.7944,1.7734,1.6526,1.6211,1.6156,1.5689,1.562,1.5647,1.557,1.5551,1.5414,1.5113,1.4936,1.4617,1.3691,0.0,1.356,1.2995,0.0,1.2772,1.2813,0.0,0.0,0.0,0.0,0.0,1.1136,1.1476,1.1471,1.0809,1.1014,1.1179,1.1162,1.1302,1.1732,1.2487,1.2636,1.2799,1.3083,1.3667,1.3973,1.4008,1.4324,1.4462,1.4457,1.4559,1.465,1.465,1.4692,1.465,1.4573,1.4573,1.4545,1.4418,1.4532,1.4331,1.3932,1.4259,1.3865,1.3126,1.3494,1.3608,1.3567,1.385,1.3667,1.3178,1.6676,1.7666,1.8505,1.7953,0.0,0.0,0.0,0.0,0.0,0.0,0.0,0.0,2.0523,2.0285,2.0194,2.0389,1.9574,1.9,1.8896,1.8233,0.0,1.7217,1.7263,1.7113,1.6736,1.6787,1.6256,1.5105,1.4942,0.0,0.0,0.0,0.0,0.0,1.4525,1.4682,1.4726,1.517,1.5401,1.549,1.5928,1.5873,1.5675,1.6824,1.7403,1.7642,1.8155,1.8484,1.8614,0.0,1.7917,0.0,1.7238,1.6844,1.6624,1.645,1.6296,1.6155,1.5785,1.5794,1.5845,0.0,0.0,0.0,1.4887,0.0,1.4213,0.0,0.0,0.0,0.0,0.0,0.0,0.0,1.2237,1.2097,0.0,0.0,1.1943,1.1654,0.0,0.0,1.1523,1.1607,1.1881,1.2407,1.255,1.2727,1.2974,1.3339,1.3673,1.3975,1.4161,1.4402,1.4772,1.478,1.4896,1.5124,1.5124,1.5041,1.4915,1.4915,1.4866,1.4699,1.4754,1.4785,1.474,1.4902,1.4823,1.4612,1.4805,1.4403,1.3731,1.4141,1.4154,1.3908,1.7114,1.8055,1.8832,1.8304,0.0,0.0,0.0,0.0,0.0,0.0,2.0381,2.0596,2.1316,2.1043,2.0908,2.1183,2.0664,2.0136,1.9757,1.9304,1.8817,1.8328,1.8001,1.7839,1.7846,1.7629,1.6977,1.5923,1.5767,0.0,0.0,0.0,0.0,0.0,1.5048,1.5273,1.5545,1.6024,1.6044,1.5808,1.6404,1.6655,1.6767,1.7402,1.799,1.8449,1.8449,1.8632,1.877,1.8064,1.8036,0.0,1.7798,1.7468,1.7238,1.7238,1.7132,1.6878,1.6327,0.0,0.0,0.0,0.0,0.0,0.0,0.0,0.0,0.0,0.0,0.0,0.0,0.0,0.0,0.0,0.0,1.2497,0.0,1.1919,0.0,0.0,0.0,0.0,0.0,1.1668,1.1776,1.2186,1.2265,1.2428,1.2711,1.2956,1.3288,1.3711,1.3887,1.4253,1.4809,1.4856,1.5061,1.5389,1.5389,1.5305,1.5173,1.5173,1.5082,1.4908,1.4824,1.4993,1.5248,1.5254,1.5373,1.5565,1.5639,1.4986,1.4006,1.4512,1.4665,1.4582,1.8154,1.8607,1.8832,1.8304,1.9095,1.9798,0.0,1.9577,1.9665,2.0413,2.0268,2.0572,2.1732,2.186,2.2238,2.3224,2.2399,2.1814,2.1802,2.0281,1.9372,1.9349,1.8289,1.7852,1.8176,1.7739,1.7159,1.6465,1.6465,0.0,0.0,0.0,0.0,0.0,1.6257,1.6367,1.6566,1.6939,1.7194,1.7422,1.7449,1.8164,1.9118,0.0,1.8586,1.9265,1.9265,0.0,0.0,1.8806,1.8678,0.0,0.0,0.0,0.0,0.0,0.0,0.0,0.0,0.0,0.0,1.6505,0.0,0.0,0.0,0.0,1.5327,0.0,0.0,0.0,0.0,0.0,0.0,0.0,0.0,0.0,0.0,1.2314,1.1971,1.1152,1.1245,0.0,0.0,1.1127,1.1094,0.0,1.1411,1.1549,1.2,1.2542,1.289,1.3038,1.3653,1.4181,1.4518,1.4787,1.5061,1.5389,1.5389,1.5389,1.5389,1.5389,1.5389,1.5389,1.5173,1.5208,1.5396,1.5461,1.534,1.5175,1.5747,1.5658,1.52,1.5509,1.5549,1.5358,1.9258,1.9409,1.9346,1.882,1.9334,1.9846,2.0048,1.9802,2.0093,2.1452,2.1699,2.2379,2.402,2.3979,2.4108,2.4798,2.3652,2.2754,2.2444,2.1564,2.0997,2.0931,1.9998,1.9445,1.9401,1.8583,1.7679,1.6707,1.6562,0.0,0.0,0.0,0.0,0.0,0.0,1.6609,1.6531,1.7402,1.752,1.7156,1.7968,1.8864,1.9675,0.0,1.9462,1.9745,2.005,1.9775,0.0,1.981,1.9573,1.9174,1.9631,1.9174,1.8564,1.8836,1.8611,0.0,0.0,0.0,1.7989,1.7591,0.0,0.0,0.0,0.0,0.0,0.0,0.0,0.0,0.0,0.0,0.0,0.0,0.0,0.0,0.0,1.242,1.2064,1.1589,1.1647,1.1598,0.0,0.0,0.0,0.0,1.166,0.0,1.1677,1.2548,1.3009,1.2868,1.3397,1.3814,1.4181,1.4465,1.4787,1.5068,1.5287,1.5389,1.5389,1.5389,1.5389,1.5389,1.534,1.5416,1.5616,1.5609,1.5804,1.6085,1.5865,1.5885,1.5994,1.5966,1.5943,1.5846,1.9849,1.9798,1.9698,1.9334,1.9748,2.0195,2.0428,2.0709,2.135,2.2578,2.3007,2.3778,2.5302,2.5051,2.5048,2.5592,2.4773,2.3843,2.3006,2.2616,2.229,2.1989,2.1253,2.0791,2.0706,1.9818,1.8805,1.7751,1.733,1.6983,0.0,0.0,0.0,0.0,0.0,1.7486,1.7418,1.8472,1.8576,1.8099,1.9001,1.9764,0.0,0.0,2.0177,1.9981,0.0,2.0245,1.9854,2.0401,2.0101,1.9611,2.0159,1.9803,1.9184,1.9449,1.9231,1.892,1.891,1.8723,0.0,1.8153,1.7906,0.0,1.689,0.0,1.6759,0.0,0.0,0.0,0.0,0.0,0.0,0.0,0.0,0.0,0.0,1.236,1.2079,1.1783,1.1829,1.1789,1.1506,0.0,0.0,0.0,0.0,0.0,0.0,1.2472,1.2888,1.291,1.3444,1.3866,1.4201,1.4612,1.4941,1.5142,1.555,1.5714,1.5631,1.5631,1.5548,1.5416,1.5416,1.5416,1.5492,1.5492,1.5742,1.6132,1.574,1.5784,1.6046,1.6074,1.6144,1.6269,1.9961,1.986,1.986,1.9886,2.0352,2.0769,2.0945,2.2167,2.3275,2.3763,2.4152,2.4774,2.5645,2.531,2.5232,2.5781,2.58,2.5168,2.3719,2.3604,2.3329,2.276,2.2194,2.1961,2.2126,2.1289,2.0417,1.9522,0.0,0.0,0.0,0.0,0.0,0.0,1.8491,1.8825,1.9128,2.0001,2.0301,2.0179,2.0516,2.0848,2.1205,2.1205,2.0693,2.002,2.0489,2.0644,2.0605,2.0644,2.0372,1.9981,1.9981,1.9981,1.9942,1.9942,1.9942,1.9817,1.9497,1.9135,1.8716,1.8321,1.822,0.0,0.0,0.0,1.727,0.0,0.0,0.0,0.0,0.0,0.0,0.0,0.0,0.0,0.0,0.0,1.2078,1.1775,1.182,1.1922,1.1937,1.1649,0.0,0.0,0.0,0.0,0.0,1.2315,1.2558,1.3065,1.3749,1.4254,1.4575,1.5126,1.5475,1.5601,1.6149,1.6319,1.6128,1.6128,1.5873,1.5477,1.5436,1.5325,1.5131,1.5131,1.5242,1.5394,1.5394,1.5431,1.5506,1.5893,1.6284,1.6636,2.0721,2.0766,2.0904,2.1054,2.0867,2.1059,2.208,2.2572,2.3411,2.5188,2.5894,2.6573,2.7504,2.7843,2.7956,2.7802,2.7418,2.704,2.6635,2.6266,2.6104,2.6201,2.5069,2.4372,2.4216,2.2333,2.0916,2.0103,1.9224,0.0,1.8512,0.0,0.0,0.0,0.0,1.8731,1.8555,1.956,2.031,2.0929,2.1001,2.1128,2.1244,0.0,2.131,2.0925,2.1349,2.1108,2.0683,2.13,2.1195,2.0925,2.1233,2.0915,2.0489,2.077,2.042,2.0107,2.0987,2.0918,2.0447,2.0072,1.9966,1.9697,0.0,0.0,0.0,0.0,0.0,0.0,0.0,0.0,0.0,0.0,0.0,0.0,0.0,0.0,1.2334,1.2216,1.2003,1.1696,1.1353,1.168,0.0,0.0,0.0,0.0,0.0,0.0,1.2942,1.2889,1.3678,1.4212,1.4449,1.5229,1.5652,1.5669,1.6315,1.6607,1.6533,1.6402,1.636,1.636,1.6229,1.6031,1.5839,1.5624,1.5484,1.5394,1.5394,1.5694,1.6148,1.6264,1.6557,1.6885,2.1051,2.1243,2.149,2.1617,2.2052,2.2561,2.3149,2.3658,2.4595,2.6305,2.7037,2.7643,2.8233,2.8564,2.8678,2.8526,2.8222,2.7837,2.7406,2.7322,2.7269,2.7188,2.6638,2.6124,2.5661,2.4223,2.2769,2.1346,2.0445,0.0,1.9127,0.0,0.0,0.0,0.0,1.9265,1.9091,2.0246,2.1145,2.1731,2.1731,2.1731,0.0,2.2217,2.206,2.1647,2.2074,2.1781,2.1185,2.1655,2.154,2.1244,2.1474,2.1233,2.0926,2.1124,2.0859,2.0679,2.1629,2.1575,2.1173,2.1182,2.1003,2.0582,1.9497,1.9754,2.0048,0.0,1.91,1.8745,0.0,0.0,0.0,0.0,0.0,0.0,0.0,1.2959,1.2609,1.2457,1.2228,1.1818,1.1234,1.156,1.1751,0.0,0.0,0.0,0.0,0.0,1.3204,1.3351,1.4021,1.449,1.474,1.5632,1.6103,1.6103,1.6877,1.7221,1.7131,1.7009,1.6886,1.6689,1.6566,1.636,1.6072,1.594,1.585,1.5824,1.5898,1.6143,1.6389,1.6446,1.6726,1.7106,2.1338,2.1743,2.2137,2.2105,2.3511,2.4567,2.435,2.5218,2.6292,2.7262,2.7891,2.8276,2.8304,2.8392,2.846,2.8542,2.863,2.8321,2.7415,2.774,2.7723,2.7175,2.7483,2.7371,2.6734,2.6253,2.4991,2.2864,0.0,0.0,0.0,0.0,0.0,0.0,0.0,0.0,0.0,2.1436,2.2239,2.2649,2.2611,2.2606,2.2713,2.3041,2.2829,2.237,2.278,2.2436,2.1807,2.1807,2.1619,2.1373,2.1373,2.1375,2.1379,2.1451,2.1439,2.1487,2.2022,2.1841,2.1633,2.2048,2.1882,2.1402,2.0623,2.0703,2.0807,2.0426,2.0016,1.9751,0.0,0.0,0.0,0.0,0.0,0.0,0.0,1.3341,1.3032,1.2732,1.2617,0.0,0.0,0.0,0.0,0.0,0.0,0.0,0.0,0.0,1.3306,1.3991,1.447,1.4858,1.524,1.6228,1.6674,1.6683,1.7593,1.7951,1.7781,1.774,1.7416,1.6853,1.6853,1.6599,1.6221,1.618,1.6263,1.6433,1.6634,1.6611,1.6507,1.6655,1.7006,1.7419,2.2515,2.3412,2.399,2.3654,2.4605,2.564,2.6344,2.714,2.7824,2.8287,2.8809,2.8989,2.8512,2.8905,2.9086,2.8752,2.926,2.951,2.9311,2.9398,2.9297,2.897,2.8774,2.8425,2.7977,2.6694,2.5288,2.3856,0.0,0.0,0.0,0.0,0.0,0.0,0.0,0.0,2.1308,2.157,0.0,2.4009,2.364,2.3726,2.4124,2.3795,2.3605,2.3501,2.3597,2.2853,2.1807,2.1807,2.2028,2.2259,2.2259,2.2308,2.2413,2.2757,2.2595,2.2483,2.3329,2.3494,2.3452,2.3546,2.3753,2.3749,2.2963,2.3022,2.3134,2.2771,2.223,2.16,2.1087,0.0,0.0,0.0,0.0,0.0,0.0,1.4571,1.3829,1.3671,1.3643,1.3222,1.2149,0.0,0.0,0.0,0.0,0.0,0.0,0.0,1.3159,0.0,1.4329,0.0,0.0,0.0,1.7136,1.7099,1.7948,1.8313,1.8273,1.7861,1.774,1.7749,1.7578,1.7294,1.6837,1.664,1.6525,1.6456,1.7052,1.7121,1.6987,1.7591,1.7979,1.811,2.3577,2.4295,2.4797,2.4611,2.5759,2.6903,2.7392,2.8337,2.885,2.851,2.8758,2.8881,2.8584,2.9063,2.9341,2.9145,2.9326,2.9495,2.9611,2.9599,2.9599,2.9611,2.9439,2.9125,2.8636,2.7616,2.6286,2.4621,0.0,0.0,0.0,0.0,0.0,2.0161,0.0,2.1163,0.0,0.0,0.0,2.4582,2.4727,2.4936,2.5183,2.5182,2.4997,2.469,2.4944,2.4266,2.3136,2.2796,2.2745,2.2853,2.2853,2.2877,2.2941,2.3135,2.3031,2.2997,2.3662,2.3837,2.3954,2.4441,2.4556,2.4409,2.4116,2.4118,2.4123,2.3762,2.346,2.2903,2.1585,1.945,0.0,0.0,0.0,0.0,0.0,0.0,1.4783,1.4629,1.4412,1.3784,1.2571,1.2762,0.0,0.0,0.0,0.0,0.0,0.0,1.3408,0.0,0.0,0.0,0.0,0.0,0.0,1.7212,1.8027,1.8402,1.8393,1.8152,1.8031,1.7991,1.791,1.774,1.7497,1.7424,1.718,1.7007,1.7792,1.7893,1.7675,1.8413,1.875,1.8696,2.4493,2.5056,2.5546,2.5611,2.7005,2.815,2.8411,2.9353,2.9677,2.868,2.8671,2.8734,2.8658,2.9042,2.9341,2.9341,2.9236,2.9248,2.947,2.947,2.956,2.9702,2.9753,2.954,2.8962,2.8487,2.734,0.0,0.0,0.0,0.0,0.0,0.0,0.0,0.0,0.0,0.0,0.0,2.5108,2.5367,2.5885,2.6155,2.6267,2.6553,2.633,2.5903,2.6263,2.5801,2.4908,2.4398,2.3889,2.344,2.337,2.3442,2.3577,2.3605,2.3623,2.3695,2.3998,2.4186,2.4433,2.5158,2.5147,2.4967,2.5117,2.4988,2.4803,2.4437,2.4337,2.3771,2.2015,2.035,0.0,0.0,0.0,0.0,0.0,0.0,1.5742,1.5604,1.5039,1.4253,1.3223,0.0,0.0,0.0,0.0,0.0,1.2197,0.0,0.0,0.0,0.0,1.5101,1.5747,0.0,1.7136,1.7249,1.8066,1.8442,1.8442,1.8362,1.8233,1.808,1.804,1.8,1.8,1.8,1.7797,1.7621,1.8431,1.8546,1.8341,1.8987,1.9364,1.943,2.5215,2.607,2.693,2.7316,2.8314,2.9301,3.0049,3.0508,3.0424,2.9419,2.9305,2.9188,2.8797,2.8976,2.9131,2.9131,2.9275,2.947,2.9753,2.9753,2.9663,2.947,2.965,2.956,2.9096,2.8898,2.8027,0.0,0.0,2.4093,0.0,0.0,0.0,0.0,0.0,0.0,0.0,2.479,2.5833,2.738,2.7105,2.7254,2.7659,2.7267,2.7082,2.7047,2.7093,2.6942,2.6673,2.6591,2.5612,2.4311,2.3971,2.4252,2.4787,2.4957,2.501,2.502,2.5062,2.538,2.5728,2.5812,2.6082,2.6393,2.6776,2.6356,2.5834,2.5673,2.5179,2.4247,2.2524,2.2362,2.1672,0.0,0.0,0.0,0.0,0.0,1.6661,1.6584,1.5519,1.47,1.4526,1.3454,0.0,0.0,1.2112,0.0,0.0,0.0,0.0,1.3596,0.0,1.5261,1.5522,1.6981,1.7625,1.7492,1.828,1.866,1.866,1.8241,1.8161,1.8362,1.8121,1.8,1.8,1.8,1.8,1.8002,1.8435,1.8676,1.88,1.922,1.9849,2.0447,2.7281,2.7781,2.8373,2.9145,2.9707,3.0274,3.0896,3.1122,3.1065,3.0638,3.0493,3.0385,3.0183,3.0264,3.018,2.9858,2.9782,2.9685,2.9585,2.956,2.956,2.965,2.974,2.9702,2.9507,2.91,2.8437,0.0,0.0,0.0,0.0,0.0,0.0,0.0,0.0,2.4619,2.5183,2.626,2.7078,2.7702,2.7857,2.808,2.8231,2.8059,2.7926,2.7805,2.7926,2.7603,2.7115,2.7208,2.6393,2.5319,2.5174,2.5177,2.5285,2.5369,2.5496,2.5633,2.5633,2.577,2.5979,2.6218,2.6362,2.6637,2.7186,2.7006,2.6581,2.6344,2.5635,2.4874,2.4132,2.3306,2.2537,2.2025,0.0,0.0,0.0,0.0,0.0,1.7895,1.691,1.6081,1.5626,1.4562,0.0,0.0,0.0,0.0,0.0,0.0,0.0,1.3951,0.0,1.5415,1.5869,1.7042,1.7703,1.7867,1.8426,1.8652,1.8523,1.8322,1.8193,1.8152,1.804,1.8,1.7991,1.8152,1.8241,1.8316,1.8936,1.9364,1.9718,2.0227,2.0802,2.1275,2.9358,2.9529,2.9923,3.0984,3.106,3.1169,3.1784,3.1773,3.1682,3.1686,3.1602,3.1411,3.1124,3.1069,3.0901,3.0501,3.0368,3.0119,2.9728,2.9736,2.9774,2.9792,2.9792,0.0,2.9792,2.939,2.8875,2.8348,2.7192,0.0,0.0,0.0,0.0,0.0,2.5671,2.6078,2.6203,2.7515,2.806,2.8059,2.8433,2.855,2.851,2.851,2.8431,2.8299,2.8471,2.8087,2.7592,2.7765,2.7267,2.6517,2.6185,2.5988,2.5915,2.5915,2.6093,2.626,2.6093,2.6218,2.6426,2.658,2.6663,2.6869,2.7551,2.7338,2.6866,2.6451,2.5804,2.5276,2.5111,2.4166,2.3466,2.3628,0.0,0.0,0.0,1.9977,0.0,1.8857,1.7636,1.672,1.6509,1.5414,0.0,0.0,0.0,0.0,0.0,0.0,0.0,0.0,0.0,0.0,1.6272,1.7195,1.7868,1.8175,1.8585,1.8732,1.8603,1.8603,1.8442,1.8201,1.8161,1.8121,1.8121,1.8241,1.8282,1.8348,1.8894,1.9475,2.005,2.049,2.1011,2.1508,3.1216,3.1254,3.1629,3.2751,3.2292,3.207,3.2869,3.2654,3.2366,3.2317,3.2447,3.2207,3.1207,3.0962,3.0912,3.0873,3.0873,3.0749,3.0407,3.0517,3.0357,0.0,0.0,2.9792,2.9792,2.9779,2.9503,2.8888,0.0,0.0,2.678,0.0,2.6449,2.7256,2.7078,2.7567,2.8536,2.8383,2.8472,2.8791,2.8791,2.8685,2.851,2.851,2.851,2.851,2.851,2.851,2.8471,2.8471,2.8339,2.7966,2.6857,2.6663,2.6891,2.6891,2.7044,2.7092,2.661,2.6981,2.74,2.7015,2.7056,2.7383,2.8059,2.7406,2.6543,2.5951,2.5553,2.5276,2.5111,2.5194,2.4742,2.3073,0.0,0.0,0.0,1.996,0.0,1.9205,1.7253,1.6243,1.7107,1.5693,0.0,0.0,0.0,0.0,0.0,0.0,0.0,1.5065,1.5782,0.0,1.6691,1.7606,1.8179,1.8386,1.8813,1.9002,1.9002,1.9002,1.8891,1.87,1.8482,1.8402,1.8353,1.8112,1.8,1.8,1.8,1.8618,1.9495,1.9504,2.0158,2.1042,3.1019,3.1177,3.1422,3.2071,3.2032,3.2055,3.2435,3.2424,3.2528,3.3034,3.3031,3.3023,3.312,3.2577,3.2069,0.0,3.1714,3.1621,0.0,3.1525,3.1306,3.0828,3.0815,3.0494,2.9792,2.9792,2.9704,2.9515,0.0,0.0,0.0,2.7513,2.7562,2.7858,2.8161,2.84,2.8623,2.8932,2.9036,2.9,2.9,2.8882,2.8685,2.8685,2.8618,2.851,2.851,2.8431,2.8299,2.8471,2.8391,2.8167,2.8115,2.7822,2.7499,2.7499,2.7603,2.7626,2.7505,2.736,2.7307,2.7319,2.7237,2.7319,2.7869,2.7668,2.7165,2.6314,2.587,2.554,2.5183,2.5111,2.5039,2.4588,2.3844,0.0,2.2768,0.0,1.9819,1.9807,1.839,1.7564,1.7991,1.7044,0.0,0.0,0.0,0.0,0.0,0.0,0.0,0.0,1.6672,0.0,1.7471,1.8147,1.8685,1.9009,1.9128,1.9112,1.9002,1.8851,1.8772,1.87,1.8612,1.8612,1.8612,1.8491,1.8491,1.8491,1.8491,1.8965,1.9717,1.9717,2.0245,2.0997,3.2094,3.2202,3.2319,3.2751,3.2697,3.261,3.2771,3.267,3.2697,3.3008,3.3073,3.3307,3.37,3.3276,0.0,3.2714,3.2682,3.2497,3.2109,3.2398,3.2254,3.1565,3.1552,3.1229,3.0598,3.0279,0.0,3.0139,2.9542,2.9076,2.8737,2.8537,2.8462,2.8475,2.8823,2.8896,2.8831,2.9165,2.9197,2.9091,2.9091,2.9,2.8922,2.8922,2.8803,2.8618,2.8618,2.8498,2.8339,2.8471,2.8459,2.8486,2.8724,2.8502,2.8171,2.8103,2.8099,2.8082,2.7829,2.7615,2.7482,2.7482,2.736,2.729,2.7667,2.7537,2.7233,2.6813,2.6186,2.562,2.5409,2.5218,2.5111,2.5218,2.4263,2.3528,2.3594,0.0,1.9995,0.0,0.0,0.0,0.0,1.8092,1.7895,0.0,0.0,0.0,0.0,0.0,0.0,1.7175,1.7803,0.0,1.8575,1.8675,1.8907,1.9301,1.9301,1.9222,1.9112,1.8962,1.8922,1.8922,1.8851,1.8812,1.8812,1.874,1.87,1.8718,1.886,1.9253,1.9701,1.985,2.0254,2.0727,3.39,3.3886,3.3913,3.4299,3.3806,3.3414,3.3522,3.3237,3.2843,3.2446,3.2764,3.3079,3.3234,3.3258,3.3327,3.3519,0.0,0.0,3.2342,3.3132,3.3131,3.2018,3.2018,3.1992,3.1874,3.1136,3.0737,3.0698,3.0126,2.983,2.983,2.9378,2.9131,2.9131,2.9091,2.9091,2.9091,2.9091,2.9091,2.9091,2.9091,2.9091,2.9091,2.9091,2.8961,2.8791,2.8803,2.8657,2.851,2.851,2.8618,2.8803,2.8791,2.8803,2.8764,2.8578,2.851,2.8351,2.7725,2.7748,2.7841,2.7603,2.7412,2.7301,2.7482,2.715,2.692,2.7277,2.6432,2.5649,2.5775,2.5432,2.5123,2.5123,2.4206,2.3561,2.3773,2.1599,1.9918,0.0,0.0,0.0,1.834,1.8914,1.9325,0.0,0.0,0.0,0.0,0.0,1.7942,1.8807,1.9165,1.9549,1.9976,1.9221,1.9012,1.9341,1.9341,1.9341,1.9301,1.9341,1.9341,1.9301,1.9112,1.9002,1.9002,1.8838,1.8776,1.882,1.9194,1.9417,1.9625,2.0,2.0243,2.0374,0.0,0.0,3.2828,3.3093,3.2695,3.2494,3.2868,3.283,3.2895,3.3165,3.3311,3.3493,3.3859,3.3701,3.3688,3.3952,3.3714,3.3654,3.3824,3.3964,3.3595,3.2568,3.3093,3.2883,3.1707,3.1487,3.1087,3.0482,3.033,3.0254,3.0254,2.9818,2.9624,2.9624,2.926,2.9091,2.9091,2.9091,2.9091,2.9091,2.9091,2.9013,2.8882,2.8882,2.8843,2.8803,2.8618,2.8657,2.8724,2.855,2.855,2.8618,2.8764,2.8685,2.8578,2.8685,2.8618,2.8471,2.8311,2.8082,2.7921,2.8018,2.8018,2.795,2.7829,2.7815,2.7683,2.7057,2.6804,2.6497,2.572,2.5521,2.5418,2.5277,2.4263,2.3561,2.3773,2.22,2.1033,0.0,2.0264,1.9744,1.9674,1.993,2.0045,0.0,0.0,0.0,0.0,2.0508,2.0764,2.019,2.061,2.085,2.0808,2.0539,2.0178,1.9745,1.9745,1.9578,1.9301,1.9618,1.9578,1.9301,1.9262,1.9231,1.925,1.9358,1.9403,1.9407,1.9677,1.9951,2.0271,2.0368,2.0589,2.0817,3.2699,3.2762,3.2809,3.3037,3.2853,3.2733,3.298,3.3103,3.3219,3.3447,3.3514,3.3672,3.3911,3.381,3.381,3.4076,3.3999,3.4007,3.4142,3.443,3.4219,3.3436,3.378,3.3661,3.2804,3.245,3.1837,3.1022,3.0611,3.0406,3.0406,2.9947,2.9741,2.9754,2.9496,2.9275,2.9091,2.9091,2.9052,2.8961,2.8961,2.8961,2.8922,2.8922,2.8882,2.8803,2.8685,2.8657,2.8657,2.855,2.851,2.851,2.8618,2.8578,2.851,2.8618,2.8578,2.8471,2.8379,2.8191,2.803,2.807,2.7978,2.7898,2.803,2.7938,2.7815,2.7505,2.7179,2.6757,2.6111,2.5744,2.5405,2.5013,2.421,2.3577,2.3448,2.2109,2.1265,2.1504,2.1016,2.0752,2.0931,2.1273,2.138,2.1263,2.1469,0.0,2.1078,2.206,2.2139,2.1136,2.1666,2.1946,2.1834,2.1321,2.0888,2.0652,2.0652,2.07,2.0803,2.0822,2.0822,2.0793,2.0329,2.0298,2.0479,2.0378,2.0471,2.0673,2.095,2.1044,2.098,2.1171,2.114,2.0997,3.3725,3.3558,3.3405,3.3597,3.3531,3.3484,3.3484,3.3641,3.3683,3.3441,3.3598,3.367,3.367,3.3641,3.3725,3.3992,3.4189,3.4201,3.3935,3.4561,3.4697,3.4073,3.4206,3.4259,3.418,3.3476,3.2738,3.1941,3.1048,3.0611,3.0611,3.0062,2.9819,2.9781,2.9742,2.9523,2.9197,2.9197,2.904,2.8843,2.8843,2.8922,2.9013,2.9013,2.8895,2.8764,2.8764,2.8657,2.851,2.851,2.851,2.851,2.851,2.851,2.851,2.851,2.851,2.8471,2.8299,2.8259,2.8191,2.8002,2.7788,2.7765,2.8139,2.7886,2.7725,2.8139,2.7556,2.694,2.6721,2.6113,2.5416,2.468,2.4078,2.3547,2.3051,0.0,2.1348,2.1847,2.1724,2.1753,2.2116,2.2488,2.2742,2.272,2.2731,2.2731,2.2765,2.306,2.2876,2.2104,2.2537,2.281,2.2886,2.1991,2.1664,2.1869,2.1869,2.215,2.2707,2.236,2.236,2.2585,2.1785,2.1671,2.1969,2.1624,2.1684,2.2107,2.2445,2.2236,2.1767,2.2142,2.1856,2.1302,3.3615,3.3843,3.403,3.4225,3.3914,3.3725,3.3949,3.4034,3.3865,3.3441,3.3598,3.3641,3.3471,3.3283,3.3368,3.3725,3.3797,3.3898,3.4043,3.4204,3.3996,3.3383,3.4237,3.4481,3.3952,3.3806,3.3356,3.2555,3.1902,3.159,3.1577,3.0701,3.0279,3.0279,2.9871,2.9665,2.9588,2.9588,2.938,2.9052,2.9052,2.8855,2.859,2.859,2.859,2.855,2.855,2.855,2.851,2.851,2.851,2.851,2.851,2.851,2.851,2.851,2.851,2.851,2.8471,2.8471,2.8391,2.8179,2.8259,2.8299,2.8219,2.8127,2.8087,2.8167,2.8068,2.7786,2.7121,2.6706,2.6109,2.5099,2.401,2.3226,2.3019,0.0,2.2528,2.2771,2.3146,2.3247,2.2805,2.2819,2.2846,2.279,2.2788,2.2859,2.3035,2.3512,2.3788,2.3808,2.3408,2.3348,2.364,2.3342,2.3326,2.3528,2.3528,2.341,2.3202,2.3484,2.3313,2.2869,2.2707,2.2595,2.2492,2.2613,2.2678,2.277,2.2948,2.295,2.2872,2.294,2.2872,2.2784,3.4018,3.4074,3.4118,3.4243,3.3937,3.3755,3.3852,3.3992,3.4034,3.3823,3.3865,3.3823,3.3598,3.3611,3.3654,3.3725,3.3713,3.3797,3.4076,3.4202,3.4113,3.3866,3.4308,3.4446,3.4196,3.3894,3.3578,3.3169,3.2594,3.2293,3.228,3.1513,3.1125,3.1112,3.0636,3.0266,3.0075,3.0075,2.9832,2.9419,2.9419,2.9197,2.8816,2.8816,2.8709,2.851,2.851,2.851,2.851,2.851,2.851,2.851,2.851,2.851,2.851,2.851,2.851,2.851,2.851,2.851,2.8471,2.8379,2.8431,2.8471,2.8379,2.8339,2.8339,2.8219,2.8219,2.8012,2.7384,2.6901,2.6397,2.5696,2.4588,0.0,2.3723,2.337,2.3266,2.3652,2.3903,2.4017,2.3921,2.4049,2.4054,2.3796,2.4018,2.4164,2.4116,2.4254,2.4377,2.4453,2.435,2.4243,2.4165,2.4119,2.4266,2.4613,2.4613,2.4703,2.4859,2.4951,2.4787,2.4489,2.4106,2.395,2.3992,2.3852,2.3892,2.4124,2.4094,2.3917,2.3647,2.3406,2.3232,2.3091,3.4397,3.4272,3.4199,3.4341,3.4228,3.4084,3.4255,3.4408,3.4549,3.4519,3.4519,3.4421,3.4195,3.4251,3.4212,3.393,3.3918,3.3951,3.3992,3.423,3.4397,3.4314,3.4397,3.4397,3.4397,3.3992,3.3783,3.3783,3.3195,3.2894,3.2894,3.2306,3.2006,3.198,3.1431,3.1031,3.0714,3.0572,3.0279,2.9858,2.9858,2.9613,2.9236,2.9236,2.9013,2.863,2.863,2.859,2.851,2.851,2.851,2.851,2.851,2.851,2.851,2.851,2.851,2.851,2.851,2.851,2.851,2.851,2.851,2.851,2.851,2.851,2.8471,2.8299,2.8259,2.814,2.7656,2.7195,2.6661,2.614,0.0,2.4445,0.0,2.4052,2.4075,2.4669,2.4848,2.4945,2.5071,2.5261,2.522,2.4751,2.5102,2.5266,2.5088,2.4932,2.4909,2.5009,2.5082,2.4986,2.473,2.484,2.5121,2.5543,2.5543,2.5812,2.6362,2.6135,2.6063,2.6021,2.5401,2.5232,2.5327,2.4935,2.4978,2.5285,2.5031,2.469,2.4219,2.3884,2.358,2.3319,3.4356,3.4397,3.4538,3.5087,3.5191,3.5361,3.5857,3.5935,3.5891,3.5686,3.5686,3.5686,3.5642,3.527,3.4889,3.4584,3.4533,3.4302,3.3751,3.4147,3.4314,3.4118,3.4314,3.4397,3.4397,3.4358,3.4332,3.4332,3.3796,3.3522,3.3509,3.2921,3.262,3.2607,3.1993,3.1732,3.1667,3.1171,3.071,3.0368,3.0368,3.0075,2.9665,2.9665,2.9419,2.9052,2.9052,2.8828,2.851,2.851,2.851,2.851,2.851,2.851,2.851,2.851,2.851,2.851,2.851,2.851,2.851,2.851,2.851,2.851,2.851,2.851,2.851,2.8471,2.8471,2.8419,2.8159,2.7861,2.7205,2.604,0.0,0.0,2.4522,2.4776,2.523,2.5889,2.6405,2.6504,2.5949,2.5945,2.5701,2.5105,2.5099,2.52,2.5356,2.5356,2.5548,2.6001,2.5473,2.5282,2.5404,2.5867,2.6224,2.6505,2.6505,2.661,2.685,2.6644,2.6561,2.652,2.6229,2.6021,2.5812,2.5601,2.5559,2.5559,2.5285,2.4914,2.4454,2.4454,2.4282,2.412,3.4699,3.4606,3.4702,3.5239,3.5342,3.5507,3.5846,3.5784,3.5696,3.5797,3.5664,3.5519,3.5398,3.5309,3.522,3.5091,3.5122,3.4966,3.4688,3.4692,3.4565,3.4298,3.4356,3.4397,3.4397,3.4397,3.4397,3.4397,3.4188,3.4097,3.4071,3.3509,3.3247,3.3221,3.2633,3.2372,3.2333,3.1719,3.1394,3.1254,3.0903,3.052,3.0114,3.0114,2.9883,2.9484,2.9484,2.9223,2.8855,2.8855,2.8709,2.851,2.851,2.851,2.851,2.851,2.851,2.851,2.851,2.851,2.851,2.851,2.851,2.851,2.851,2.851,2.851,2.851,2.851,2.8471,2.8391,2.7999,2.7654,2.7505,0.0,2.61,2.6256,2.6271,2.6259,2.64,2.6828,2.6911,2.642,2.6561,2.6488,2.6017,2.6103,2.6203,2.6163,2.6163,2.6242,2.6382,2.6188,2.6117,2.6199,2.6182,2.6313,2.6603,2.6437,2.6396,2.649,2.6561,2.6437,2.6188,2.6188,2.6074,2.5895,2.5812,2.578,2.577,2.5559,2.5348,2.5137,2.4871,2.4786,2.4743,3.567,3.5504,3.5557,3.6204,3.634,3.6418,3.6627,3.664,3.6627,3.6564,3.6538,3.6404,3.6206,3.6116,3.5994,3.5814,3.5788,3.5677,3.5457,3.5236,3.4914,3.4424,3.4397,3.4397,3.4397,3.4397,3.4397,3.4397,3.4397,3.4397,3.4384,3.4018,3.3849,3.3822,3.3234,3.2973,3.2934,3.2359,3.2071,3.2032,3.1679,3.1252,3.0829,3.0829,3.0573,3.0174,3.0174,3.0027,2.9846,2.9674,2.9434,2.9205,2.9044,2.8895,2.8751,2.8751,2.8643,2.851,2.851,2.851,2.851,2.851,2.851,2.851,2.851,2.851,2.851,2.851,2.851,2.851,2.851,2.821,2.8041,2.8234,2.7529,2.7067,2.7424,2.7316,2.7174,2.72,2.7442,2.7481,2.7147,2.7325,2.7301,2.6994,2.7105,2.7138,2.7015,2.685,2.6809,2.688,2.6809,2.6809,2.6809,2.6479,2.6396,2.6603,2.6396,2.6354,2.6396,2.6561,2.6479,2.6229,2.6188,2.6157,2.6104,2.6021,2.6021,2.6104,2.5979,2.577,2.5506,2.52,2.5115,2.5031,3.7443,3.7214,3.7217,3.8244,3.8412,3.8455,3.8599,3.8993,3.9024,3.8304,3.8594,3.8832,3.8602,3.792,3.7285,3.6761,3.6638,3.6379,3.5854,3.5703,3.5239,3.4424,3.4397,3.4397,3.4397,3.4397,3.4397,3.4397,3.4397,3.4397,3.4397,3.4397,3.4397,3.4371,3.3835,3.36,3.3561,3.2947,3.2698,3.2698,3.2685,3.2346,3.181,3.181,3.1565,3.1214,3.1214,3.1347,3.1424,3.0947,3.0811,3.0741,3.0253,2.9725,2.9304,2.9304,2.8931,2.8522,2.8522,2.8522,2.8522,2.851,2.851,2.851,2.851,2.851,2.851,2.851,2.851,2.851,2.851,2.851,2.8342,2.7774,2.769,2.769,2.769,2.769,2.7921,2.845,2.851,2.8431,2.8219,2.8219,2.8099,2.7921,2.7893,2.7893,2.7893,2.7476,2.7301,2.7522,2.7301,2.719,2.719,2.6809,2.6603,2.6603,2.6603,2.6685,2.6891,2.6685,2.6727,2.685,2.6396,2.6354,2.6561,2.6313,2.6354,2.6603,2.6603,2.6166,2.5485,2.5485,2.5242,2.4903,3.7914,3.7678,3.7664,3.8327,3.8479,3.8546,3.876,3.8774,3.8684,3.8498,3.844,3.8381,3.8349,3.8122,3.8011,3.8034,3.8021,3.7756,3.7149,3.687,3.6411,3.5782,3.487,3.4397,3.4397,3.4397,3.4397,3.4397,3.4397,3.4397,3.4397,3.4397,3.4397,3.4384,3.4228,3.4162,3.4123,3.3561,3.3326,3.3287,3.2868,3.2594,3.2437,3.2437,3.2358,3.224,3.224,3.2106,3.1886,3.1752,3.1521,3.1207,3.0741,3.0269,2.994,3.026,3.0027,2.9615,2.9565,2.9294,2.8979,2.8607,2.851,2.851,2.851,2.851,2.851,2.851,2.851,2.851,2.851,2.851,2.8462,2.8294,2.827,2.827,2.827,2.8376,2.8476,2.8486,2.8618,2.8605,2.8419,2.8299,2.8179,2.8099,2.8002,2.7893,2.7893,2.776,2.7719,2.7788,2.7534,2.7412,2.7412,2.7003,2.6809,2.6809,2.6685,2.6644,2.6685,2.6644,2.6644,2.6685,2.652,2.652,2.6592,2.652,2.652,2.6603,2.6603,2.6479,2.626,2.626,2.6218,2.6052,3.9102,3.8853,3.8773,3.9271,3.937,3.9384,3.9353,3.9339,3.9295,3.9011,3.9024,3.9024,3.8922,3.8742,3.8711,3.8859,3.8769,3.8546,3.8132,3.7755,3.7383,3.6957,3.6022,3.533,3.4908,3.4771,3.4701,3.4701,3.4481,3.4397,3.4397,3.4397,3.4397,3.4397,3.4397,3.4397,3.4384,3.4045,3.3914,3.3875,3.3509,3.3247,3.3051,3.3051,3.3051,3.3051,3.3051,3.3021,3.2987,3.2782,3.2466,3.2022,3.1759,3.1232,3.0767,3.1281,3.0788,3.0139,3.0294,2.9963,2.9484,2.8955,2.8823,2.8775,2.8558,2.8679,2.8763,2.8546,2.851,2.851,2.851,2.851,2.851,2.851,2.851,2.851,2.851,2.8618,2.8657,2.851,2.8618,2.8618,2.851,2.8379,2.8299,2.8299,2.8151,2.8042,2.8122,2.8014,2.7921,2.803,2.7788,2.7655,2.7655,2.7423,2.7179,2.7015,2.6891,2.685,2.685,2.685,2.685,2.685,2.6768,2.6768,2.6809,2.6768,2.6768,2.685,2.685,2.6809,2.6727,2.6727,2.6685,2.655,4.0616,4.0343,4.0213,4.0616,4.0702,4.0573,4.0126,4.043,4.0473,3.9736,4.0097,4.0298,4.0053,3.9645,3.9394,3.9394,3.9158,3.8915,3.8749,3.8404,3.8147,3.7975,3.7624,3.6997,3.6021,3.5507,3.5234,3.5234,3.4756,3.4522,3.4439,3.4481,3.4481,3.4397,3.4439,3.4439,3.4397,3.4397,3.4397,3.4397,3.4397,3.411,3.3666,3.3666,3.3666,3.3666,3.3666,3.3979,3.4314,3.3924,3.3458,3.3074,3.3074,3.2436,3.1826,3.2273,3.1408,3.0428,3.0868,3.0606,3.0121,2.9538,2.9441,2.9321,2.8655,2.8883,2.9088,2.8607,2.851,2.851,2.851,2.851,2.851,2.851,2.851,2.851,2.851,2.851,2.851,2.851,2.851,2.851,2.851,2.851,2.851,2.851,2.8339,2.8299,2.8471,2.8163,2.8042,2.8219,2.803,2.7921,2.7921,2.7933,2.7679,2.7231,2.7231,2.7231,2.719,2.719,2.719,2.719,2.7026,2.7015,2.719,2.7015,2.7015,2.719,2.719,2.7097,2.6933,2.6933,2.6809,2.6644,4.0702,4.0616,4.0573,4.0702,4.0702,4.0659,4.0573,4.0616,4.0573,4.0284,4.0342,4.0399,4.0298,4.0211,4.0168,4.0168,3.9774,3.9441,3.9203,3.9261,3.909,3.8548,3.8976,3.888,3.8141,3.7071,3.6416,3.6278,3.5859,3.5426,3.4949,3.5263,3.5059,3.4397,3.4784,3.4743,3.4397,3.4397,3.4397,3.4397,3.4397,3.4332,3.4228,3.4228,3.4228,3.4228,3.4228,3.4293,3.4397,3.4272,3.3937,3.3543,3.3543,3.3169,3.2769,3.325,3.278,3.2135,3.2206,3.1771,3.11,3.0372,3.05,3.041,2.8863,2.8595,2.8655,2.8534,2.851,2.851,2.851,2.851,2.851,2.851,2.851,2.851,2.851,2.851,2.851,2.851,2.851,2.851,2.851,2.851,2.851,2.851,2.8471,2.8471,2.851,2.8431,2.8391,2.8419,2.8231,2.8139,2.8139,2.8002,2.7748,2.7441,2.7441,2.733,2.719,2.719,2.719,2.719,2.7149,2.7149,2.719,2.7149,2.7149,2.719,2.719,2.719,2.7138,2.7138,2.7108,2.7067,4.0702,4.0702,4.0702,4.0702,4.0702,4.0702,4.0702,4.0702,4.0659,4.0544,4.0544,4.0544,4.0544,4.0544,4.0515,4.0399,4.0182,3.9876,3.9496,3.9716,3.9711,3.9324,3.9912,4.0098,3.9871,3.9127,3.8418,3.7675,3.696,3.6415,3.6008,3.5886,3.5548,3.5018,3.5277,3.5154,3.4729,3.4729,3.4605,3.4397,3.4397,3.4397,3.4397,3.4397,3.4397,3.4397,3.4397,3.4397,3.4397,3.4397,3.423,3.4008,3.4008,3.3713,3.3416,3.3768,3.3386,3.2852,3.2832,3.2429,3.1792,3.1004,3.0907,3.0677,2.9224,2.9076,2.9124,2.8619,2.851,2.851,2.851,2.851,2.851,2.851,2.851,2.851,2.851,2.851,2.851,2.851,2.851,2.851,2.851,2.851,2.851,2.851,2.851,2.851,2.851,2.851,2.851,2.851,2.8391,2.8339,2.8339,2.8231,2.807,2.7846,2.7736,2.7626,2.7516,2.7383,2.733,2.733,2.733,2.733,2.733,2.733,2.733,2.733,2.7219,2.719,2.719,2.719,2.719,2.719,4.0702,4.0702,4.0702,4.0702,4.0702,4.0702,4.0702,4.0702,4.0702,4.0702,4.0702,4.0702,4.0702,4.0702,4.063,4.0399,4.0399,4.0225,3.9774,3.9922,3.9996,3.9996,4.043,4.0802,4.1001,4.095,4.0378,3.9192,3.8193,3.7603,3.7304,3.6671,3.6235,3.598,3.5925,3.5669,3.5318,3.5195,3.4949,3.4564,3.4439,3.4397,3.4397,3.4397,3.4397,3.4397,3.4397,3.4397,3.4397,3.4397,3.4397,3.4397,3.4397,3.4147,3.3839,3.4076,3.3683,3.3215,3.324,3.2939,3.2438,3.1712,3.143,3.1059,2.9992,2.9885,2.9784,2.8903,2.869,2.8657,2.8697,2.8697,2.8697,2.8618,2.859,2.859,2.851,2.851,2.851,2.851,2.851,2.851,2.851,2.851,2.851,2.851,2.851,2.851,2.851,2.851,2.851,2.851,2.851,2.851,2.851,2.851,2.8431,2.8259,2.807,2.7962,2.7881,2.7655,2.7563,2.7563,2.7563,2.7563,2.7563,2.7563,2.7563,2.7563,2.7383,2.7313,2.7313,2.7313,2.7313,2.726,4.0702,4.0702,4.0702,4.0702,4.0702,4.0702,4.0702,4.0702,4.0702,4.0702,4.0702,4.0702,4.0702,4.0702,4.063,4.0399,4.0399,4.0255,3.9966,3.9996,3.9996,3.9996,4.043,4.0802,4.1001,4.1393,4.1146,4.0283,3.9722,3.9193,3.8638,3.8169,3.7688,3.7069,3.6704,3.6415,3.611,3.5588,3.5318,3.5236,3.4647,3.4397,3.4397,3.4397,3.4397,3.4397,3.4397,3.4397,3.4397,3.4397,3.4397,3.4397,3.4397,3.4356,3.4314,3.4356,3.416,3.3949,3.3949,3.3738,3.3403,3.2968,3.2943,3.278,3.1774,3.0584,2.9667,2.9695,2.9478,2.9341,2.9523,2.9561,2.9406,2.9091,2.9013,2.8895,2.855,2.851,2.851,2.851,2.851,2.851,2.851,2.851,2.851,2.851,2.851,2.851,2.851,2.851,2.851,2.851,2.851,2.851,2.851,2.851,2.8471,2.8471,2.8431,2.8243,2.7893,2.7841,2.7841,2.7841,2.7841,2.7841,2.7841,2.7841,2.7841,2.7841,2.7812,2.7812,2.7812,2.7812,2.7667,2.7441,4.0702,4.0702,4.0702,4.0702,4.0702,4.0702,4.0702,4.0702,4.0702,4.0702,4.0702,4.0702,4.0702,4.0702,4.0659,4.0587,4.0544,4.0457,4.0255,4.0314,4.0357,4.0255,4.0645,4.093,4.1001,4.1479,4.1531,4.1175,4.0747,4.0334,3.9941,3.9422,3.8922,3.8519,3.7978,3.7563,3.7125,3.6448,3.5951,3.5669,3.5072,3.4949,3.51,3.4867,3.4784,3.4743,3.4369,3.4243,3.4189,3.4063,3.4105,3.4243,3.4243,3.4314,3.4397,3.4285,3.4243,3.4189,3.3937,3.381,3.3641,3.3356,3.3227,3.3066,3.2614,3.1855,3.1194,3.0867,3.0396,3.0115,3.0181,2.9735,2.9314,2.9131,2.8895,2.8697,2.851,2.851,2.851,2.851,2.851,2.851,2.851,2.851,2.851,2.851,2.851,2.851,2.851,2.851,2.851,2.851,2.851,2.851,2.851,2.851,2.851,2.851,2.851,2.8391,2.8231,2.8111,2.807,2.807,2.807,2.807,2.807,2.807,2.807,2.807,2.7921,2.7893,2.7881,2.7748,2.7708,2.7708]}]]